<?xml version="1.0" encoding="UTF-8" standalone="no" ?>
<gpx xmlns="http://www.topografix.com/GPX/1/1" xmlns:xsi="http://www.w3.org/2001/XMLSchema-instance" xsi:schemaLocation="http://www.topografix.com/GPX/1/1 http://www.topografix.com/GPX/1/1/gpx.xsd" version="1.1" creator="VisuGPX - https://www.visugpx.com">
  <metadata>
    <name>Ténébra, Géricault et Néo</name>
    <desc><![CDATA[Et où Maud apprend à faire confiance au sens du \"retour à la maison\" de ma jument Ténébra !
une belle balade avec des terrains pour la plupart corrects pour un mois de janvier]]></desc>
  </metadata>
  <trk>
    <name><![CDATA[Balade avec Ténébra, Géricault et Néo]]></name>
    <trkseg>
      <trkpt lat="48.70707" lon="1.7549">
        <ele>172</ele>
        <time>2014-01-19T11:56:45.000Z</time>
      </trkpt>
      <trkpt lat="48.70706" lon="1.75491">
        <ele>172</ele>
        <time>2014-01-19T11:56:46.000Z</time>
      </trkpt>
      <trkpt lat="48.70702" lon="1.75499">
        <ele>172.19999694824</ele>
        <time>2014-01-19T11:56:53.000Z</time>
      </trkpt>
      <trkpt lat="48.70699" lon="1.75508">
        <ele>172.39999389648</ele>
        <time>2014-01-19T11:57:00.000Z</time>
      </trkpt>
      <trkpt lat="48.70697" lon="1.75516">
        <ele>172.60000610352</ele>
        <time>2014-01-19T11:57:06.000Z</time>
      </trkpt>
      <trkpt lat="48.70694" lon="1.75521">
        <ele>172.80000305176</ele>
        <time>2014-01-19T11:57:11.000Z</time>
      </trkpt>
      <trkpt lat="48.70689" lon="1.75531">
        <ele>173.19999694824</ele>
        <time>2014-01-19T11:57:19.000Z</time>
      </trkpt>
      <trkpt lat="48.70689" lon="1.75533">
        <ele>173.19999694824</ele>
        <time>2014-01-19T11:57:20.000Z</time>
      </trkpt>
      <trkpt lat="48.70682" lon="1.75545">
        <ele>173.60000610352</ele>
        <time>2014-01-19T11:57:30.000Z</time>
      </trkpt>
      <trkpt lat="48.7068" lon="1.75551">
        <ele>173.80000305176</ele>
        <time>2014-01-19T11:57:34.000Z</time>
      </trkpt>
      <trkpt lat="48.70679" lon="1.75555">
        <ele>174</ele>
        <time>2014-01-19T11:57:37.000Z</time>
      </trkpt>
      <trkpt lat="48.70676" lon="1.75559">
        <ele>174.19999694824</ele>
        <time>2014-01-19T11:57:41.000Z</time>
      </trkpt>
      <trkpt lat="48.70671" lon="1.7557">
        <ele>174.60000610352</ele>
        <time>2014-01-19T11:57:49.000Z</time>
      </trkpt>
      <trkpt lat="48.70666" lon="1.75581">
        <ele>175</ele>
        <time>2014-01-19T11:57:57.000Z</time>
      </trkpt>
      <trkpt lat="48.70661" lon="1.75593">
        <ele>175.60000610352</ele>
        <time>2014-01-19T11:58:05.000Z</time>
      </trkpt>
      <trkpt lat="48.70656" lon="1.75603">
        <ele>176</ele>
        <time>2014-01-19T11:58:12.000Z</time>
      </trkpt>
      <trkpt lat="48.70654" lon="1.75609">
        <ele>176.39999389648</ele>
        <time>2014-01-19T11:58:17.000Z</time>
      </trkpt>
      <trkpt lat="48.70652" lon="1.75611">
        <ele>176.60000610352</ele>
        <time>2014-01-19T11:58:19.000Z</time>
      </trkpt>
      <trkpt lat="48.70648" lon="1.7562">
        <ele>177</ele>
        <time>2014-01-19T11:58:24.000Z</time>
      </trkpt>
      <trkpt lat="48.70643" lon="1.75635">
        <ele>177.60000610352</ele>
        <time>2014-01-19T11:58:33.000Z</time>
      </trkpt>
      <trkpt lat="48.70642" lon="1.75641">
        <ele>177.80000305176</ele>
        <time>2014-01-19T11:58:37.000Z</time>
      </trkpt>
      <trkpt lat="48.70642" lon="1.75654">
        <ele>177.80000305176</ele>
        <time>2014-01-19T11:58:46.000Z</time>
      </trkpt>
      <trkpt lat="48.70645" lon="1.75663">
        <ele>177.60000610352</ele>
        <time>2014-01-19T11:58:53.000Z</time>
      </trkpt>
      <trkpt lat="48.70643" lon="1.75665">
        <ele>177.80000305176</ele>
        <time>2014-01-19T11:59:00.000Z</time>
      </trkpt>
      <trkpt lat="48.70598" lon="1.7561">
        <ele>182.19999694824</ele>
        <time>2014-01-19T12:01:47.000Z</time>
      </trkpt>
      <trkpt lat="48.70595" lon="1.75605">
        <ele>182.39999389648</ele>
        <time>2014-01-19T12:01:50.000Z</time>
      </trkpt>
      <trkpt lat="48.70592" lon="1.75599">
        <ele>182.39999389648</ele>
        <time>2014-01-19T12:01:54.000Z</time>
      </trkpt>
      <trkpt lat="48.70587" lon="1.75594">
        <ele>183</ele>
        <time>2014-01-19T12:02:00.000Z</time>
      </trkpt>
      <trkpt lat="48.70581" lon="1.75589">
        <ele>183.19999694824</ele>
        <time>2014-01-19T12:02:06.000Z</time>
      </trkpt>
      <trkpt lat="48.70579" lon="1.75588">
        <ele>183.19999694824</ele>
        <time>2014-01-19T12:02:07.000Z</time>
      </trkpt>
      <trkpt lat="48.70574" lon="1.75579">
        <ele>182.80000305176</ele>
        <time>2014-01-19T12:02:14.000Z</time>
      </trkpt>
      <trkpt lat="48.70572" lon="1.75578">
        <ele>182.80000305176</ele>
        <time>2014-01-19T12:02:17.000Z</time>
      </trkpt>
      <trkpt lat="48.70568" lon="1.75575">
        <ele>182.60000610352</ele>
        <time>2014-01-19T12:02:21.000Z</time>
      </trkpt>
      <trkpt lat="48.7056" lon="1.75567">
        <ele>182</ele>
        <time>2014-01-19T12:02:28.000Z</time>
      </trkpt>
      <trkpt lat="48.70557" lon="1.75564">
        <ele>181.80000305176</ele>
        <time>2014-01-19T12:02:33.000Z</time>
      </trkpt>
      <trkpt lat="48.70554" lon="1.7556">
        <ele>181.60000610352</ele>
        <time>2014-01-19T12:02:36.000Z</time>
      </trkpt>
      <trkpt lat="48.70552" lon="1.75559">
        <ele>181.60000610352</ele>
        <time>2014-01-19T12:02:38.000Z</time>
      </trkpt>
      <trkpt lat="48.70547" lon="1.75556">
        <ele>181.60000610352</ele>
        <time>2014-01-19T12:02:42.000Z</time>
      </trkpt>
      <trkpt lat="48.70545" lon="1.7555">
        <ele>181.19999694824</ele>
        <time>2014-01-19T12:02:51.000Z</time>
      </trkpt>
      <trkpt lat="48.70547" lon="1.75548">
        <ele>181</ele>
        <time>2014-01-19T12:02:57.000Z</time>
      </trkpt>
      <trkpt lat="48.70526" lon="1.75527">
        <ele>180.60000610352</ele>
        <time>2014-01-19T12:04:16.000Z</time>
      </trkpt>
      <trkpt lat="48.70519" lon="1.75519">
        <ele>180.60000610352</ele>
        <time>2014-01-19T12:04:21.000Z</time>
      </trkpt>
      <trkpt lat="48.70513" lon="1.75513">
        <ele>180.60000610352</ele>
        <time>2014-01-19T12:04:26.000Z</time>
      </trkpt>
      <trkpt lat="48.70509" lon="1.75508">
        <ele>180.60000610352</ele>
        <time>2014-01-19T12:04:31.000Z</time>
      </trkpt>
      <trkpt lat="48.705" lon="1.75502">
        <ele>181.19999694824</ele>
        <time>2014-01-19T12:04:39.000Z</time>
      </trkpt>
      <trkpt lat="48.70499" lon="1.75501">
        <ele>181.19999694824</ele>
        <time>2014-01-19T12:04:40.000Z</time>
      </trkpt>
      <trkpt lat="48.70492" lon="1.75497">
        <ele>181.19999694824</ele>
        <time>2014-01-19T12:04:46.000Z</time>
      </trkpt>
      <trkpt lat="48.70488" lon="1.75491">
        <ele>181</ele>
        <time>2014-01-19T12:04:52.000Z</time>
      </trkpt>
      <trkpt lat="48.70482" lon="1.75484">
        <ele>180.80000305176</ele>
        <time>2014-01-19T12:04:58.000Z</time>
      </trkpt>
      <trkpt lat="48.70477" lon="1.75476">
        <ele>180.60000610352</ele>
        <time>2014-01-19T12:05:04.000Z</time>
      </trkpt>
      <trkpt lat="48.70472" lon="1.7547">
        <ele>180.60000610352</ele>
        <time>2014-01-19T12:05:10.000Z</time>
      </trkpt>
      <trkpt lat="48.70471" lon="1.7547">
        <ele>180.60000610352</ele>
        <time>2014-01-19T12:05:11.000Z</time>
      </trkpt>
      <trkpt lat="48.70468" lon="1.75467">
        <ele>180.60000610352</ele>
        <time>2014-01-19T12:05:17.000Z</time>
      </trkpt>
      <trkpt lat="48.70468" lon="1.75466">
        <ele>180.60000610352</ele>
        <time>2014-01-19T12:05:18.000Z</time>
      </trkpt>
      <trkpt lat="48.70455" lon="1.75456">
        <ele>180.80000305176</ele>
        <time>2014-01-19T12:06:04.000Z</time>
      </trkpt>
      <trkpt lat="48.70454" lon="1.75455">
        <ele>180.80000305176</ele>
        <time>2014-01-19T12:06:05.000Z</time>
      </trkpt>
      <trkpt lat="48.70452" lon="1.75455">
        <ele>181</ele>
        <time>2014-01-19T12:06:06.000Z</time>
      </trkpt>
      <trkpt lat="48.70443" lon="1.7545">
        <ele>181.19999694824</ele>
        <time>2014-01-19T12:06:14.000Z</time>
      </trkpt>
      <trkpt lat="48.70439" lon="1.75445">
        <ele>181.39999389648</ele>
        <time>2014-01-19T12:06:19.000Z</time>
      </trkpt>
      <trkpt lat="48.70433" lon="1.75441">
        <ele>181.60000610352</ele>
        <time>2014-01-19T12:06:25.000Z</time>
      </trkpt>
      <trkpt lat="48.70428" lon="1.75437">
        <ele>181.80000305176</ele>
        <time>2014-01-19T12:06:30.000Z</time>
      </trkpt>
      <trkpt lat="48.70422" lon="1.75434">
        <ele>182</ele>
        <time>2014-01-19T12:06:35.000Z</time>
      </trkpt>
      <trkpt lat="48.70414" lon="1.75431">
        <ele>182.19999694824</ele>
        <time>2014-01-19T12:06:42.000Z</time>
      </trkpt>
      <trkpt lat="48.70409" lon="1.75425">
        <ele>182</ele>
        <time>2014-01-19T12:06:47.000Z</time>
      </trkpt>
      <trkpt lat="48.70408" lon="1.75424">
        <ele>182</ele>
        <time>2014-01-19T12:06:48.000Z</time>
      </trkpt>
      <trkpt lat="48.70406" lon="1.75423">
        <ele>182</ele>
        <time>2014-01-19T12:06:50.000Z</time>
      </trkpt>
      <trkpt lat="48.70399" lon="1.75417">
        <ele>181.80000305176</ele>
        <time>2014-01-19T12:06:56.000Z</time>
      </trkpt>
      <trkpt lat="48.70398" lon="1.75416">
        <ele>181.80000305176</ele>
        <time>2014-01-19T12:06:58.000Z</time>
      </trkpt>
      <trkpt lat="48.70396" lon="1.75412">
        <ele>181.60000610352</ele>
        <time>2014-01-19T12:07:02.000Z</time>
      </trkpt>
      <trkpt lat="48.70392" lon="1.75414">
        <ele>181.60000610352</ele>
        <time>2014-01-19T12:07:06.000Z</time>
      </trkpt>
      <trkpt lat="48.70383" lon="1.75411">
        <ele>181.39999389648</ele>
        <time>2014-01-19T12:07:13.000Z</time>
      </trkpt>
      <trkpt lat="48.70381" lon="1.75411">
        <ele>181.39999389648</ele>
        <time>2014-01-19T12:07:14.000Z</time>
      </trkpt>
      <trkpt lat="48.70376" lon="1.75407">
        <ele>181.19999694824</ele>
        <time>2014-01-19T12:07:19.000Z</time>
      </trkpt>
      <trkpt lat="48.70373" lon="1.75403">
        <ele>181.19999694824</ele>
        <time>2014-01-19T12:07:23.000Z</time>
      </trkpt>
      <trkpt lat="48.70371" lon="1.75398">
        <ele>181</ele>
        <time>2014-01-19T12:07:28.000Z</time>
      </trkpt>
      <trkpt lat="48.70357" lon="1.75385">
        <ele>180.80000305176</ele>
        <time>2014-01-19T12:08:45.000Z</time>
      </trkpt>
      <trkpt lat="48.70355" lon="1.75384">
        <ele>180.80000305176</ele>
        <time>2014-01-19T12:08:46.000Z</time>
      </trkpt>
      <trkpt lat="48.70352" lon="1.7538">
        <ele>180.80000305176</ele>
        <time>2014-01-19T12:08:49.000Z</time>
      </trkpt>
      <trkpt lat="48.7035" lon="1.75375">
        <ele>180.80000305176</ele>
        <time>2014-01-19T12:08:53.000Z</time>
      </trkpt>
      <trkpt lat="48.70346" lon="1.75369">
        <ele>180.80000305176</ele>
        <time>2014-01-19T12:08:59.000Z</time>
      </trkpt>
      <trkpt lat="48.70341" lon="1.75365">
        <ele>180.80000305176</ele>
        <time>2014-01-19T12:09:04.000Z</time>
      </trkpt>
      <trkpt lat="48.70339" lon="1.75363">
        <ele>180.80000305176</ele>
        <time>2014-01-19T12:09:06.000Z</time>
      </trkpt>
      <trkpt lat="48.70336" lon="1.7536">
        <ele>181</ele>
        <time>2014-01-19T12:09:09.000Z</time>
      </trkpt>
      <trkpt lat="48.7033" lon="1.75355">
        <ele>180.80000305176</ele>
        <time>2014-01-19T12:09:16.000Z</time>
      </trkpt>
      <trkpt lat="48.7033" lon="1.75355">
        <ele>180.80000305176</ele>
        <time>2014-01-19T12:09:17.000Z</time>
      </trkpt>
      <trkpt lat="48.70324" lon="1.75348">
        <ele>180.80000305176</ele>
        <time>2014-01-19T12:09:27.000Z</time>
      </trkpt>
      <trkpt lat="48.70317" lon="1.75344">
        <ele>180.60000610352</ele>
        <time>2014-01-19T12:09:31.000Z</time>
      </trkpt>
      <trkpt lat="48.70312" lon="1.75338">
        <ele>180.39999389648</ele>
        <time>2014-01-19T12:09:36.000Z</time>
      </trkpt>
      <trkpt lat="48.70308" lon="1.75331">
        <ele>180.39999389648</ele>
        <time>2014-01-19T12:09:41.000Z</time>
      </trkpt>
      <trkpt lat="48.70305" lon="1.75323">
        <ele>180.39999389648</ele>
        <time>2014-01-19T12:09:48.000Z</time>
      </trkpt>
      <trkpt lat="48.70305" lon="1.7532">
        <ele>180.39999389648</ele>
        <time>2014-01-19T12:09:52.000Z</time>
      </trkpt>
      <trkpt lat="48.70306" lon="1.75319">
        <ele>180.60000610352</ele>
        <time>2014-01-19T12:09:55.000Z</time>
      </trkpt>
      <trkpt lat="48.70305" lon="1.75307">
        <ele>180.60000610352</ele>
        <time>2014-01-19T12:10:34.000Z</time>
      </trkpt>
      <trkpt lat="48.70297" lon="1.75298">
        <ele>180.60000610352</ele>
        <time>2014-01-19T12:10:41.000Z</time>
      </trkpt>
      <trkpt lat="48.7029" lon="1.75293">
        <ele>180.39999389648</ele>
        <time>2014-01-19T12:10:47.000Z</time>
      </trkpt>
      <trkpt lat="48.70284" lon="1.75289">
        <ele>180.39999389648</ele>
        <time>2014-01-19T12:10:52.000Z</time>
      </trkpt>
      <trkpt lat="48.70275" lon="1.75282">
        <ele>180.19999694824</ele>
        <time>2014-01-19T12:11:00.000Z</time>
      </trkpt>
      <trkpt lat="48.70267" lon="1.75277">
        <ele>180</ele>
        <time>2014-01-19T12:11:06.000Z</time>
      </trkpt>
      <trkpt lat="48.7026" lon="1.75273">
        <ele>180</ele>
        <time>2014-01-19T12:11:12.000Z</time>
      </trkpt>
      <trkpt lat="48.70257" lon="1.75271">
        <ele>180</ele>
        <time>2014-01-19T12:11:15.000Z</time>
      </trkpt>
      <trkpt lat="48.70251" lon="1.75263">
        <ele>179.80000305176</ele>
        <time>2014-01-19T12:11:21.000Z</time>
      </trkpt>
      <trkpt lat="48.70248" lon="1.75261">
        <ele>179.80000305176</ele>
        <time>2014-01-19T12:11:23.000Z</time>
      </trkpt>
      <trkpt lat="48.70239" lon="1.75253">
        <ele>179.39999389648</ele>
        <time>2014-01-19T12:11:31.000Z</time>
      </trkpt>
      <trkpt lat="48.70231" lon="1.75248">
        <ele>179</ele>
        <time>2014-01-19T12:11:38.000Z</time>
      </trkpt>
      <trkpt lat="48.7022" lon="1.75245">
        <ele>178.60000610352</ele>
        <time>2014-01-19T12:11:47.000Z</time>
      </trkpt>
      <trkpt lat="48.70214" lon="1.75246">
        <ele>178.19999694824</ele>
        <time>2014-01-19T12:11:53.000Z</time>
      </trkpt>
      <trkpt lat="48.70207" lon="1.75249">
        <ele>178</ele>
        <time>2014-01-19T12:12:00.000Z</time>
      </trkpt>
      <trkpt lat="48.70198" lon="1.75254">
        <ele>177.39999389648</ele>
        <time>2014-01-19T12:12:07.000Z</time>
      </trkpt>
      <trkpt lat="48.70195" lon="1.75255">
        <ele>177.39999389648</ele>
        <time>2014-01-19T12:12:09.000Z</time>
      </trkpt>
      <trkpt lat="48.70191" lon="1.75255">
        <ele>177.19999694824</ele>
        <time>2014-01-19T12:12:12.000Z</time>
      </trkpt>
      <trkpt lat="48.70183" lon="1.75257">
        <ele>176.80000305176</ele>
        <time>2014-01-19T12:12:18.000Z</time>
      </trkpt>
      <trkpt lat="48.70175" lon="1.75262">
        <ele>176.39999389648</ele>
        <time>2014-01-19T12:12:24.000Z</time>
      </trkpt>
      <trkpt lat="48.70168" lon="1.75266">
        <ele>176</ele>
        <time>2014-01-19T12:12:30.000Z</time>
      </trkpt>
      <trkpt lat="48.70159" lon="1.75271">
        <ele>176</ele>
        <time>2014-01-19T12:12:38.000Z</time>
      </trkpt>
      <trkpt lat="48.70158" lon="1.75271">
        <ele>176</ele>
        <time>2014-01-19T12:12:39.000Z</time>
      </trkpt>
      <trkpt lat="48.70153" lon="1.75273">
        <ele>175.80000305176</ele>
        <time>2014-01-19T12:12:44.000Z</time>
      </trkpt>
      <trkpt lat="48.70144" lon="1.75276">
        <ele>175.80000305176</ele>
        <time>2014-01-19T12:12:50.000Z</time>
      </trkpt>
      <trkpt lat="48.70136" lon="1.7528">
        <ele>175.60000610352</ele>
        <time>2014-01-19T12:12:55.000Z</time>
      </trkpt>
      <trkpt lat="48.70133" lon="1.75281">
        <ele>175.60000610352</ele>
        <time>2014-01-19T12:12:57.000Z</time>
      </trkpt>
      <trkpt lat="48.70128" lon="1.75284">
        <ele>175.39999389648</ele>
        <time>2014-01-19T12:13:02.000Z</time>
      </trkpt>
      <trkpt lat="48.70118" lon="1.75288">
        <ele>175.19999694824</ele>
        <time>2014-01-19T12:13:09.000Z</time>
      </trkpt>
      <trkpt lat="48.70116" lon="1.75289">
        <ele>175.19999694824</ele>
        <time>2014-01-19T12:13:11.000Z</time>
      </trkpt>
      <trkpt lat="48.70111" lon="1.75291">
        <ele>175</ele>
        <time>2014-01-19T12:13:15.000Z</time>
      </trkpt>
      <trkpt lat="48.70105" lon="1.75295">
        <ele>174.80000305176</ele>
        <time>2014-01-19T12:13:20.000Z</time>
      </trkpt>
      <trkpt lat="48.70098" lon="1.75299">
        <ele>174.60000610352</ele>
        <time>2014-01-19T12:13:23.000Z</time>
      </trkpt>
      <trkpt lat="48.7009" lon="1.75305">
        <ele>174.19999694824</ele>
        <time>2014-01-19T12:13:29.000Z</time>
      </trkpt>
      <trkpt lat="48.7008" lon="1.75309">
        <ele>173.80000305176</ele>
        <time>2014-01-19T12:13:36.000Z</time>
      </trkpt>
      <trkpt lat="48.70078" lon="1.75309">
        <ele>173.80000305176</ele>
        <time>2014-01-19T12:13:37.000Z</time>
      </trkpt>
      <trkpt lat="48.70073" lon="1.75313">
        <ele>173.60000610352</ele>
        <time>2014-01-19T12:13:41.000Z</time>
      </trkpt>
      <trkpt lat="48.70063" lon="1.75317">
        <ele>173.19999694824</ele>
        <time>2014-01-19T12:13:48.000Z</time>
      </trkpt>
      <trkpt lat="48.70053" lon="1.75323">
        <ele>173</ele>
        <time>2014-01-19T12:13:55.000Z</time>
      </trkpt>
      <trkpt lat="48.70044" lon="1.75327">
        <ele>172.80000305176</ele>
        <time>2014-01-19T12:14:01.000Z</time>
      </trkpt>
      <trkpt lat="48.70037" lon="1.75329">
        <ele>172.60000610352</ele>
        <time>2014-01-19T12:14:07.000Z</time>
      </trkpt>
      <trkpt lat="48.70032" lon="1.75335">
        <ele>172.19999694824</ele>
        <time>2014-01-19T12:14:12.000Z</time>
      </trkpt>
      <trkpt lat="48.70031" lon="1.75336">
        <ele>172.19999694824</ele>
        <time>2014-01-19T12:14:13.000Z</time>
      </trkpt>
      <trkpt lat="48.70026" lon="1.75336">
        <ele>172.19999694824</ele>
        <time>2014-01-19T12:14:17.000Z</time>
      </trkpt>
      <trkpt lat="48.70021" lon="1.7534">
        <ele>172</ele>
        <time>2014-01-19T12:14:20.000Z</time>
      </trkpt>
      <trkpt lat="48.70012" lon="1.75342">
        <ele>171.80000305176</ele>
        <time>2014-01-19T12:14:26.000Z</time>
      </trkpt>
      <trkpt lat="48.70005" lon="1.75347">
        <ele>171.60000610352</ele>
        <time>2014-01-19T12:14:32.000Z</time>
      </trkpt>
      <trkpt lat="48.70001" lon="1.75348">
        <ele>171.39999389648</ele>
        <time>2014-01-19T12:14:35.000Z</time>
      </trkpt>
      <trkpt lat="48.69991" lon="1.75352">
        <ele>171.39999389648</ele>
        <time>2014-01-19T12:14:44.000Z</time>
      </trkpt>
      <trkpt lat="48.6998" lon="1.75357">
        <ele>171.60000610352</ele>
        <time>2014-01-19T12:14:51.000Z</time>
      </trkpt>
      <trkpt lat="48.69973" lon="1.75364">
        <ele>171.39999389648</ele>
        <time>2014-01-19T12:14:57.000Z</time>
      </trkpt>
      <trkpt lat="48.69967" lon="1.75366">
        <ele>171.60000610352</ele>
        <time>2014-01-19T12:15:02.000Z</time>
      </trkpt>
      <trkpt lat="48.69959" lon="1.75369">
        <ele>171.60000610352</ele>
        <time>2014-01-19T12:15:08.000Z</time>
      </trkpt>
      <trkpt lat="48.69951" lon="1.75371">
        <ele>171.80000305176</ele>
        <time>2014-01-19T12:15:14.000Z</time>
      </trkpt>
      <trkpt lat="48.69944" lon="1.75374">
        <ele>171.80000305176</ele>
        <time>2014-01-19T12:15:20.000Z</time>
      </trkpt>
      <trkpt lat="48.69937" lon="1.75377">
        <ele>172</ele>
        <time>2014-01-19T12:15:26.000Z</time>
      </trkpt>
      <trkpt lat="48.69928" lon="1.75383">
        <ele>172</ele>
        <time>2014-01-19T12:15:33.000Z</time>
      </trkpt>
      <trkpt lat="48.69927" lon="1.75383">
        <ele>172.19999694824</ele>
        <time>2014-01-19T12:15:34.000Z</time>
      </trkpt>
      <trkpt lat="48.69918" lon="1.75387">
        <ele>172.39999389648</ele>
        <time>2014-01-19T12:15:41.000Z</time>
      </trkpt>
      <trkpt lat="48.69916" lon="1.75389">
        <ele>172.39999389648</ele>
        <time>2014-01-19T12:15:43.000Z</time>
      </trkpt>
      <trkpt lat="48.69908" lon="1.75391">
        <ele>172.19999694824</ele>
        <time>2014-01-19T12:15:49.000Z</time>
      </trkpt>
      <trkpt lat="48.69899" lon="1.75392">
        <ele>172</ele>
        <time>2014-01-19T12:15:55.000Z</time>
      </trkpt>
      <trkpt lat="48.6989" lon="1.7538">
        <ele>172</ele>
        <time>2014-01-19T12:16:04.000Z</time>
      </trkpt>
      <trkpt lat="48.69885" lon="1.75368">
        <ele>172</ele>
        <time>2014-01-19T12:16:10.000Z</time>
      </trkpt>
      <trkpt lat="48.69885" lon="1.75358">
        <ele>172.19999694824</ele>
        <time>2014-01-19T12:16:15.000Z</time>
      </trkpt>
      <trkpt lat="48.69883" lon="1.7534">
        <ele>172.39999389648</ele>
        <time>2014-01-19T12:16:23.000Z</time>
      </trkpt>
      <trkpt lat="48.69883" lon="1.7533">
        <ele>172.60000610352</ele>
        <time>2014-01-19T12:16:28.000Z</time>
      </trkpt>
      <trkpt lat="48.69881" lon="1.75321">
        <ele>172.80000305176</ele>
        <time>2014-01-19T12:16:33.000Z</time>
      </trkpt>
      <trkpt lat="48.6988" lon="1.75314">
        <ele>173</ele>
        <time>2014-01-19T12:16:36.000Z</time>
      </trkpt>
      <trkpt lat="48.69878" lon="1.75297">
        <ele>173.19999694824</ele>
        <time>2014-01-19T12:16:45.000Z</time>
      </trkpt>
      <trkpt lat="48.69875" lon="1.75282">
        <ele>173.39999389648</ele>
        <time>2014-01-19T12:16:52.000Z</time>
      </trkpt>
      <trkpt lat="48.69873" lon="1.75272">
        <ele>173.60000610352</ele>
        <time>2014-01-19T12:16:57.000Z</time>
      </trkpt>
      <trkpt lat="48.69872" lon="1.75261">
        <ele>173.80000305176</ele>
        <time>2014-01-19T12:17:04.000Z</time>
      </trkpt>
      <trkpt lat="48.69871" lon="1.75255">
        <ele>173.80000305176</ele>
        <time>2014-01-19T12:17:08.000Z</time>
      </trkpt>
      <trkpt lat="48.69871" lon="1.75251">
        <ele>173.80000305176</ele>
        <time>2014-01-19T12:17:10.000Z</time>
      </trkpt>
      <trkpt lat="48.6987" lon="1.75241">
        <ele>173.80000305176</ele>
        <time>2014-01-19T12:17:15.000Z</time>
      </trkpt>
      <trkpt lat="48.69864" lon="1.75223">
        <ele>173.39999389648</ele>
        <time>2014-01-19T12:17:23.000Z</time>
      </trkpt>
      <trkpt lat="48.69862" lon="1.75212">
        <ele>173.19999694824</ele>
        <time>2014-01-19T12:17:28.000Z</time>
      </trkpt>
      <trkpt lat="48.6986" lon="1.75195">
        <ele>172.80000305176</ele>
        <time>2014-01-19T12:17:36.000Z</time>
      </trkpt>
      <trkpt lat="48.69857" lon="1.75179">
        <ele>172.19999694824</ele>
        <time>2014-01-19T12:17:44.000Z</time>
      </trkpt>
      <trkpt lat="48.69855" lon="1.75165">
        <ele>171.80000305176</ele>
        <time>2014-01-19T12:17:51.000Z</time>
      </trkpt>
      <trkpt lat="48.69853" lon="1.7515">
        <ele>171.39999389648</ele>
        <time>2014-01-19T12:17:58.000Z</time>
      </trkpt>
      <trkpt lat="48.6985" lon="1.75139">
        <ele>171.19999694824</ele>
        <time>2014-01-19T12:18:04.000Z</time>
      </trkpt>
      <trkpt lat="48.69848" lon="1.75121">
        <ele>171</ele>
        <time>2014-01-19T12:18:13.000Z</time>
      </trkpt>
      <trkpt lat="48.69845" lon="1.75108">
        <ele>170.60000610352</ele>
        <time>2014-01-19T12:18:20.000Z</time>
      </trkpt>
      <trkpt lat="48.6984" lon="1.75093">
        <ele>170.39999389648</ele>
        <time>2014-01-19T12:18:28.000Z</time>
      </trkpt>
      <trkpt lat="48.69838" lon="1.75086">
        <ele>170.19999694824</ele>
        <time>2014-01-19T12:18:31.000Z</time>
      </trkpt>
      <trkpt lat="48.69836" lon="1.75077">
        <ele>170</ele>
        <time>2014-01-19T12:18:36.000Z</time>
      </trkpt>
      <trkpt lat="48.69832" lon="1.75061">
        <ele>169.60000610352</ele>
        <time>2014-01-19T12:18:44.000Z</time>
      </trkpt>
      <trkpt lat="48.69831" lon="1.75047">
        <ele>169.60000610352</ele>
        <time>2014-01-19T12:18:51.000Z</time>
      </trkpt>
      <trkpt lat="48.6983" lon="1.75033">
        <ele>169.19999694824</ele>
        <time>2014-01-19T12:18:58.000Z</time>
      </trkpt>
      <trkpt lat="48.6983" lon="1.75031">
        <ele>169.19999694824</ele>
        <time>2014-01-19T12:18:59.000Z</time>
      </trkpt>
      <trkpt lat="48.69826" lon="1.75018">
        <ele>169</ele>
        <time>2014-01-19T12:19:05.000Z</time>
      </trkpt>
      <trkpt lat="48.69825" lon="1.75013">
        <ele>168.80000305176</ele>
        <time>2014-01-19T12:19:07.000Z</time>
      </trkpt>
      <trkpt lat="48.69823" lon="1.74999">
        <ele>168.60000610352</ele>
        <time>2014-01-19T12:19:14.000Z</time>
      </trkpt>
      <trkpt lat="48.69824" lon="1.74984">
        <ele>168.39999389648</ele>
        <time>2014-01-19T12:19:21.000Z</time>
      </trkpt>
      <trkpt lat="48.69823" lon="1.74969">
        <ele>168</ele>
        <time>2014-01-19T12:19:29.000Z</time>
      </trkpt>
      <trkpt lat="48.69819" lon="1.74958">
        <ele>167.60000610352</ele>
        <time>2014-01-19T12:19:35.000Z</time>
      </trkpt>
      <trkpt lat="48.69818" lon="1.74957">
        <ele>167.60000610352</ele>
        <time>2014-01-19T12:19:36.000Z</time>
      </trkpt>
      <trkpt lat="48.69817" lon="1.74951">
        <ele>167.39999389648</ele>
        <time>2014-01-19T12:19:39.000Z</time>
      </trkpt>
      <trkpt lat="48.69816" lon="1.74933">
        <ele>167</ele>
        <time>2014-01-19T12:19:47.000Z</time>
      </trkpt>
      <trkpt lat="48.69814" lon="1.74924">
        <ele>167</ele>
        <time>2014-01-19T12:19:51.000Z</time>
      </trkpt>
      <trkpt lat="48.69812" lon="1.74918">
        <ele>166.80000305176</ele>
        <time>2014-01-19T12:19:54.000Z</time>
      </trkpt>
      <trkpt lat="48.69811" lon="1.74907">
        <ele>167</ele>
        <time>2014-01-19T12:20:00.000Z</time>
      </trkpt>
      <trkpt lat="48.69809" lon="1.74896">
        <ele>167.39999389648</ele>
        <time>2014-01-19T12:20:06.000Z</time>
      </trkpt>
      <trkpt lat="48.69803" lon="1.74892">
        <ele>167.19999694824</ele>
        <time>2014-01-19T12:20:11.000Z</time>
      </trkpt>
      <trkpt lat="48.69795" lon="1.74893">
        <ele>167</ele>
        <time>2014-01-19T12:20:18.000Z</time>
      </trkpt>
      <trkpt lat="48.69792" lon="1.74894">
        <ele>167</ele>
        <time>2014-01-19T12:20:20.000Z</time>
      </trkpt>
      <trkpt lat="48.69781" lon="1.74898">
        <ele>166.60000610352</ele>
        <time>2014-01-19T12:20:28.000Z</time>
      </trkpt>
      <trkpt lat="48.69774" lon="1.74901">
        <ele>166.39999389648</ele>
        <time>2014-01-19T12:20:34.000Z</time>
      </trkpt>
      <trkpt lat="48.69766" lon="1.74907">
        <ele>166.19999694824</ele>
        <time>2014-01-19T12:20:42.000Z</time>
      </trkpt>
      <trkpt lat="48.6976" lon="1.7491">
        <ele>166</ele>
        <time>2014-01-19T12:20:48.000Z</time>
      </trkpt>
      <trkpt lat="48.69748" lon="1.74916">
        <ele>165.80000305176</ele>
        <time>2014-01-19T12:20:56.000Z</time>
      </trkpt>
      <trkpt lat="48.69738" lon="1.74919">
        <ele>165.39999389648</ele>
        <time>2014-01-19T12:21:02.000Z</time>
      </trkpt>
      <trkpt lat="48.69728" lon="1.74924">
        <ele>165</ele>
        <time>2014-01-19T12:21:08.000Z</time>
      </trkpt>
      <trkpt lat="48.69727" lon="1.74924">
        <ele>165</ele>
        <time>2014-01-19T12:21:09.000Z</time>
      </trkpt>
      <trkpt lat="48.69718" lon="1.74929">
        <ele>164.60000610352</ele>
        <time>2014-01-19T12:21:15.000Z</time>
      </trkpt>
      <trkpt lat="48.69715" lon="1.7493">
        <ele>164.39999389648</ele>
        <time>2014-01-19T12:21:17.000Z</time>
      </trkpt>
      <trkpt lat="48.69706" lon="1.74939">
        <ele>164</ele>
        <time>2014-01-19T12:21:24.000Z</time>
      </trkpt>
      <trkpt lat="48.69698" lon="1.74946">
        <ele>163.80000305176</ele>
        <time>2014-01-19T12:21:31.000Z</time>
      </trkpt>
      <trkpt lat="48.69695" lon="1.74947">
        <ele>163.60000610352</ele>
        <time>2014-01-19T12:21:33.000Z</time>
      </trkpt>
      <trkpt lat="48.6969" lon="1.74947">
        <ele>163.39999389648</ele>
        <time>2014-01-19T12:21:37.000Z</time>
      </trkpt>
      <trkpt lat="48.69679" lon="1.74951">
        <ele>163</ele>
        <time>2014-01-19T12:21:45.000Z</time>
      </trkpt>
      <trkpt lat="48.69669" lon="1.74955">
        <ele>162.60000610352</ele>
        <time>2014-01-19T12:21:53.000Z</time>
      </trkpt>
      <trkpt lat="48.69657" lon="1.7496">
        <ele>162</ele>
        <time>2014-01-19T12:22:02.000Z</time>
      </trkpt>
      <trkpt lat="48.69646" lon="1.74966">
        <ele>161.60000610352</ele>
        <time>2014-01-19T12:22:10.000Z</time>
      </trkpt>
      <trkpt lat="48.69635" lon="1.74971">
        <ele>161.19999694824</ele>
        <time>2014-01-19T12:22:18.000Z</time>
      </trkpt>
      <trkpt lat="48.69624" lon="1.74975">
        <ele>160.60000610352</ele>
        <time>2014-01-19T12:22:27.000Z</time>
      </trkpt>
      <trkpt lat="48.69616" lon="1.74978">
        <ele>160.19999694824</ele>
        <time>2014-01-19T12:22:33.000Z</time>
      </trkpt>
      <trkpt lat="48.69607" lon="1.7498">
        <ele>160</ele>
        <time>2014-01-19T12:22:39.000Z</time>
      </trkpt>
      <trkpt lat="48.69598" lon="1.74985">
        <ele>159.60000610352</ele>
        <time>2014-01-19T12:22:45.000Z</time>
      </trkpt>
      <trkpt lat="48.69591" lon="1.74989">
        <ele>159.19999694824</ele>
        <time>2014-01-19T12:22:51.000Z</time>
      </trkpt>
      <trkpt lat="48.69588" lon="1.7499">
        <ele>159.19999694824</ele>
        <time>2014-01-19T12:22:54.000Z</time>
      </trkpt>
      <trkpt lat="48.69579" lon="1.74993">
        <ele>159.39999389648</ele>
        <time>2014-01-19T12:23:01.000Z</time>
      </trkpt>
      <trkpt lat="48.69569" lon="1.74998">
        <ele>160.39999389648</ele>
        <time>2014-01-19T12:23:08.000Z</time>
      </trkpt>
      <trkpt lat="48.69562" lon="1.75003">
        <ele>161.39999389648</ele>
        <time>2014-01-19T12:23:14.000Z</time>
      </trkpt>
      <trkpt lat="48.69552" lon="1.75009">
        <ele>162.39999389648</ele>
        <time>2014-01-19T12:23:21.000Z</time>
      </trkpt>
      <trkpt lat="48.69543" lon="1.75014">
        <ele>163.19999694824</ele>
        <time>2014-01-19T12:23:28.000Z</time>
      </trkpt>
      <trkpt lat="48.69535" lon="1.75017">
        <ele>164</ele>
        <time>2014-01-19T12:23:34.000Z</time>
      </trkpt>
      <trkpt lat="48.6953" lon="1.75019">
        <ele>164.39999389648</ele>
        <time>2014-01-19T12:23:38.000Z</time>
      </trkpt>
      <trkpt lat="48.69522" lon="1.75022">
        <ele>165.19999694824</ele>
        <time>2014-01-19T12:23:45.000Z</time>
      </trkpt>
      <trkpt lat="48.69515" lon="1.75026">
        <ele>165.80000305176</ele>
        <time>2014-01-19T12:23:51.000Z</time>
      </trkpt>
      <trkpt lat="48.69507" lon="1.7503">
        <ele>166.60000610352</ele>
        <time>2014-01-19T12:23:57.000Z</time>
      </trkpt>
      <trkpt lat="48.69501" lon="1.75031">
        <ele>167.19999694824</ele>
        <time>2014-01-19T12:24:02.000Z</time>
      </trkpt>
      <trkpt lat="48.69495" lon="1.75034">
        <ele>167.19999694824</ele>
        <time>2014-01-19T12:24:08.000Z</time>
      </trkpt>
      <trkpt lat="48.69489" lon="1.75038">
        <ele>167.19999694824</ele>
        <time>2014-01-19T12:24:13.000Z</time>
      </trkpt>
      <trkpt lat="48.69475" lon="1.75043">
        <ele>167.19999694824</ele>
        <time>2014-01-19T12:24:23.000Z</time>
      </trkpt>
      <trkpt lat="48.69468" lon="1.75048">
        <ele>167.19999694824</ele>
        <time>2014-01-19T12:24:29.000Z</time>
      </trkpt>
      <trkpt lat="48.69462" lon="1.75053">
        <ele>167.19999694824</ele>
        <time>2014-01-19T12:24:35.000Z</time>
      </trkpt>
      <trkpt lat="48.69453" lon="1.7506">
        <ele>167.39999389648</ele>
        <time>2014-01-19T12:24:41.000Z</time>
      </trkpt>
      <trkpt lat="48.69451" lon="1.75062">
        <ele>167.39999389648</ele>
        <time>2014-01-19T12:24:43.000Z</time>
      </trkpt>
      <trkpt lat="48.69445" lon="1.75062">
        <ele>167.39999389648</ele>
        <time>2014-01-19T12:24:47.000Z</time>
      </trkpt>
      <trkpt lat="48.69441" lon="1.75072">
        <ele>167.60000610352</ele>
        <time>2014-01-19T12:24:53.000Z</time>
      </trkpt>
      <trkpt lat="48.69439" lon="1.75083">
        <ele>167.39999389648</ele>
        <time>2014-01-19T12:24:59.000Z</time>
      </trkpt>
      <trkpt lat="48.6944" lon="1.75085">
        <ele>167.39999389648</ele>
        <time>2014-01-19T12:25:02.000Z</time>
      </trkpt>
      <trkpt lat="48.69435" lon="1.75106">
        <ele>166.80000305176</ele>
        <time>2014-01-19T12:25:21.000Z</time>
      </trkpt>
      <trkpt lat="48.69432" lon="1.75117">
        <ele>166.39999389648</ele>
        <time>2014-01-19T12:25:26.000Z</time>
      </trkpt>
      <trkpt lat="48.69432" lon="1.75119">
        <ele>166.39999389648</ele>
        <time>2014-01-19T12:25:27.000Z</time>
      </trkpt>
      <trkpt lat="48.6943" lon="1.75136">
        <ele>165.80000305176</ele>
        <time>2014-01-19T12:25:36.000Z</time>
      </trkpt>
      <trkpt lat="48.69426" lon="1.75151">
        <ele>165.39999389648</ele>
        <time>2014-01-19T12:25:43.000Z</time>
      </trkpt>
      <trkpt lat="48.69423" lon="1.75168">
        <ele>164.80000305176</ele>
        <time>2014-01-19T12:25:50.000Z</time>
      </trkpt>
      <trkpt lat="48.69419" lon="1.75186">
        <ele>163.80000305176</ele>
        <time>2014-01-19T12:25:58.000Z</time>
      </trkpt>
      <trkpt lat="48.69416" lon="1.75201">
        <ele>163</ele>
        <time>2014-01-19T12:26:05.000Z</time>
      </trkpt>
      <trkpt lat="48.69414" lon="1.75218">
        <ele>162</ele>
        <time>2014-01-19T12:26:12.000Z</time>
      </trkpt>
      <trkpt lat="48.69413" lon="1.75221">
        <ele>161.80000305176</ele>
        <time>2014-01-19T12:26:13.000Z</time>
      </trkpt>
      <trkpt lat="48.6941" lon="1.75239">
        <ele>161</ele>
        <time>2014-01-19T12:26:21.000Z</time>
      </trkpt>
      <trkpt lat="48.69407" lon="1.75248">
        <ele>160.60000610352</ele>
        <time>2014-01-19T12:26:26.000Z</time>
      </trkpt>
      <trkpt lat="48.69405" lon="1.7526">
        <ele>160.19999694824</ele>
        <time>2014-01-19T12:26:33.000Z</time>
      </trkpt>
      <trkpt lat="48.69403" lon="1.75271">
        <ele>159.60000610352</ele>
        <time>2014-01-19T12:26:39.000Z</time>
      </trkpt>
      <trkpt lat="48.69402" lon="1.75273">
        <ele>159.60000610352</ele>
        <time>2014-01-19T12:26:40.000Z</time>
      </trkpt>
      <trkpt lat="48.69396" lon="1.75288">
        <ele>159.19999694824</ele>
        <time>2014-01-19T12:26:48.000Z</time>
      </trkpt>
      <trkpt lat="48.69392" lon="1.75306">
        <ele>158.60000610352</ele>
        <time>2014-01-19T12:26:57.000Z</time>
      </trkpt>
      <trkpt lat="48.69388" lon="1.75325">
        <ele>158.19999694824</ele>
        <time>2014-01-19T12:27:07.000Z</time>
      </trkpt>
      <trkpt lat="48.69386" lon="1.75342">
        <ele>157.80000305176</ele>
        <time>2014-01-19T12:27:15.000Z</time>
      </trkpt>
      <trkpt lat="48.69383" lon="1.75361">
        <ele>157.80000305176</ele>
        <time>2014-01-19T12:27:24.000Z</time>
      </trkpt>
      <trkpt lat="48.6938" lon="1.75374">
        <ele>157.80000305176</ele>
        <time>2014-01-19T12:27:30.000Z</time>
      </trkpt>
      <trkpt lat="48.69378" lon="1.75382">
        <ele>158</ele>
        <time>2014-01-19T12:27:34.000Z</time>
      </trkpt>
      <trkpt lat="48.69377" lon="1.75391">
        <ele>157.80000305176</ele>
        <time>2014-01-19T12:27:39.000Z</time>
      </trkpt>
      <trkpt lat="48.69376" lon="1.75395">
        <ele>157.80000305176</ele>
        <time>2014-01-19T12:27:41.000Z</time>
      </trkpt>
      <trkpt lat="48.69373" lon="1.75407">
        <ele>157.80000305176</ele>
        <time>2014-01-19T12:27:47.000Z</time>
      </trkpt>
      <trkpt lat="48.6937" lon="1.75422">
        <ele>158</ele>
        <time>2014-01-19T12:27:55.000Z</time>
      </trkpt>
      <trkpt lat="48.69366" lon="1.75438">
        <ele>158.39999389648</ele>
        <time>2014-01-19T12:28:03.000Z</time>
      </trkpt>
      <trkpt lat="48.69366" lon="1.75444">
        <ele>158.60000610352</ele>
        <time>2014-01-19T12:28:06.000Z</time>
      </trkpt>
      <trkpt lat="48.69362" lon="1.75463">
        <ele>159.19999694824</ele>
        <time>2014-01-19T12:28:14.000Z</time>
      </trkpt>
      <trkpt lat="48.69361" lon="1.75481">
        <ele>159.60000610352</ele>
        <time>2014-01-19T12:28:22.000Z</time>
      </trkpt>
      <trkpt lat="48.69354" lon="1.75498">
        <ele>160.19999694824</ele>
        <time>2014-01-19T12:28:30.000Z</time>
      </trkpt>
      <trkpt lat="48.69351" lon="1.75511">
        <ele>160.39999389648</ele>
        <time>2014-01-19T12:28:37.000Z</time>
      </trkpt>
      <trkpt lat="48.6935" lon="1.75524">
        <ele>160.60000610352</ele>
        <time>2014-01-19T12:28:43.000Z</time>
      </trkpt>
      <trkpt lat="48.69348" lon="1.75534">
        <ele>160.60000610352</ele>
        <time>2014-01-19T12:28:49.000Z</time>
      </trkpt>
      <trkpt lat="48.69349" lon="1.7554">
        <ele>160.60000610352</ele>
        <time>2014-01-19T12:28:53.000Z</time>
      </trkpt>
      <trkpt lat="48.69347" lon="1.75555">
        <ele>160.80000305176</ele>
        <time>2014-01-19T12:29:00.000Z</time>
      </trkpt>
      <trkpt lat="48.69346" lon="1.75558">
        <ele>160.80000305176</ele>
        <time>2014-01-19T12:29:02.000Z</time>
      </trkpt>
      <trkpt lat="48.69342" lon="1.75577">
        <ele>160.80000305176</ele>
        <time>2014-01-19T12:29:10.000Z</time>
      </trkpt>
      <trkpt lat="48.69342" lon="1.75579">
        <ele>160.80000305176</ele>
        <time>2014-01-19T12:29:11.000Z</time>
      </trkpt>
      <trkpt lat="48.69342" lon="1.75588">
        <ele>161</ele>
        <time>2014-01-19T12:29:16.000Z</time>
      </trkpt>
      <trkpt lat="48.69341" lon="1.7559">
        <ele>161</ele>
        <time>2014-01-19T12:29:18.000Z</time>
      </trkpt>
      <trkpt lat="48.69335" lon="1.75602">
        <ele>161.39999389648</ele>
        <time>2014-01-19T12:29:25.000Z</time>
      </trkpt>
      <trkpt lat="48.69335" lon="1.75615">
        <ele>161.80000305176</ele>
        <time>2014-01-19T12:29:32.000Z</time>
      </trkpt>
      <trkpt lat="48.69334" lon="1.75622">
        <ele>162</ele>
        <time>2014-01-19T12:29:38.000Z</time>
      </trkpt>
      <trkpt lat="48.69333" lon="1.75627">
        <ele>162</ele>
        <time>2014-01-19T12:29:41.000Z</time>
      </trkpt>
      <trkpt lat="48.6933" lon="1.7564">
        <ele>162.19999694824</ele>
        <time>2014-01-19T12:29:48.000Z</time>
      </trkpt>
      <trkpt lat="48.69328" lon="1.75648">
        <ele>162.39999389648</ele>
        <time>2014-01-19T12:29:52.000Z</time>
      </trkpt>
      <trkpt lat="48.69325" lon="1.75663">
        <ele>162.60000610352</ele>
        <time>2014-01-19T12:30:00.000Z</time>
      </trkpt>
      <trkpt lat="48.69325" lon="1.75665">
        <ele>162.60000610352</ele>
        <time>2014-01-19T12:30:01.000Z</time>
      </trkpt>
      <trkpt lat="48.69322" lon="1.75673">
        <ele>162.60000610352</ele>
        <time>2014-01-19T12:30:06.000Z</time>
      </trkpt>
      <trkpt lat="48.6932" lon="1.75681">
        <ele>162.60000610352</ele>
        <time>2014-01-19T12:30:11.000Z</time>
      </trkpt>
      <trkpt lat="48.6932" lon="1.75685">
        <ele>162.60000610352</ele>
        <time>2014-01-19T12:30:13.000Z</time>
      </trkpt>
      <trkpt lat="48.69318" lon="1.757">
        <ele>162.80000305176</ele>
        <time>2014-01-19T12:30:21.000Z</time>
      </trkpt>
      <trkpt lat="48.69316" lon="1.75706">
        <ele>162.80000305176</ele>
        <time>2014-01-19T12:30:24.000Z</time>
      </trkpt>
      <trkpt lat="48.69314" lon="1.75713">
        <ele>162.80000305176</ele>
        <time>2014-01-19T12:30:28.000Z</time>
      </trkpt>
      <trkpt lat="48.69312" lon="1.75718">
        <ele>162.80000305176</ele>
        <time>2014-01-19T12:30:30.000Z</time>
      </trkpt>
      <trkpt lat="48.69309" lon="1.75727">
        <ele>162.80000305176</ele>
        <time>2014-01-19T12:30:34.000Z</time>
      </trkpt>
      <trkpt lat="48.69307" lon="1.75739">
        <ele>162.80000305176</ele>
        <time>2014-01-19T12:30:42.000Z</time>
      </trkpt>
      <trkpt lat="48.69308" lon="1.75744">
        <ele>163</ele>
        <time>2014-01-19T12:30:45.000Z</time>
      </trkpt>
      <trkpt lat="48.6931" lon="1.7576">
        <ele>163.39999389648</ele>
        <time>2014-01-19T12:30:52.000Z</time>
      </trkpt>
      <trkpt lat="48.69307" lon="1.75768">
        <ele>163.39999389648</ele>
        <time>2014-01-19T12:30:56.000Z</time>
      </trkpt>
      <trkpt lat="48.69305" lon="1.75773">
        <ele>163.39999389648</ele>
        <time>2014-01-19T12:31:00.000Z</time>
      </trkpt>
      <trkpt lat="48.69301" lon="1.7578">
        <ele>163.39999389648</ele>
        <time>2014-01-19T12:31:04.000Z</time>
      </trkpt>
      <trkpt lat="48.693" lon="1.7579">
        <ele>163.60000610352</ele>
        <time>2014-01-19T12:31:09.000Z</time>
      </trkpt>
      <trkpt lat="48.69296" lon="1.75804">
        <ele>163.80000305176</ele>
        <time>2014-01-19T12:31:16.000Z</time>
      </trkpt>
      <trkpt lat="48.69292" lon="1.75813">
        <ele>164</ele>
        <time>2014-01-19T12:31:22.000Z</time>
      </trkpt>
      <trkpt lat="48.69291" lon="1.75815">
        <ele>164</ele>
        <time>2014-01-19T12:31:23.000Z</time>
      </trkpt>
      <trkpt lat="48.69285" lon="1.75825">
        <ele>164.19999694824</ele>
        <time>2014-01-19T12:31:30.000Z</time>
      </trkpt>
      <trkpt lat="48.69284" lon="1.75826">
        <ele>164.19999694824</ele>
        <time>2014-01-19T12:31:31.000Z</time>
      </trkpt>
      <trkpt lat="48.6928" lon="1.75837">
        <ele>164.60000610352</ele>
        <time>2014-01-19T12:31:39.000Z</time>
      </trkpt>
      <trkpt lat="48.69278" lon="1.75837">
        <ele>164.60000610352</ele>
        <time>2014-01-19T12:31:46.000Z</time>
      </trkpt>
      <trkpt lat="48.69279" lon="1.75835">
        <ele>164.39999389648</ele>
        <time>2014-01-19T12:31:48.000Z</time>
      </trkpt>
      <trkpt lat="48.69276" lon="1.75827">
        <ele>164.19999694824</ele>
        <time>2014-01-19T12:31:56.000Z</time>
      </trkpt>
      <trkpt lat="48.69274" lon="1.75827">
        <ele>164</ele>
        <time>2014-01-19T12:31:58.000Z</time>
      </trkpt>
      <trkpt lat="48.69263" lon="1.75826">
        <ele>164</ele>
        <time>2014-01-19T12:32:03.000Z</time>
      </trkpt>
      <trkpt lat="48.69244" lon="1.75824">
        <ele>163.80000305176</ele>
        <time>2014-01-19T12:32:10.000Z</time>
      </trkpt>
      <trkpt lat="48.69226" lon="1.75823">
        <ele>164</ele>
        <time>2014-01-19T12:32:15.000Z</time>
      </trkpt>
      <trkpt lat="48.69204" lon="1.75826">
        <ele>164.39999389648</ele>
        <time>2014-01-19T12:32:21.000Z</time>
      </trkpt>
      <trkpt lat="48.6919" lon="1.75827">
        <ele>164.60000610352</ele>
        <time>2014-01-19T12:32:25.000Z</time>
      </trkpt>
      <trkpt lat="48.69177" lon="1.75824">
        <ele>164.80000305176</ele>
        <time>2014-01-19T12:32:30.000Z</time>
      </trkpt>
      <trkpt lat="48.69161" lon="1.75823">
        <ele>165</ele>
        <time>2014-01-19T12:32:34.000Z</time>
      </trkpt>
      <trkpt lat="48.69142" lon="1.75824">
        <ele>165.19999694824</ele>
        <time>2014-01-19T12:32:39.000Z</time>
      </trkpt>
      <trkpt lat="48.69124" lon="1.75824">
        <ele>165.60000610352</ele>
        <time>2014-01-19T12:32:44.000Z</time>
      </trkpt>
      <trkpt lat="48.69109" lon="1.75821">
        <ele>165.60000610352</ele>
        <time>2014-01-19T12:32:48.000Z</time>
      </trkpt>
      <trkpt lat="48.69093" lon="1.75811">
        <ele>165.80000305176</ele>
        <time>2014-01-19T12:32:53.000Z</time>
      </trkpt>
      <trkpt lat="48.69073" lon="1.75806">
        <ele>166</ele>
        <time>2014-01-19T12:32:58.000Z</time>
      </trkpt>
      <trkpt lat="48.69044" lon="1.75798">
        <ele>166</ele>
        <time>2014-01-19T12:33:05.000Z</time>
      </trkpt>
      <trkpt lat="48.6904" lon="1.75797">
        <ele>166</ele>
        <time>2014-01-19T12:33:06.000Z</time>
      </trkpt>
      <trkpt lat="48.69022" lon="1.75787">
        <ele>166</ele>
        <time>2014-01-19T12:33:11.000Z</time>
      </trkpt>
      <trkpt lat="48.68993" lon="1.75781">
        <ele>165.80000305176</ele>
        <time>2014-01-19T12:33:19.000Z</time>
      </trkpt>
      <trkpt lat="48.68974" lon="1.75787">
        <ele>166</ele>
        <time>2014-01-19T12:33:24.000Z</time>
      </trkpt>
      <trkpt lat="48.68956" lon="1.75793">
        <ele>166.19999694824</ele>
        <time>2014-01-19T12:33:29.000Z</time>
      </trkpt>
      <trkpt lat="48.68936" lon="1.75799">
        <ele>166.39999389648</ele>
        <time>2014-01-19T12:33:34.000Z</time>
      </trkpt>
      <trkpt lat="48.68915" lon="1.758">
        <ele>166.60000610352</ele>
        <time>2014-01-19T12:33:39.000Z</time>
      </trkpt>
      <trkpt lat="48.68896" lon="1.75795">
        <ele>165.80000305176</ele>
        <time>2014-01-19T12:33:45.000Z</time>
      </trkpt>
      <trkpt lat="48.68881" lon="1.75792">
        <ele>165.19999694824</ele>
        <time>2014-01-19T12:33:50.000Z</time>
      </trkpt>
      <trkpt lat="48.68862" lon="1.7579">
        <ele>164.60000610352</ele>
        <time>2014-01-19T12:33:55.000Z</time>
      </trkpt>
      <trkpt lat="48.68839" lon="1.75785">
        <ele>163.60000610352</ele>
        <time>2014-01-19T12:34:01.000Z</time>
      </trkpt>
      <trkpt lat="48.6883" lon="1.75783">
        <ele>163.39999389648</ele>
        <time>2014-01-19T12:34:03.000Z</time>
      </trkpt>
      <trkpt lat="48.68817" lon="1.75783">
        <ele>163</ele>
        <time>2014-01-19T12:34:06.000Z</time>
      </trkpt>
      <trkpt lat="48.68793" lon="1.75775">
        <ele>162.19999694824</ele>
        <time>2014-01-19T12:34:13.000Z</time>
      </trkpt>
      <trkpt lat="48.68771" lon="1.75771">
        <ele>161.60000610352</ele>
        <time>2014-01-19T12:34:19.000Z</time>
      </trkpt>
      <trkpt lat="48.68758" lon="1.75772">
        <ele>161.19999694824</ele>
        <time>2014-01-19T12:34:24.000Z</time>
      </trkpt>
      <trkpt lat="48.68748" lon="1.75776">
        <ele>161</ele>
        <time>2014-01-19T12:34:30.000Z</time>
      </trkpt>
      <trkpt lat="48.68736" lon="1.75781">
        <ele>160.60000610352</ele>
        <time>2014-01-19T12:34:37.000Z</time>
      </trkpt>
      <trkpt lat="48.68727" lon="1.75785">
        <ele>160.39999389648</ele>
        <time>2014-01-19T12:34:44.000Z</time>
      </trkpt>
      <trkpt lat="48.68716" lon="1.75789">
        <ele>160</ele>
        <time>2014-01-19T12:34:51.000Z</time>
      </trkpt>
      <trkpt lat="48.68707" lon="1.75792">
        <ele>159.80000305176</ele>
        <time>2014-01-19T12:34:58.000Z</time>
      </trkpt>
      <trkpt lat="48.68698" lon="1.75794">
        <ele>159.39999389648</ele>
        <time>2014-01-19T12:35:05.000Z</time>
      </trkpt>
      <trkpt lat="48.68689" lon="1.75796">
        <ele>159.19999694824</ele>
        <time>2014-01-19T12:35:11.000Z</time>
      </trkpt>
      <trkpt lat="48.68678" lon="1.75796">
        <ele>158.80000305176</ele>
        <time>2014-01-19T12:35:18.000Z</time>
      </trkpt>
      <trkpt lat="48.68671" lon="1.75797">
        <ele>158.60000610352</ele>
        <time>2014-01-19T12:35:23.000Z</time>
      </trkpt>
      <trkpt lat="48.68663" lon="1.75799">
        <ele>158.19999694824</ele>
        <time>2014-01-19T12:35:29.000Z</time>
      </trkpt>
      <trkpt lat="48.68652" lon="1.75795">
        <ele>157.80000305176</ele>
        <time>2014-01-19T12:35:37.000Z</time>
      </trkpt>
      <trkpt lat="48.68642" lon="1.75793">
        <ele>157.39999389648</ele>
        <time>2014-01-19T12:35:44.000Z</time>
      </trkpt>
      <trkpt lat="48.68638" lon="1.75791">
        <ele>157.39999389648</ele>
        <time>2014-01-19T12:35:47.000Z</time>
      </trkpt>
      <trkpt lat="48.6863" lon="1.75789">
        <ele>157</ele>
        <time>2014-01-19T12:35:53.000Z</time>
      </trkpt>
      <trkpt lat="48.68621" lon="1.75787">
        <ele>156.60000610352</ele>
        <time>2014-01-19T12:36:00.000Z</time>
      </trkpt>
      <trkpt lat="48.68612" lon="1.75788">
        <ele>156.19999694824</ele>
        <time>2014-01-19T12:36:06.000Z</time>
      </trkpt>
      <trkpt lat="48.68607" lon="1.75787">
        <ele>156</ele>
        <time>2014-01-19T12:36:11.000Z</time>
      </trkpt>
      <trkpt lat="48.686" lon="1.75789">
        <ele>155.80000305176</ele>
        <time>2014-01-19T12:36:17.000Z</time>
      </trkpt>
      <trkpt lat="48.68593" lon="1.75794">
        <ele>155.39999389648</ele>
        <time>2014-01-19T12:36:24.000Z</time>
      </trkpt>
      <trkpt lat="48.68585" lon="1.758">
        <ele>154.80000305176</ele>
        <time>2014-01-19T12:36:30.000Z</time>
      </trkpt>
      <trkpt lat="48.68579" lon="1.75803">
        <ele>154.60000610352</ele>
        <time>2014-01-19T12:36:34.000Z</time>
      </trkpt>
      <trkpt lat="48.6857" lon="1.75808">
        <ele>154.19999694824</ele>
        <time>2014-01-19T12:36:40.000Z</time>
      </trkpt>
      <trkpt lat="48.68561" lon="1.7581">
        <ele>154</ele>
        <time>2014-01-19T12:36:47.000Z</time>
      </trkpt>
      <trkpt lat="48.68557" lon="1.75811">
        <ele>153.80000305176</ele>
        <time>2014-01-19T12:36:52.000Z</time>
      </trkpt>
      <trkpt lat="48.6855" lon="1.75806">
        <ele>153.80000305176</ele>
        <time>2014-01-19T12:36:58.000Z</time>
      </trkpt>
      <trkpt lat="48.68548" lon="1.75791">
        <ele>154</ele>
        <time>2014-01-19T12:37:05.000Z</time>
      </trkpt>
      <trkpt lat="48.68543" lon="1.7577">
        <ele>154.19999694824</ele>
        <time>2014-01-19T12:37:15.000Z</time>
      </trkpt>
      <trkpt lat="48.68542" lon="1.75757">
        <ele>154.39999389648</ele>
        <time>2014-01-19T12:37:21.000Z</time>
      </trkpt>
      <trkpt lat="48.6854" lon="1.75744">
        <ele>154.60000610352</ele>
        <time>2014-01-19T12:37:27.000Z</time>
      </trkpt>
      <trkpt lat="48.68538" lon="1.75731">
        <ele>154.80000305176</ele>
        <time>2014-01-19T12:37:33.000Z</time>
      </trkpt>
      <trkpt lat="48.68537" lon="1.75716">
        <ele>155.19999694824</ele>
        <time>2014-01-19T12:37:40.000Z</time>
      </trkpt>
      <trkpt lat="48.68537" lon="1.75711">
        <ele>155.19999694824</ele>
        <time>2014-01-19T12:37:43.000Z</time>
      </trkpt>
      <trkpt lat="48.68536" lon="1.757">
        <ele>155.39999389648</ele>
        <time>2014-01-19T12:37:49.000Z</time>
      </trkpt>
      <trkpt lat="48.68536" lon="1.75698">
        <ele>155.60000610352</ele>
        <time>2014-01-19T12:37:50.000Z</time>
      </trkpt>
      <trkpt lat="48.68534" lon="1.75693">
        <ele>155.60000610352</ele>
        <time>2014-01-19T12:37:53.000Z</time>
      </trkpt>
      <trkpt lat="48.68534" lon="1.7568">
        <ele>155.80000305176</ele>
        <time>2014-01-19T12:37:59.000Z</time>
      </trkpt>
      <trkpt lat="48.68529" lon="1.75663">
        <ele>156</ele>
        <time>2014-01-19T12:38:07.000Z</time>
      </trkpt>
      <trkpt lat="48.68524" lon="1.75648">
        <ele>156</ele>
        <time>2014-01-19T12:38:14.000Z</time>
      </trkpt>
      <trkpt lat="48.68522" lon="1.75642">
        <ele>155.80000305176</ele>
        <time>2014-01-19T12:38:17.000Z</time>
      </trkpt>
      <trkpt lat="48.68521" lon="1.75629">
        <ele>155.80000305176</ele>
        <time>2014-01-19T12:38:23.000Z</time>
      </trkpt>
      <trkpt lat="48.68519" lon="1.75618">
        <ele>155.80000305176</ele>
        <time>2014-01-19T12:38:29.000Z</time>
      </trkpt>
      <trkpt lat="48.68518" lon="1.75601">
        <ele>155.80000305176</ele>
        <time>2014-01-19T12:38:37.000Z</time>
      </trkpt>
      <trkpt lat="48.68518" lon="1.75585">
        <ele>155.80000305176</ele>
        <time>2014-01-19T12:38:44.000Z</time>
      </trkpt>
      <trkpt lat="48.68516" lon="1.7557">
        <ele>156.19999694824</ele>
        <time>2014-01-19T12:38:51.000Z</time>
      </trkpt>
      <trkpt lat="48.68514" lon="1.75554">
        <ele>156.80000305176</ele>
        <time>2014-01-19T12:38:58.000Z</time>
      </trkpt>
      <trkpt lat="48.68513" lon="1.75539">
        <ele>157.39999389648</ele>
        <time>2014-01-19T12:39:05.000Z</time>
      </trkpt>
      <trkpt lat="48.6851" lon="1.75529">
        <ele>157.80000305176</ele>
        <time>2014-01-19T12:39:11.000Z</time>
      </trkpt>
      <trkpt lat="48.68508" lon="1.75525">
        <ele>158</ele>
        <time>2014-01-19T12:39:13.000Z</time>
      </trkpt>
      <trkpt lat="48.68507" lon="1.75511">
        <ele>158.60000610352</ele>
        <time>2014-01-19T12:39:20.000Z</time>
      </trkpt>
      <trkpt lat="48.68507" lon="1.75509">
        <ele>158.60000610352</ele>
        <time>2014-01-19T12:39:21.000Z</time>
      </trkpt>
      <trkpt lat="48.68505" lon="1.75491">
        <ele>159.39999389648</ele>
        <time>2014-01-19T12:39:29.000Z</time>
      </trkpt>
      <trkpt lat="48.68504" lon="1.75478">
        <ele>160.19999694824</ele>
        <time>2014-01-19T12:39:35.000Z</time>
      </trkpt>
      <trkpt lat="48.68502" lon="1.75463">
        <ele>161.19999694824</ele>
        <time>2014-01-19T12:39:42.000Z</time>
      </trkpt>
      <trkpt lat="48.68502" lon="1.75461">
        <ele>161.19999694824</ele>
        <time>2014-01-19T12:39:43.000Z</time>
      </trkpt>
      <trkpt lat="48.68497" lon="1.75451">
        <ele>162</ele>
        <time>2014-01-19T12:39:50.000Z</time>
      </trkpt>
      <trkpt lat="48.68495" lon="1.75448">
        <ele>162.19999694824</ele>
        <time>2014-01-19T12:39:52.000Z</time>
      </trkpt>
      <trkpt lat="48.68492" lon="1.75438">
        <ele>162.80000305176</ele>
        <time>2014-01-19T12:39:58.000Z</time>
      </trkpt>
      <trkpt lat="48.68491" lon="1.75437">
        <ele>163</ele>
        <time>2014-01-19T12:39:59.000Z</time>
      </trkpt>
      <trkpt lat="48.6849" lon="1.75426">
        <ele>163.60000610352</ele>
        <time>2014-01-19T12:40:05.000Z</time>
      </trkpt>
      <trkpt lat="48.68488" lon="1.75413">
        <ele>164.39999389648</ele>
        <time>2014-01-19T12:40:11.000Z</time>
      </trkpt>
      <trkpt lat="48.68487" lon="1.75406">
        <ele>164.60000610352</ele>
        <time>2014-01-19T12:40:15.000Z</time>
      </trkpt>
      <trkpt lat="48.68487" lon="1.75401">
        <ele>164.80000305176</ele>
        <time>2014-01-19T12:40:17.000Z</time>
      </trkpt>
      <trkpt lat="48.6849" lon="1.75386">
        <ele>165.60000610352</ele>
        <time>2014-01-19T12:40:25.000Z</time>
      </trkpt>
      <trkpt lat="48.68489" lon="1.75372">
        <ele>166.19999694824</ele>
        <time>2014-01-19T12:40:32.000Z</time>
      </trkpt>
      <trkpt lat="48.68488" lon="1.75357">
        <ele>167</ele>
        <time>2014-01-19T12:40:39.000Z</time>
      </trkpt>
      <trkpt lat="48.68486" lon="1.75338">
        <ele>168</ele>
        <time>2014-01-19T12:40:48.000Z</time>
      </trkpt>
      <trkpt lat="48.68484" lon="1.75326">
        <ele>168.19999694824</ele>
        <time>2014-01-19T12:40:55.000Z</time>
      </trkpt>
      <trkpt lat="48.68483" lon="1.75316">
        <ele>168.39999389648</ele>
        <time>2014-01-19T12:41:00.000Z</time>
      </trkpt>
      <trkpt lat="48.68481" lon="1.75309">
        <ele>168.60000610352</ele>
        <time>2014-01-19T12:41:05.000Z</time>
      </trkpt>
      <trkpt lat="48.68477" lon="1.75303">
        <ele>168.60000610352</ele>
        <time>2014-01-19T12:41:10.000Z</time>
      </trkpt>
      <trkpt lat="48.68476" lon="1.75301">
        <ele>168.60000610352</ele>
        <time>2014-01-19T12:41:11.000Z</time>
      </trkpt>
      <trkpt lat="48.68476" lon="1.75288">
        <ele>168.80000305176</ele>
        <time>2014-01-19T12:41:17.000Z</time>
      </trkpt>
      <trkpt lat="48.68476" lon="1.75272">
        <ele>169</ele>
        <time>2014-01-19T12:41:24.000Z</time>
      </trkpt>
      <trkpt lat="48.68477" lon="1.75267">
        <ele>169</ele>
        <time>2014-01-19T12:41:26.000Z</time>
      </trkpt>
      <trkpt lat="48.68471" lon="1.75243">
        <ele>169.39999389648</ele>
        <time>2014-01-19T12:41:32.000Z</time>
      </trkpt>
      <trkpt lat="48.68472" lon="1.75227">
        <ele>169.39999389648</ele>
        <time>2014-01-19T12:41:38.000Z</time>
      </trkpt>
      <trkpt lat="48.68473" lon="1.75211">
        <ele>169.39999389648</ele>
        <time>2014-01-19T12:41:45.000Z</time>
      </trkpt>
      <trkpt lat="48.68473" lon="1.75199">
        <ele>169.60000610352</ele>
        <time>2014-01-19T12:41:51.000Z</time>
      </trkpt>
      <trkpt lat="48.68471" lon="1.75191">
        <ele>169.60000610352</ele>
        <time>2014-01-19T12:41:56.000Z</time>
      </trkpt>
      <trkpt lat="48.68471" lon="1.75189">
        <ele>169.60000610352</ele>
        <time>2014-01-19T12:41:57.000Z</time>
      </trkpt>
      <trkpt lat="48.68467" lon="1.75176">
        <ele>169.60000610352</ele>
        <time>2014-01-19T12:42:04.000Z</time>
      </trkpt>
      <trkpt lat="48.68466" lon="1.75165">
        <ele>169.60000610352</ele>
        <time>2014-01-19T12:42:09.000Z</time>
      </trkpt>
      <trkpt lat="48.68466" lon="1.75156">
        <ele>169.60000610352</ele>
        <time>2014-01-19T12:42:13.000Z</time>
      </trkpt>
      <trkpt lat="48.68466" lon="1.75153">
        <ele>169.60000610352</ele>
        <time>2014-01-19T12:42:15.000Z</time>
      </trkpt>
      <trkpt lat="48.68466" lon="1.75148">
        <ele>169.39999389648</ele>
        <time>2014-01-19T12:42:19.000Z</time>
      </trkpt>
      <trkpt lat="48.68462" lon="1.7514">
        <ele>169.39999389648</ele>
        <time>2014-01-19T12:42:24.000Z</time>
      </trkpt>
      <trkpt lat="48.68459" lon="1.75126">
        <ele>169.19999694824</ele>
        <time>2014-01-19T12:42:32.000Z</time>
      </trkpt>
      <trkpt lat="48.68459" lon="1.75113">
        <ele>169.19999694824</ele>
        <time>2014-01-19T12:42:39.000Z</time>
      </trkpt>
      <trkpt lat="48.68456" lon="1.75101">
        <ele>169</ele>
        <time>2014-01-19T12:42:46.000Z</time>
      </trkpt>
      <trkpt lat="48.68454" lon="1.7509">
        <ele>169</ele>
        <time>2014-01-19T12:42:52.000Z</time>
      </trkpt>
      <trkpt lat="48.68454" lon="1.75086">
        <ele>169</ele>
        <time>2014-01-19T12:42:54.000Z</time>
      </trkpt>
      <trkpt lat="48.6845" lon="1.75074">
        <ele>168.80000305176</ele>
        <time>2014-01-19T12:43:01.000Z</time>
      </trkpt>
      <trkpt lat="48.6845" lon="1.75071">
        <ele>168.60000610352</ele>
        <time>2014-01-19T12:43:03.000Z</time>
      </trkpt>
      <trkpt lat="48.68451" lon="1.75063">
        <ele>168.60000610352</ele>
        <time>2014-01-19T12:43:08.000Z</time>
      </trkpt>
      <trkpt lat="48.68451" lon="1.75061">
        <ele>168.60000610352</ele>
        <time>2014-01-19T12:43:09.000Z</time>
      </trkpt>
      <trkpt lat="48.68451" lon="1.75057">
        <ele>168.60000610352</ele>
        <time>2014-01-19T12:43:11.000Z</time>
      </trkpt>
      <trkpt lat="48.68453" lon="1.75047">
        <ele>168.39999389648</ele>
        <time>2014-01-19T12:43:17.000Z</time>
      </trkpt>
      <trkpt lat="48.68453" lon="1.75046">
        <ele>168.39999389648</ele>
        <time>2014-01-19T12:43:18.000Z</time>
      </trkpt>
      <trkpt lat="48.68453" lon="1.75035">
        <ele>168.39999389648</ele>
        <time>2014-01-19T12:43:23.000Z</time>
      </trkpt>
      <trkpt lat="48.6845" lon="1.75022">
        <ele>168.19999694824</ele>
        <time>2014-01-19T12:43:30.000Z</time>
      </trkpt>
      <trkpt lat="48.68449" lon="1.75012">
        <ele>168.19999694824</ele>
        <time>2014-01-19T12:43:35.000Z</time>
      </trkpt>
      <trkpt lat="48.68448" lon="1.74999">
        <ele>168</ele>
        <time>2014-01-19T12:43:42.000Z</time>
      </trkpt>
      <trkpt lat="48.68447" lon="1.74984">
        <ele>168</ele>
        <time>2014-01-19T12:43:49.000Z</time>
      </trkpt>
      <trkpt lat="48.68443" lon="1.74972">
        <ele>167.80000305176</ele>
        <time>2014-01-19T12:43:55.000Z</time>
      </trkpt>
      <trkpt lat="48.68441" lon="1.74959">
        <ele>167.80000305176</ele>
        <time>2014-01-19T12:44:02.000Z</time>
      </trkpt>
      <trkpt lat="48.68439" lon="1.74945">
        <ele>167.60000610352</ele>
        <time>2014-01-19T12:44:07.000Z</time>
      </trkpt>
      <trkpt lat="48.68437" lon="1.74928">
        <ele>167.60000610352</ele>
        <time>2014-01-19T12:44:14.000Z</time>
      </trkpt>
      <trkpt lat="48.68434" lon="1.74914">
        <ele>167.39999389648</ele>
        <time>2014-01-19T12:44:21.000Z</time>
      </trkpt>
      <trkpt lat="48.68433" lon="1.74902">
        <ele>167</ele>
        <time>2014-01-19T12:44:27.000Z</time>
      </trkpt>
      <trkpt lat="48.68433" lon="1.74894">
        <ele>167</ele>
        <time>2014-01-19T12:44:31.000Z</time>
      </trkpt>
      <trkpt lat="48.68431" lon="1.74877">
        <ele>166.39999389648</ele>
        <time>2014-01-19T12:44:39.000Z</time>
      </trkpt>
      <trkpt lat="48.68428" lon="1.74862">
        <ele>166</ele>
        <time>2014-01-19T12:44:45.000Z</time>
      </trkpt>
      <trkpt lat="48.68428" lon="1.7486">
        <ele>166</ele>
        <time>2014-01-19T12:44:46.000Z</time>
      </trkpt>
      <trkpt lat="48.68428" lon="1.74851">
        <ele>165.80000305176</ele>
        <time>2014-01-19T12:44:50.000Z</time>
      </trkpt>
      <trkpt lat="48.68424" lon="1.74839">
        <ele>165.39999389648</ele>
        <time>2014-01-19T12:44:56.000Z</time>
      </trkpt>
      <trkpt lat="48.68422" lon="1.74821">
        <ele>164.80000305176</ele>
        <time>2014-01-19T12:45:05.000Z</time>
      </trkpt>
      <trkpt lat="48.68419" lon="1.7481">
        <ele>164.60000610352</ele>
        <time>2014-01-19T12:45:11.000Z</time>
      </trkpt>
      <trkpt lat="48.68418" lon="1.74789">
        <ele>164</ele>
        <time>2014-01-19T12:45:19.000Z</time>
      </trkpt>
      <trkpt lat="48.68417" lon="1.74777">
        <ele>163.60000610352</ele>
        <time>2014-01-19T12:45:25.000Z</time>
      </trkpt>
      <trkpt lat="48.68414" lon="1.74766">
        <ele>163.19999694824</ele>
        <time>2014-01-19T12:45:30.000Z</time>
      </trkpt>
      <trkpt lat="48.68412" lon="1.74747">
        <ele>162.39999389648</ele>
        <time>2014-01-19T12:45:38.000Z</time>
      </trkpt>
      <trkpt lat="48.68413" lon="1.74738">
        <ele>162.19999694824</ele>
        <time>2014-01-19T12:45:42.000Z</time>
      </trkpt>
      <trkpt lat="48.68414" lon="1.7473">
        <ele>161.80000305176</ele>
        <time>2014-01-19T12:45:47.000Z</time>
      </trkpt>
      <trkpt lat="48.68412" lon="1.74717">
        <ele>161</ele>
        <time>2014-01-19T12:45:53.000Z</time>
      </trkpt>
      <trkpt lat="48.6841" lon="1.74704">
        <ele>160.19999694824</ele>
        <time>2014-01-19T12:45:59.000Z</time>
      </trkpt>
      <trkpt lat="48.6841" lon="1.74689">
        <ele>159.60000610352</ele>
        <time>2014-01-19T12:46:05.000Z</time>
      </trkpt>
      <trkpt lat="48.68412" lon="1.74678">
        <ele>159.19999694824</ele>
        <time>2014-01-19T12:46:10.000Z</time>
      </trkpt>
      <trkpt lat="48.68413" lon="1.74674">
        <ele>159</ele>
        <time>2014-01-19T12:46:12.000Z</time>
      </trkpt>
      <trkpt lat="48.68415" lon="1.74665">
        <ele>158.80000305176</ele>
        <time>2014-01-19T12:46:16.000Z</time>
      </trkpt>
      <trkpt lat="48.68417" lon="1.74656">
        <ele>158.39999389648</ele>
        <time>2014-01-19T12:46:22.000Z</time>
      </trkpt>
      <trkpt lat="48.68418" lon="1.74652">
        <ele>158.19999694824</ele>
        <time>2014-01-19T12:46:26.000Z</time>
      </trkpt>
      <trkpt lat="48.68419" lon="1.74652">
        <ele>158.39999389648</ele>
        <time>2014-01-19T12:46:29.000Z</time>
      </trkpt>
      <trkpt lat="48.68414" lon="1.74635">
        <ele>157</ele>
        <time>2014-01-19T12:46:46.000Z</time>
      </trkpt>
      <trkpt lat="48.68414" lon="1.74631">
        <ele>156.80000305176</ele>
        <time>2014-01-19T12:46:47.000Z</time>
      </trkpt>
      <trkpt lat="48.68413" lon="1.74628">
        <ele>156.60000610352</ele>
        <time>2014-01-19T12:46:49.000Z</time>
      </trkpt>
      <trkpt lat="48.68407" lon="1.74614">
        <ele>155.60000610352</ele>
        <time>2014-01-19T12:46:57.000Z</time>
      </trkpt>
      <trkpt lat="48.684" lon="1.74607">
        <ele>155.19999694824</ele>
        <time>2014-01-19T12:47:04.000Z</time>
      </trkpt>
      <trkpt lat="48.68397" lon="1.74605">
        <ele>155</ele>
        <time>2014-01-19T12:47:07.000Z</time>
      </trkpt>
      <trkpt lat="48.68391" lon="1.74597">
        <ele>154.80000305176</ele>
        <time>2014-01-19T12:47:13.000Z</time>
      </trkpt>
      <trkpt lat="48.68386" lon="1.74586">
        <ele>154.39999389648</ele>
        <time>2014-01-19T12:47:19.000Z</time>
      </trkpt>
      <trkpt lat="48.68379" lon="1.7458">
        <ele>154.39999389648</ele>
        <time>2014-01-19T12:47:25.000Z</time>
      </trkpt>
      <trkpt lat="48.68377" lon="1.74579">
        <ele>154.39999389648</ele>
        <time>2014-01-19T12:47:29.000Z</time>
      </trkpt>
      <trkpt lat="48.68379" lon="1.74576">
        <ele>154.39999389648</ele>
        <time>2014-01-19T12:47:56.000Z</time>
      </trkpt>
      <trkpt lat="48.68381" lon="1.74575">
        <ele>154.39999389648</ele>
        <time>2014-01-19T12:47:57.000Z</time>
      </trkpt>
      <trkpt lat="48.68386" lon="1.74559">
        <ele>154.19999694824</ele>
        <time>2014-01-19T12:48:06.000Z</time>
      </trkpt>
      <trkpt lat="48.68392" lon="1.74547">
        <ele>153.80000305176</ele>
        <time>2014-01-19T12:48:13.000Z</time>
      </trkpt>
      <trkpt lat="48.68394" lon="1.7454">
        <ele>153.60000610352</ele>
        <time>2014-01-19T12:48:18.000Z</time>
      </trkpt>
      <trkpt lat="48.68399" lon="1.74532">
        <ele>153.19999694824</ele>
        <time>2014-01-19T12:48:23.000Z</time>
      </trkpt>
      <trkpt lat="48.68406" lon="1.74526">
        <ele>152.60000610352</ele>
        <time>2014-01-19T12:48:30.000Z</time>
      </trkpt>
      <trkpt lat="48.68413" lon="1.74522">
        <ele>152</ele>
        <time>2014-01-19T12:48:35.000Z</time>
      </trkpt>
      <trkpt lat="48.68422" lon="1.74516">
        <ele>151.80000305176</ele>
        <time>2014-01-19T12:48:41.000Z</time>
      </trkpt>
      <trkpt lat="48.68428" lon="1.74514">
        <ele>152.19999694824</ele>
        <time>2014-01-19T12:48:46.000Z</time>
      </trkpt>
      <trkpt lat="48.68437" lon="1.74508">
        <ele>152.39999389648</ele>
        <time>2014-01-19T12:48:52.000Z</time>
      </trkpt>
      <trkpt lat="48.68444" lon="1.74506">
        <ele>152.60000610352</ele>
        <time>2014-01-19T12:48:57.000Z</time>
      </trkpt>
      <trkpt lat="48.68455" lon="1.745">
        <ele>152.80000305176</ele>
        <time>2014-01-19T12:49:05.000Z</time>
      </trkpt>
      <trkpt lat="48.68461" lon="1.74498">
        <ele>153</ele>
        <time>2014-01-19T12:49:10.000Z</time>
      </trkpt>
      <trkpt lat="48.68465" lon="1.74495">
        <ele>153.19999694824</ele>
        <time>2014-01-19T12:49:13.000Z</time>
      </trkpt>
      <trkpt lat="48.68473" lon="1.74489">
        <ele>153.19999694824</ele>
        <time>2014-01-19T12:49:19.000Z</time>
      </trkpt>
      <trkpt lat="48.68479" lon="1.74484">
        <ele>153.19999694824</ele>
        <time>2014-01-19T12:49:24.000Z</time>
      </trkpt>
      <trkpt lat="48.68484" lon="1.7448">
        <ele>153.19999694824</ele>
        <time>2014-01-19T12:49:28.000Z</time>
      </trkpt>
      <trkpt lat="48.68491" lon="1.74476">
        <ele>153</ele>
        <time>2014-01-19T12:49:33.000Z</time>
      </trkpt>
      <trkpt lat="48.68502" lon="1.74466">
        <ele>152.80000305176</ele>
        <time>2014-01-19T12:49:43.000Z</time>
      </trkpt>
      <trkpt lat="48.68512" lon="1.74463">
        <ele>153.19999694824</ele>
        <time>2014-01-19T12:49:50.000Z</time>
      </trkpt>
      <trkpt lat="48.68513" lon="1.74462">
        <ele>153.39999389648</ele>
        <time>2014-01-19T12:49:51.000Z</time>
      </trkpt>
      <trkpt lat="48.6852" lon="1.74459">
        <ele>153.80000305176</ele>
        <time>2014-01-19T12:49:56.000Z</time>
      </trkpt>
      <trkpt lat="48.68529" lon="1.74452">
        <ele>154</ele>
        <time>2014-01-19T12:50:04.000Z</time>
      </trkpt>
      <trkpt lat="48.68538" lon="1.74445">
        <ele>154.19999694824</ele>
        <time>2014-01-19T12:50:11.000Z</time>
      </trkpt>
      <trkpt lat="48.68545" lon="1.74439">
        <ele>154.39999389648</ele>
        <time>2014-01-19T12:50:17.000Z</time>
      </trkpt>
      <trkpt lat="48.68551" lon="1.74428">
        <ele>154.19999694824</ele>
        <time>2014-01-19T12:50:24.000Z</time>
      </trkpt>
      <trkpt lat="48.68556" lon="1.74419">
        <ele>153.80000305176</ele>
        <time>2014-01-19T12:50:30.000Z</time>
      </trkpt>
      <trkpt lat="48.68558" lon="1.74414">
        <ele>154</ele>
        <time>2014-01-19T12:50:33.000Z</time>
      </trkpt>
      <trkpt lat="48.68564" lon="1.74401">
        <ele>154.39999389648</ele>
        <time>2014-01-19T12:50:40.000Z</time>
      </trkpt>
      <trkpt lat="48.68564" lon="1.74393">
        <ele>154.39999389648</ele>
        <time>2014-01-19T12:50:43.000Z</time>
      </trkpt>
      <trkpt lat="48.68568" lon="1.74387">
        <ele>154.80000305176</ele>
        <time>2014-01-19T12:50:47.000Z</time>
      </trkpt>
      <trkpt lat="48.68573" lon="1.74375">
        <ele>155</ele>
        <time>2014-01-19T12:50:54.000Z</time>
      </trkpt>
      <trkpt lat="48.68574" lon="1.74361">
        <ele>155</ele>
        <time>2014-01-19T12:51:01.000Z</time>
      </trkpt>
      <trkpt lat="48.68576" lon="1.74353">
        <ele>155</ele>
        <time>2014-01-19T12:51:05.000Z</time>
      </trkpt>
      <trkpt lat="48.68577" lon="1.74345">
        <ele>155</ele>
        <time>2014-01-19T12:51:09.000Z</time>
      </trkpt>
      <trkpt lat="48.68577" lon="1.74337">
        <ele>155</ele>
        <time>2014-01-19T12:51:13.000Z</time>
      </trkpt>
      <trkpt lat="48.68578" lon="1.74326">
        <ele>155.19999694824</ele>
        <time>2014-01-19T12:51:19.000Z</time>
      </trkpt>
      <trkpt lat="48.68581" lon="1.74308">
        <ele>156.19999694824</ele>
        <time>2014-01-19T12:51:27.000Z</time>
      </trkpt>
      <trkpt lat="48.68587" lon="1.74295">
        <ele>157</ele>
        <time>2014-01-19T12:51:34.000Z</time>
      </trkpt>
      <trkpt lat="48.68593" lon="1.74289">
        <ele>157.19999694824</ele>
        <time>2014-01-19T12:51:38.000Z</time>
      </trkpt>
      <trkpt lat="48.68599" lon="1.74279">
        <ele>157.60000610352</ele>
        <time>2014-01-19T12:51:45.000Z</time>
      </trkpt>
      <trkpt lat="48.68605" lon="1.74275">
        <ele>157.80000305176</ele>
        <time>2014-01-19T12:51:50.000Z</time>
      </trkpt>
      <trkpt lat="48.68606" lon="1.74272">
        <ele>158</ele>
        <time>2014-01-19T12:51:52.000Z</time>
      </trkpt>
      <trkpt lat="48.68609" lon="1.74266">
        <ele>158</ele>
        <time>2014-01-19T12:51:56.000Z</time>
      </trkpt>
      <trkpt lat="48.6862" lon="1.74256">
        <ele>158</ele>
        <time>2014-01-19T12:52:05.000Z</time>
      </trkpt>
      <trkpt lat="48.68632" lon="1.74253">
        <ele>157.80000305176</ele>
        <time>2014-01-19T12:52:13.000Z</time>
      </trkpt>
      <trkpt lat="48.68644" lon="1.74249">
        <ele>157.60000610352</ele>
        <time>2014-01-19T12:52:22.000Z</time>
      </trkpt>
      <trkpt lat="48.68648" lon="1.7424">
        <ele>157.60000610352</ele>
        <time>2014-01-19T12:52:28.000Z</time>
      </trkpt>
      <trkpt lat="48.68655" lon="1.74234">
        <ele>157.60000610352</ele>
        <time>2014-01-19T12:52:34.000Z</time>
      </trkpt>
      <trkpt lat="48.6866" lon="1.74228">
        <ele>157.39999389648</ele>
        <time>2014-01-19T12:52:39.000Z</time>
      </trkpt>
      <trkpt lat="48.68668" lon="1.74229">
        <ele>157.19999694824</ele>
        <time>2014-01-19T12:52:43.000Z</time>
      </trkpt>
      <trkpt lat="48.68677" lon="1.74231">
        <ele>157.19999694824</ele>
        <time>2014-01-19T12:52:48.000Z</time>
      </trkpt>
      <trkpt lat="48.68686" lon="1.7423">
        <ele>157</ele>
        <time>2014-01-19T12:52:54.000Z</time>
      </trkpt>
      <trkpt lat="48.68697" lon="1.74227">
        <ele>157</ele>
        <time>2014-01-19T12:53:01.000Z</time>
      </trkpt>
      <trkpt lat="48.68704" lon="1.74219">
        <ele>156.80000305176</ele>
        <time>2014-01-19T12:53:07.000Z</time>
      </trkpt>
      <trkpt lat="48.68705" lon="1.74212">
        <ele>156.80000305176</ele>
        <time>2014-01-19T12:53:11.000Z</time>
      </trkpt>
      <trkpt lat="48.68705" lon="1.74195">
        <ele>156.80000305176</ele>
        <time>2014-01-19T12:53:19.000Z</time>
      </trkpt>
      <trkpt lat="48.68706" lon="1.74183">
        <ele>156.60000610352</ele>
        <time>2014-01-19T12:53:24.000Z</time>
      </trkpt>
      <trkpt lat="48.68703" lon="1.74181">
        <ele>156.80000305176</ele>
        <time>2014-01-19T12:53:31.000Z</time>
      </trkpt>
      <trkpt lat="48.68701" lon="1.74179">
        <ele>156.80000305176</ele>
        <time>2014-01-19T12:53:33.000Z</time>
      </trkpt>
      <trkpt lat="48.68701" lon="1.74165">
        <ele>156.80000305176</ele>
        <time>2014-01-19T12:53:40.000Z</time>
      </trkpt>
      <trkpt lat="48.68699" lon="1.74153">
        <ele>157.60000610352</ele>
        <time>2014-01-19T12:53:46.000Z</time>
      </trkpt>
      <trkpt lat="48.68697" lon="1.74139">
        <ele>158.39999389648</ele>
        <time>2014-01-19T12:53:52.000Z</time>
      </trkpt>
      <trkpt lat="48.68694" lon="1.74126">
        <ele>159.19999694824</ele>
        <time>2014-01-19T12:53:59.000Z</time>
      </trkpt>
      <trkpt lat="48.6869" lon="1.74115">
        <ele>160</ele>
        <time>2014-01-19T12:54:05.000Z</time>
      </trkpt>
      <trkpt lat="48.68689" lon="1.74113">
        <ele>160</ele>
        <time>2014-01-19T12:54:06.000Z</time>
      </trkpt>
      <trkpt lat="48.68689" lon="1.74095">
        <ele>161</ele>
        <time>2014-01-19T12:54:14.000Z</time>
      </trkpt>
      <trkpt lat="48.68686" lon="1.74081">
        <ele>162</ele>
        <time>2014-01-19T12:54:21.000Z</time>
      </trkpt>
      <trkpt lat="48.68682" lon="1.74068">
        <ele>162.60000610352</ele>
        <time>2014-01-19T12:54:28.000Z</time>
      </trkpt>
      <trkpt lat="48.6868" lon="1.74058">
        <ele>163.19999694824</ele>
        <time>2014-01-19T12:54:33.000Z</time>
      </trkpt>
      <trkpt lat="48.68678" lon="1.74051">
        <ele>163.60000610352</ele>
        <time>2014-01-19T12:54:36.000Z</time>
      </trkpt>
      <trkpt lat="48.68679" lon="1.7404">
        <ele>164</ele>
        <time>2014-01-19T12:54:41.000Z</time>
      </trkpt>
      <trkpt lat="48.68676" lon="1.74029">
        <ele>164.60000610352</ele>
        <time>2014-01-19T12:54:48.000Z</time>
      </trkpt>
      <trkpt lat="48.68672" lon="1.74022">
        <ele>165</ele>
        <time>2014-01-19T12:54:55.000Z</time>
      </trkpt>
      <trkpt lat="48.6867" lon="1.74013">
        <ele>165.39999389648</ele>
        <time>2014-01-19T12:55:00.000Z</time>
      </trkpt>
      <trkpt lat="48.68673" lon="1.73995">
        <ele>166</ele>
        <time>2014-01-19T12:55:06.000Z</time>
      </trkpt>
      <trkpt lat="48.68671" lon="1.73984">
        <ele>166.39999389648</ele>
        <time>2014-01-19T12:55:11.000Z</time>
      </trkpt>
      <trkpt lat="48.68666" lon="1.73973">
        <ele>167</ele>
        <time>2014-01-19T12:55:18.000Z</time>
      </trkpt>
      <trkpt lat="48.68664" lon="1.73957">
        <ele>167.39999389648</ele>
        <time>2014-01-19T12:55:25.000Z</time>
      </trkpt>
      <trkpt lat="48.68661" lon="1.73944">
        <ele>167.80000305176</ele>
        <time>2014-01-19T12:55:32.000Z</time>
      </trkpt>
      <trkpt lat="48.68659" lon="1.73935">
        <ele>168.19999694824</ele>
        <time>2014-01-19T12:55:37.000Z</time>
      </trkpt>
      <trkpt lat="48.68658" lon="1.7393">
        <ele>168.19999694824</ele>
        <time>2014-01-19T12:55:40.000Z</time>
      </trkpt>
      <trkpt lat="48.68657" lon="1.73927">
        <ele>168.39999389648</ele>
        <time>2014-01-19T12:55:42.000Z</time>
      </trkpt>
      <trkpt lat="48.68657" lon="1.73923">
        <ele>168.39999389648</ele>
        <time>2014-01-19T12:55:44.000Z</time>
      </trkpt>
      <trkpt lat="48.68656" lon="1.73915">
        <ele>168.60000610352</ele>
        <time>2014-01-19T12:55:49.000Z</time>
      </trkpt>
      <trkpt lat="48.68655" lon="1.73902">
        <ele>169</ele>
        <time>2014-01-19T12:55:55.000Z</time>
      </trkpt>
      <trkpt lat="48.68655" lon="1.73893">
        <ele>169.19999694824</ele>
        <time>2014-01-19T12:56:00.000Z</time>
      </trkpt>
      <trkpt lat="48.68655" lon="1.73883">
        <ele>169.39999389648</ele>
        <time>2014-01-19T12:56:06.000Z</time>
      </trkpt>
      <trkpt lat="48.68653" lon="1.73872">
        <ele>169.60000610352</ele>
        <time>2014-01-19T12:56:12.000Z</time>
      </trkpt>
      <trkpt lat="48.68647" lon="1.73858">
        <ele>169.80000305176</ele>
        <time>2014-01-19T12:56:19.000Z</time>
      </trkpt>
      <trkpt lat="48.68644" lon="1.73838">
        <ele>170</ele>
        <time>2014-01-19T12:56:27.000Z</time>
      </trkpt>
      <trkpt lat="48.68644" lon="1.73825">
        <ele>170.19999694824</ele>
        <time>2014-01-19T12:56:34.000Z</time>
      </trkpt>
      <trkpt lat="48.68643" lon="1.73822">
        <ele>170.19999694824</ele>
        <time>2014-01-19T12:56:36.000Z</time>
      </trkpt>
      <trkpt lat="48.68643" lon="1.73812">
        <ele>170.19999694824</ele>
        <time>2014-01-19T12:56:40.000Z</time>
      </trkpt>
      <trkpt lat="48.68644" lon="1.73802">
        <ele>170.39999389648</ele>
        <time>2014-01-19T12:56:47.000Z</time>
      </trkpt>
      <trkpt lat="48.68644" lon="1.73801">
        <ele>170.39999389648</ele>
        <time>2014-01-19T12:56:48.000Z</time>
      </trkpt>
      <trkpt lat="48.68643" lon="1.7379">
        <ele>170.39999389648</ele>
        <time>2014-01-19T12:56:52.000Z</time>
      </trkpt>
      <trkpt lat="48.68639" lon="1.73773">
        <ele>170.19999694824</ele>
        <time>2014-01-19T12:56:59.000Z</time>
      </trkpt>
      <trkpt lat="48.68639" lon="1.73772">
        <ele>170.19999694824</ele>
        <time>2014-01-19T12:57:00.000Z</time>
      </trkpt>
      <trkpt lat="48.68636" lon="1.73751">
        <ele>170.19999694824</ele>
        <time>2014-01-19T12:57:09.000Z</time>
      </trkpt>
      <trkpt lat="48.68635" lon="1.73739">
        <ele>169.60000610352</ele>
        <time>2014-01-19T12:57:15.000Z</time>
      </trkpt>
      <trkpt lat="48.68632" lon="1.73726">
        <ele>169</ele>
        <time>2014-01-19T12:57:22.000Z</time>
      </trkpt>
      <trkpt lat="48.68628" lon="1.73709">
        <ele>168</ele>
        <time>2014-01-19T12:57:30.000Z</time>
      </trkpt>
      <trkpt lat="48.68625" lon="1.73692">
        <ele>167</ele>
        <time>2014-01-19T12:57:37.000Z</time>
      </trkpt>
      <trkpt lat="48.68623" lon="1.73676">
        <ele>166.19999694824</ele>
        <time>2014-01-19T12:57:44.000Z</time>
      </trkpt>
      <trkpt lat="48.68618" lon="1.73662">
        <ele>165.19999694824</ele>
        <time>2014-01-19T12:57:51.000Z</time>
      </trkpt>
      <trkpt lat="48.68617" lon="1.73653">
        <ele>165</ele>
        <time>2014-01-19T12:57:55.000Z</time>
      </trkpt>
      <trkpt lat="48.68615" lon="1.73637">
        <ele>164.60000610352</ele>
        <time>2014-01-19T12:58:01.000Z</time>
      </trkpt>
      <trkpt lat="48.68614" lon="1.73625">
        <ele>164.19999694824</ele>
        <time>2014-01-19T12:58:06.000Z</time>
      </trkpt>
      <trkpt lat="48.68613" lon="1.7361">
        <ele>163.80000305176</ele>
        <time>2014-01-19T12:58:13.000Z</time>
      </trkpt>
      <trkpt lat="48.68613" lon="1.73601">
        <ele>163.80000305176</ele>
        <time>2014-01-19T12:58:19.000Z</time>
      </trkpt>
      <trkpt lat="48.68613" lon="1.73601">
        <ele>163.80000305176</ele>
        <time>2014-01-19T12:58:20.000Z</time>
      </trkpt>
      <trkpt lat="48.6861" lon="1.73573">
        <ele>163.39999389648</ele>
        <time>2014-01-19T12:58:45.000Z</time>
      </trkpt>
      <trkpt lat="48.68611" lon="1.73559">
        <ele>163.60000610352</ele>
        <time>2014-01-19T12:58:51.000Z</time>
      </trkpt>
      <trkpt lat="48.68615" lon="1.73558">
        <ele>163.60000610352</ele>
        <time>2014-01-19T12:58:55.000Z</time>
      </trkpt>
      <trkpt lat="48.68621" lon="1.73553">
        <ele>163.80000305176</ele>
        <time>2014-01-19T12:59:01.000Z</time>
      </trkpt>
      <trkpt lat="48.68626" lon="1.73555">
        <ele>164</ele>
        <time>2014-01-19T12:59:05.000Z</time>
      </trkpt>
      <trkpt lat="48.68634" lon="1.73558">
        <ele>164.19999694824</ele>
        <time>2014-01-19T12:59:10.000Z</time>
      </trkpt>
      <trkpt lat="48.68636" lon="1.73559">
        <ele>164.39999389648</ele>
        <time>2014-01-19T12:59:12.000Z</time>
      </trkpt>
      <trkpt lat="48.68643" lon="1.73557">
        <ele>164.60000610352</ele>
        <time>2014-01-19T12:59:18.000Z</time>
      </trkpt>
      <trkpt lat="48.68653" lon="1.73557">
        <ele>165</ele>
        <time>2014-01-19T12:59:26.000Z</time>
      </trkpt>
      <trkpt lat="48.68656" lon="1.73554">
        <ele>165</ele>
        <time>2014-01-19T12:59:31.000Z</time>
      </trkpt>
      <trkpt lat="48.68661" lon="1.73555">
        <ele>165.19999694824</ele>
        <time>2014-01-19T12:59:34.000Z</time>
      </trkpt>
      <trkpt lat="48.6867" lon="1.73554">
        <ele>165.39999389648</ele>
        <time>2014-01-19T12:59:40.000Z</time>
      </trkpt>
      <trkpt lat="48.68677" lon="1.73553">
        <ele>165.80000305176</ele>
        <time>2014-01-19T12:59:45.000Z</time>
      </trkpt>
      <trkpt lat="48.6868" lon="1.73553">
        <ele>166</ele>
        <time>2014-01-19T12:59:47.000Z</time>
      </trkpt>
      <trkpt lat="48.6869" lon="1.73555">
        <ele>166.60000610352</ele>
        <time>2014-01-19T12:59:53.000Z</time>
      </trkpt>
      <trkpt lat="48.68696" lon="1.73556">
        <ele>166.80000305176</ele>
        <time>2014-01-19T12:59:56.000Z</time>
      </trkpt>
      <trkpt lat="48.68707" lon="1.73558">
        <ele>167.39999389648</ele>
        <time>2014-01-19T13:00:03.000Z</time>
      </trkpt>
      <trkpt lat="48.68714" lon="1.73561">
        <ele>167.80000305176</ele>
        <time>2014-01-19T13:00:09.000Z</time>
      </trkpt>
      <trkpt lat="48.68718" lon="1.73564">
        <ele>168.19999694824</ele>
        <time>2014-01-19T13:00:14.000Z</time>
      </trkpt>
      <trkpt lat="48.68728" lon="1.73566">
        <ele>168.60000610352</ele>
        <time>2014-01-19T13:00:21.000Z</time>
      </trkpt>
      <trkpt lat="48.68738" lon="1.73565">
        <ele>169.19999694824</ele>
        <time>2014-01-19T13:00:28.000Z</time>
      </trkpt>
      <trkpt lat="48.68747" lon="1.73564">
        <ele>169.60000610352</ele>
        <time>2014-01-19T13:00:35.000Z</time>
      </trkpt>
      <trkpt lat="48.68759" lon="1.73566">
        <ele>169.80000305176</ele>
        <time>2014-01-19T13:00:42.000Z</time>
      </trkpt>
      <trkpt lat="48.68768" lon="1.7357">
        <ele>170</ele>
        <time>2014-01-19T13:00:48.000Z</time>
      </trkpt>
      <trkpt lat="48.68775" lon="1.73568">
        <ele>170</ele>
        <time>2014-01-19T13:00:52.000Z</time>
      </trkpt>
      <trkpt lat="48.68778" lon="1.73569">
        <ele>170</ele>
        <time>2014-01-19T13:00:53.000Z</time>
      </trkpt>
      <trkpt lat="48.68787" lon="1.73571">
        <ele>170</ele>
        <time>2014-01-19T13:00:58.000Z</time>
      </trkpt>
      <trkpt lat="48.68794" lon="1.73571">
        <ele>170</ele>
        <time>2014-01-19T13:01:04.000Z</time>
      </trkpt>
      <trkpt lat="48.68798" lon="1.73578">
        <ele>170</ele>
        <time>2014-01-19T13:01:10.000Z</time>
      </trkpt>
      <trkpt lat="48.68802" lon="1.73583">
        <ele>170</ele>
        <time>2014-01-19T13:01:14.000Z</time>
      </trkpt>
      <trkpt lat="48.6881" lon="1.73585">
        <ele>170</ele>
        <time>2014-01-19T13:01:21.000Z</time>
      </trkpt>
      <trkpt lat="48.68814" lon="1.73585">
        <ele>170</ele>
        <time>2014-01-19T13:01:25.000Z</time>
      </trkpt>
      <trkpt lat="48.68816" lon="1.73578">
        <ele>170</ele>
        <time>2014-01-19T13:01:32.000Z</time>
      </trkpt>
      <trkpt lat="48.68821" lon="1.73575">
        <ele>170.19999694824</ele>
        <time>2014-01-19T13:01:36.000Z</time>
      </trkpt>
      <trkpt lat="48.68829" lon="1.73575">
        <ele>170.19999694824</ele>
        <time>2014-01-19T13:01:42.000Z</time>
      </trkpt>
      <trkpt lat="48.68833" lon="1.73574">
        <ele>170.19999694824</ele>
        <time>2014-01-19T13:01:45.000Z</time>
      </trkpt>
      <trkpt lat="48.68839" lon="1.73575">
        <ele>170.19999694824</ele>
        <time>2014-01-19T13:01:50.000Z</time>
      </trkpt>
      <trkpt lat="48.68843" lon="1.73574">
        <ele>170.19999694824</ele>
        <time>2014-01-19T13:01:54.000Z</time>
      </trkpt>
      <trkpt lat="48.68852" lon="1.7358">
        <ele>169.80000305176</ele>
        <time>2014-01-19T13:02:01.000Z</time>
      </trkpt>
      <trkpt lat="48.68859" lon="1.73577">
        <ele>169.80000305176</ele>
        <time>2014-01-19T13:02:07.000Z</time>
      </trkpt>
      <trkpt lat="48.6887" lon="1.73578">
        <ele>169.60000610352</ele>
        <time>2014-01-19T13:02:15.000Z</time>
      </trkpt>
      <trkpt lat="48.6888" lon="1.73579">
        <ele>169.60000610352</ele>
        <time>2014-01-19T13:02:21.000Z</time>
      </trkpt>
      <trkpt lat="48.68895" lon="1.7358">
        <ele>169.39999389648</ele>
        <time>2014-01-19T13:02:30.000Z</time>
      </trkpt>
      <trkpt lat="48.68902" lon="1.73579">
        <ele>169.19999694824</ele>
        <time>2014-01-19T13:02:36.000Z</time>
      </trkpt>
      <trkpt lat="48.68914" lon="1.73581">
        <ele>169</ele>
        <time>2014-01-19T13:02:44.000Z</time>
      </trkpt>
      <trkpt lat="48.68922" lon="1.73583">
        <ele>169.19999694824</ele>
        <time>2014-01-19T13:02:50.000Z</time>
      </trkpt>
      <trkpt lat="48.6893" lon="1.73586">
        <ele>169.39999389648</ele>
        <time>2014-01-19T13:02:56.000Z</time>
      </trkpt>
      <trkpt lat="48.68939" lon="1.73585">
        <ele>169.60000610352</ele>
        <time>2014-01-19T13:03:04.000Z</time>
      </trkpt>
      <trkpt lat="48.68946" lon="1.73587">
        <ele>169.80000305176</ele>
        <time>2014-01-19T13:03:10.000Z</time>
      </trkpt>
      <trkpt lat="48.68953" lon="1.73584">
        <ele>169.80000305176</ele>
        <time>2014-01-19T13:03:16.000Z</time>
      </trkpt>
      <trkpt lat="48.68956" lon="1.73584">
        <ele>170</ele>
        <time>2014-01-19T13:03:18.000Z</time>
      </trkpt>
      <trkpt lat="48.68964" lon="1.73585">
        <ele>170.19999694824</ele>
        <time>2014-01-19T13:03:25.000Z</time>
      </trkpt>
      <trkpt lat="48.68966" lon="1.73585">
        <ele>170.19999694824</ele>
        <time>2014-01-19T13:03:26.000Z</time>
      </trkpt>
      <trkpt lat="48.68976" lon="1.73588">
        <ele>170.60000610352</ele>
        <time>2014-01-19T13:03:34.000Z</time>
      </trkpt>
      <trkpt lat="48.68979" lon="1.73589">
        <ele>170.60000610352</ele>
        <time>2014-01-19T13:03:36.000Z</time>
      </trkpt>
      <trkpt lat="48.68988" lon="1.7359">
        <ele>170.80000305176</ele>
        <time>2014-01-19T13:03:42.000Z</time>
      </trkpt>
      <trkpt lat="48.68995" lon="1.73588">
        <ele>171</ele>
        <time>2014-01-19T13:03:48.000Z</time>
      </trkpt>
      <trkpt lat="48.68999" lon="1.73591">
        <ele>171.19999694824</ele>
        <time>2014-01-19T13:03:50.000Z</time>
      </trkpt>
      <trkpt lat="48.69006" lon="1.7359">
        <ele>171.39999389648</ele>
        <time>2014-01-19T13:03:56.000Z</time>
      </trkpt>
      <trkpt lat="48.69006" lon="1.73589">
        <ele>171.60000610352</ele>
        <time>2014-01-19T13:03:57.000Z</time>
      </trkpt>
      <trkpt lat="48.69009" lon="1.7359">
        <ele>171.80000305176</ele>
        <time>2014-01-19T13:04:00.000Z</time>
      </trkpt>
      <trkpt lat="48.69017" lon="1.73592">
        <ele>172.19999694824</ele>
        <time>2014-01-19T13:04:06.000Z</time>
      </trkpt>
      <trkpt lat="48.69025" lon="1.73595">
        <ele>172.60000610352</ele>
        <time>2014-01-19T13:04:11.000Z</time>
      </trkpt>
      <trkpt lat="48.69037" lon="1.73598">
        <ele>173.39999389648</ele>
        <time>2014-01-19T13:04:18.000Z</time>
      </trkpt>
      <trkpt lat="48.6904" lon="1.73597">
        <ele>173.60000610352</ele>
        <time>2014-01-19T13:04:21.000Z</time>
      </trkpt>
      <trkpt lat="48.6905" lon="1.73599">
        <ele>174</ele>
        <time>2014-01-19T13:04:28.000Z</time>
      </trkpt>
      <trkpt lat="48.69054" lon="1.73597">
        <ele>174.19999694824</ele>
        <time>2014-01-19T13:04:32.000Z</time>
      </trkpt>
      <trkpt lat="48.69063" lon="1.73595">
        <ele>174.80000305176</ele>
        <time>2014-01-19T13:04:40.000Z</time>
      </trkpt>
      <trkpt lat="48.69067" lon="1.73595">
        <ele>175</ele>
        <time>2014-01-19T13:04:43.000Z</time>
      </trkpt>
      <trkpt lat="48.69071" lon="1.73588">
        <ele>175.19999694824</ele>
        <time>2014-01-19T13:04:47.000Z</time>
      </trkpt>
      <trkpt lat="48.69077" lon="1.73579">
        <ele>175.80000305176</ele>
        <time>2014-01-19T13:04:54.000Z</time>
      </trkpt>
      <trkpt lat="48.69081" lon="1.7357">
        <ele>176.19999694824</ele>
        <time>2014-01-19T13:05:00.000Z</time>
      </trkpt>
      <trkpt lat="48.69083" lon="1.73567">
        <ele>176.39999389648</ele>
        <time>2014-01-19T13:05:02.000Z</time>
      </trkpt>
      <trkpt lat="48.69087" lon="1.73562">
        <ele>176.60000610352</ele>
        <time>2014-01-19T13:05:06.000Z</time>
      </trkpt>
      <trkpt lat="48.69095" lon="1.73544">
        <ele>177.60000610352</ele>
        <time>2014-01-19T13:05:17.000Z</time>
      </trkpt>
      <trkpt lat="48.69103" lon="1.73529">
        <ele>178.19999694824</ele>
        <time>2014-01-19T13:05:26.000Z</time>
      </trkpt>
      <trkpt lat="48.69111" lon="1.73516">
        <ele>178.80000305176</ele>
        <time>2014-01-19T13:05:35.000Z</time>
      </trkpt>
      <trkpt lat="48.69122" lon="1.73497">
        <ele>179.39999389648</ele>
        <time>2014-01-19T13:05:47.000Z</time>
      </trkpt>
      <trkpt lat="48.6913" lon="1.73483">
        <ele>179.80000305176</ele>
        <time>2014-01-19T13:05:54.000Z</time>
      </trkpt>
      <trkpt lat="48.69135" lon="1.73466">
        <ele>180</ele>
        <time>2014-01-19T13:06:02.000Z</time>
      </trkpt>
      <trkpt lat="48.69141" lon="1.73453">
        <ele>180.19999694824</ele>
        <time>2014-01-19T13:06:09.000Z</time>
      </trkpt>
      <trkpt lat="48.69145" lon="1.73441">
        <ele>180.39999389648</ele>
        <time>2014-01-19T13:06:16.000Z</time>
      </trkpt>
      <trkpt lat="48.69153" lon="1.73427">
        <ele>180.60000610352</ele>
        <time>2014-01-19T13:06:25.000Z</time>
      </trkpt>
      <trkpt lat="48.6916" lon="1.73412">
        <ele>180.80000305176</ele>
        <time>2014-01-19T13:06:34.000Z</time>
      </trkpt>
      <trkpt lat="48.69167" lon="1.73402">
        <ele>180.80000305176</ele>
        <time>2014-01-19T13:06:41.000Z</time>
      </trkpt>
      <trkpt lat="48.69171" lon="1.73392">
        <ele>180.80000305176</ele>
        <time>2014-01-19T13:06:47.000Z</time>
      </trkpt>
      <trkpt lat="48.69173" lon="1.73388">
        <ele>180.80000305176</ele>
        <time>2014-01-19T13:06:52.000Z</time>
      </trkpt>
      <trkpt lat="48.69174" lon="1.73381">
        <ele>180.60000610352</ele>
        <time>2014-01-19T13:06:57.000Z</time>
      </trkpt>
      <trkpt lat="48.69178" lon="1.73372">
        <ele>180.60000610352</ele>
        <time>2014-01-19T13:07:02.000Z</time>
      </trkpt>
      <trkpt lat="48.69184" lon="1.7336">
        <ele>180.39999389648</ele>
        <time>2014-01-19T13:07:09.000Z</time>
      </trkpt>
      <trkpt lat="48.6919" lon="1.73348">
        <ele>180.19999694824</ele>
        <time>2014-01-19T13:07:16.000Z</time>
      </trkpt>
      <trkpt lat="48.69194" lon="1.73339">
        <ele>180</ele>
        <time>2014-01-19T13:07:22.000Z</time>
      </trkpt>
      <trkpt lat="48.69199" lon="1.73324">
        <ele>179.80000305176</ele>
        <time>2014-01-19T13:07:29.000Z</time>
      </trkpt>
      <trkpt lat="48.69205" lon="1.73311">
        <ele>179.39999389648</ele>
        <time>2014-01-19T13:07:36.000Z</time>
      </trkpt>
      <trkpt lat="48.69211" lon="1.73306">
        <ele>179.39999389648</ele>
        <time>2014-01-19T13:07:42.000Z</time>
      </trkpt>
      <trkpt lat="48.69213" lon="1.73302">
        <ele>179.19999694824</ele>
        <time>2014-01-19T13:07:45.000Z</time>
      </trkpt>
      <trkpt lat="48.69219" lon="1.73298">
        <ele>179.19999694824</ele>
        <time>2014-01-19T13:07:49.000Z</time>
      </trkpt>
      <trkpt lat="48.6922" lon="1.73297">
        <ele>179.19999694824</ele>
        <time>2014-01-19T13:07:50.000Z</time>
      </trkpt>
      <trkpt lat="48.69229" lon="1.73282">
        <ele>178.80000305176</ele>
        <time>2014-01-19T13:07:59.000Z</time>
      </trkpt>
      <trkpt lat="48.69234" lon="1.73272">
        <ele>178.60000610352</ele>
        <time>2014-01-19T13:08:05.000Z</time>
      </trkpt>
      <trkpt lat="48.6924" lon="1.73258">
        <ele>178.19999694824</ele>
        <time>2014-01-19T13:08:13.000Z</time>
      </trkpt>
      <trkpt lat="48.69246" lon="1.73247">
        <ele>177.80000305176</ele>
        <time>2014-01-19T13:08:21.000Z</time>
      </trkpt>
      <trkpt lat="48.69251" lon="1.73239">
        <ele>177.39999389648</ele>
        <time>2014-01-19T13:08:26.000Z</time>
      </trkpt>
      <trkpt lat="48.69259" lon="1.73227">
        <ele>176.80000305176</ele>
        <time>2014-01-19T13:08:34.000Z</time>
      </trkpt>
      <trkpt lat="48.69261" lon="1.73222">
        <ele>176.60000610352</ele>
        <time>2014-01-19T13:08:37.000Z</time>
      </trkpt>
      <trkpt lat="48.69266" lon="1.73214">
        <ele>176.39999389648</ele>
        <time>2014-01-19T13:08:44.000Z</time>
      </trkpt>
      <trkpt lat="48.6927" lon="1.73208">
        <ele>176.19999694824</ele>
        <time>2014-01-19T13:08:49.000Z</time>
      </trkpt>
      <trkpt lat="48.69275" lon="1.73199">
        <ele>175.80000305176</ele>
        <time>2014-01-19T13:08:55.000Z</time>
      </trkpt>
      <trkpt lat="48.69282" lon="1.73187">
        <ele>175.39999389648</ele>
        <time>2014-01-19T13:09:02.000Z</time>
      </trkpt>
      <trkpt lat="48.69288" lon="1.73175">
        <ele>175.19999694824</ele>
        <time>2014-01-19T13:09:09.000Z</time>
      </trkpt>
      <trkpt lat="48.69292" lon="1.73162">
        <ele>174.80000305176</ele>
        <time>2014-01-19T13:09:15.000Z</time>
      </trkpt>
      <trkpt lat="48.69293" lon="1.7316">
        <ele>174.80000305176</ele>
        <time>2014-01-19T13:09:16.000Z</time>
      </trkpt>
      <trkpt lat="48.69298" lon="1.73153">
        <ele>174.39999389648</ele>
        <time>2014-01-19T13:09:23.000Z</time>
      </trkpt>
      <trkpt lat="48.69299" lon="1.73151">
        <ele>174.39999389648</ele>
        <time>2014-01-19T13:09:24.000Z</time>
      </trkpt>
      <trkpt lat="48.69303" lon="1.73133">
        <ele>173.60000610352</ele>
        <time>2014-01-19T13:09:32.000Z</time>
      </trkpt>
      <trkpt lat="48.69308" lon="1.73127">
        <ele>173.39999389648</ele>
        <time>2014-01-19T13:09:37.000Z</time>
      </trkpt>
      <trkpt lat="48.69314" lon="1.73116">
        <ele>173.19999694824</ele>
        <time>2014-01-19T13:09:45.000Z</time>
      </trkpt>
      <trkpt lat="48.69321" lon="1.73104">
        <ele>172.60000610352</ele>
        <time>2014-01-19T13:09:53.000Z</time>
      </trkpt>
      <trkpt lat="48.69326" lon="1.73098">
        <ele>172.60000610352</ele>
        <time>2014-01-19T13:09:57.000Z</time>
      </trkpt>
      <trkpt lat="48.69332" lon="1.73088">
        <ele>172.19999694824</ele>
        <time>2014-01-19T13:10:03.000Z</time>
      </trkpt>
      <trkpt lat="48.69338" lon="1.73077">
        <ele>172</ele>
        <time>2014-01-19T13:10:09.000Z</time>
      </trkpt>
      <trkpt lat="48.69342" lon="1.73064">
        <ele>171.80000305176</ele>
        <time>2014-01-19T13:10:15.000Z</time>
      </trkpt>
      <trkpt lat="48.69347" lon="1.73055">
        <ele>171.60000610352</ele>
        <time>2014-01-19T13:10:20.000Z</time>
      </trkpt>
      <trkpt lat="48.69355" lon="1.73043">
        <ele>171.39999389648</ele>
        <time>2014-01-19T13:10:27.000Z</time>
      </trkpt>
      <trkpt lat="48.69359" lon="1.73033">
        <ele>171.19999694824</ele>
        <time>2014-01-19T13:10:33.000Z</time>
      </trkpt>
      <trkpt lat="48.69361" lon="1.7303">
        <ele>171.19999694824</ele>
        <time>2014-01-19T13:10:35.000Z</time>
      </trkpt>
      <trkpt lat="48.69364" lon="1.73022">
        <ele>171</ele>
        <time>2014-01-19T13:10:39.000Z</time>
      </trkpt>
      <trkpt lat="48.6937" lon="1.73013">
        <ele>170.80000305176</ele>
        <time>2014-01-19T13:10:45.000Z</time>
      </trkpt>
      <trkpt lat="48.69376" lon="1.73003">
        <ele>170.60000610352</ele>
        <time>2014-01-19T13:10:51.000Z</time>
      </trkpt>
      <trkpt lat="48.69382" lon="1.7299">
        <ele>170.19999694824</ele>
        <time>2014-01-19T13:10:58.000Z</time>
      </trkpt>
      <trkpt lat="48.69387" lon="1.72978">
        <ele>170</ele>
        <time>2014-01-19T13:11:05.000Z</time>
      </trkpt>
      <trkpt lat="48.6939" lon="1.72969">
        <ele>169.60000610352</ele>
        <time>2014-01-19T13:11:09.000Z</time>
      </trkpt>
      <trkpt lat="48.69394" lon="1.7295">
        <ele>169</ele>
        <time>2014-01-19T13:11:17.000Z</time>
      </trkpt>
      <trkpt lat="48.69399" lon="1.72944">
        <ele>169</ele>
        <time>2014-01-19T13:11:22.000Z</time>
      </trkpt>
      <trkpt lat="48.69404" lon="1.72934">
        <ele>168.60000610352</ele>
        <time>2014-01-19T13:11:28.000Z</time>
      </trkpt>
      <trkpt lat="48.69412" lon="1.72917">
        <ele>168</ele>
        <time>2014-01-19T13:11:37.000Z</time>
      </trkpt>
      <trkpt lat="48.69417" lon="1.72906">
        <ele>167.60000610352</ele>
        <time>2014-01-19T13:11:44.000Z</time>
      </trkpt>
      <trkpt lat="48.69421" lon="1.729">
        <ele>167.60000610352</ele>
        <time>2014-01-19T13:11:49.000Z</time>
      </trkpt>
      <trkpt lat="48.69425" lon="1.72895">
        <ele>167.39999389648</ele>
        <time>2014-01-19T13:11:53.000Z</time>
      </trkpt>
      <trkpt lat="48.69431" lon="1.72887">
        <ele>167.19999694824</ele>
        <time>2014-01-19T13:11:59.000Z</time>
      </trkpt>
      <trkpt lat="48.69434" lon="1.72882">
        <ele>167.19999694824</ele>
        <time>2014-01-19T13:12:02.000Z</time>
      </trkpt>
      <trkpt lat="48.69435" lon="1.72877">
        <ele>167</ele>
        <time>2014-01-19T13:12:05.000Z</time>
      </trkpt>
      <trkpt lat="48.6944" lon="1.72867">
        <ele>166.80000305176</ele>
        <time>2014-01-19T13:12:11.000Z</time>
      </trkpt>
      <trkpt lat="48.69447" lon="1.72857">
        <ele>166.60000610352</ele>
        <time>2014-01-19T13:12:18.000Z</time>
      </trkpt>
      <trkpt lat="48.69453" lon="1.72848">
        <ele>166.39999389648</ele>
        <time>2014-01-19T13:12:24.000Z</time>
      </trkpt>
      <trkpt lat="48.6946" lon="1.72835">
        <ele>166</ele>
        <time>2014-01-19T13:12:32.000Z</time>
      </trkpt>
      <trkpt lat="48.69466" lon="1.72823">
        <ele>165.60000610352</ele>
        <time>2014-01-19T13:12:39.000Z</time>
      </trkpt>
      <trkpt lat="48.69469" lon="1.72816">
        <ele>165.39999389648</ele>
        <time>2014-01-19T13:12:43.000Z</time>
      </trkpt>
      <trkpt lat="48.69476" lon="1.72802">
        <ele>165</ele>
        <time>2014-01-19T13:12:51.000Z</time>
      </trkpt>
      <trkpt lat="48.69483" lon="1.72788">
        <ele>164.39999389648</ele>
        <time>2014-01-19T13:13:00.000Z</time>
      </trkpt>
      <trkpt lat="48.69486" lon="1.72783">
        <ele>164.19999694824</ele>
        <time>2014-01-19T13:13:05.000Z</time>
      </trkpt>
      <trkpt lat="48.69489" lon="1.72772">
        <ele>163.80000305176</ele>
        <time>2014-01-19T13:13:11.000Z</time>
      </trkpt>
      <trkpt lat="48.69495" lon="1.72758">
        <ele>163.19999694824</ele>
        <time>2014-01-19T13:13:19.000Z</time>
      </trkpt>
      <trkpt lat="48.69504" lon="1.72746">
        <ele>163.39999389648</ele>
        <time>2014-01-19T13:13:28.000Z</time>
      </trkpt>
      <trkpt lat="48.69507" lon="1.72735">
        <ele>163.60000610352</ele>
        <time>2014-01-19T13:13:33.000Z</time>
      </trkpt>
      <trkpt lat="48.69513" lon="1.72723">
        <ele>164.19999694824</ele>
        <time>2014-01-19T13:13:40.000Z</time>
      </trkpt>
      <trkpt lat="48.6952" lon="1.72715">
        <ele>164.80000305176</ele>
        <time>2014-01-19T13:13:46.000Z</time>
      </trkpt>
      <trkpt lat="48.69527" lon="1.72712">
        <ele>165.19999694824</ele>
        <time>2014-01-19T13:13:52.000Z</time>
      </trkpt>
      <trkpt lat="48.69528" lon="1.72712">
        <ele>165.39999389648</ele>
        <time>2014-01-19T13:13:53.000Z</time>
      </trkpt>
      <trkpt lat="48.69531" lon="1.7271">
        <ele>165.60000610352</ele>
        <time>2014-01-19T13:13:59.000Z</time>
      </trkpt>
      <trkpt lat="48.6953" lon="1.72707">
        <ele>165.60000610352</ele>
        <time>2014-01-19T13:14:04.000Z</time>
      </trkpt>
      <trkpt lat="48.69534" lon="1.727">
        <ele>165.80000305176</ele>
        <time>2014-01-19T13:14:13.000Z</time>
      </trkpt>
      <trkpt lat="48.69539" lon="1.72698">
        <ele>166.19999694824</ele>
        <time>2014-01-19T13:14:17.000Z</time>
      </trkpt>
      <trkpt lat="48.69547" lon="1.72693">
        <ele>167</ele>
        <time>2014-01-19T13:14:23.000Z</time>
      </trkpt>
      <trkpt lat="48.69553" lon="1.7268">
        <ele>167.60000610352</ele>
        <time>2014-01-19T13:14:30.000Z</time>
      </trkpt>
      <trkpt lat="48.69561" lon="1.72674">
        <ele>168.19999694824</ele>
        <time>2014-01-19T13:14:36.000Z</time>
      </trkpt>
      <trkpt lat="48.69571" lon="1.7267">
        <ele>169</ele>
        <time>2014-01-19T13:14:44.000Z</time>
      </trkpt>
      <trkpt lat="48.69579" lon="1.72664">
        <ele>169.60000610352</ele>
        <time>2014-01-19T13:14:50.000Z</time>
      </trkpt>
      <trkpt lat="48.69585" lon="1.72659">
        <ele>170</ele>
        <time>2014-01-19T13:14:55.000Z</time>
      </trkpt>
      <trkpt lat="48.6959" lon="1.72651">
        <ele>169.80000305176</ele>
        <time>2014-01-19T13:15:01.000Z</time>
      </trkpt>
      <trkpt lat="48.69599" lon="1.72644">
        <ele>169.80000305176</ele>
        <time>2014-01-19T13:15:09.000Z</time>
      </trkpt>
      <trkpt lat="48.69605" lon="1.72643">
        <ele>170</ele>
        <time>2014-01-19T13:15:14.000Z</time>
      </trkpt>
      <trkpt lat="48.69614" lon="1.72633">
        <ele>169.80000305176</ele>
        <time>2014-01-19T13:15:21.000Z</time>
      </trkpt>
      <trkpt lat="48.69622" lon="1.7263">
        <ele>169.80000305176</ele>
        <time>2014-01-19T13:15:26.000Z</time>
      </trkpt>
      <trkpt lat="48.6963" lon="1.72622">
        <ele>169.80000305176</ele>
        <time>2014-01-19T13:15:32.000Z</time>
      </trkpt>
      <trkpt lat="48.69636" lon="1.72617">
        <ele>169.60000610352</ele>
        <time>2014-01-19T13:15:36.000Z</time>
      </trkpt>
      <trkpt lat="48.69639" lon="1.72616">
        <ele>169.60000610352</ele>
        <time>2014-01-19T13:15:38.000Z</time>
      </trkpt>
      <trkpt lat="48.69648" lon="1.72611">
        <ele>169.60000610352</ele>
        <time>2014-01-19T13:15:44.000Z</time>
      </trkpt>
      <trkpt lat="48.69651" lon="1.72608">
        <ele>169.60000610352</ele>
        <time>2014-01-19T13:15:46.000Z</time>
      </trkpt>
      <trkpt lat="48.69656" lon="1.72605">
        <ele>169.39999389648</ele>
        <time>2014-01-19T13:15:49.000Z</time>
      </trkpt>
      <trkpt lat="48.69662" lon="1.72596">
        <ele>169.39999389648</ele>
        <time>2014-01-19T13:15:55.000Z</time>
      </trkpt>
      <trkpt lat="48.69665" lon="1.72594">
        <ele>169.19999694824</ele>
        <time>2014-01-19T13:15:58.000Z</time>
      </trkpt>
      <trkpt lat="48.69674" lon="1.72591">
        <ele>169</ele>
        <time>2014-01-19T13:16:03.000Z</time>
      </trkpt>
      <trkpt lat="48.69682" lon="1.72585">
        <ele>168.80000305176</ele>
        <time>2014-01-19T13:16:11.000Z</time>
      </trkpt>
      <trkpt lat="48.69689" lon="1.72576">
        <ele>168.80000305176</ele>
        <time>2014-01-19T13:16:18.000Z</time>
      </trkpt>
      <trkpt lat="48.69691" lon="1.72574">
        <ele>168.80000305176</ele>
        <time>2014-01-19T13:16:20.000Z</time>
      </trkpt>
      <trkpt lat="48.697" lon="1.72572">
        <ele>168.80000305176</ele>
        <time>2014-01-19T13:16:26.000Z</time>
      </trkpt>
      <trkpt lat="48.69706" lon="1.72564">
        <ele>169</ele>
        <time>2014-01-19T13:16:31.000Z</time>
      </trkpt>
      <trkpt lat="48.69709" lon="1.72562">
        <ele>169</ele>
        <time>2014-01-19T13:16:34.000Z</time>
      </trkpt>
      <trkpt lat="48.69721" lon="1.7256">
        <ele>169</ele>
        <time>2014-01-19T13:16:41.000Z</time>
      </trkpt>
      <trkpt lat="48.69727" lon="1.72555">
        <ele>169.19999694824</ele>
        <time>2014-01-19T13:16:46.000Z</time>
      </trkpt>
      <trkpt lat="48.69734" lon="1.72546">
        <ele>169.39999389648</ele>
        <time>2014-01-19T13:16:52.000Z</time>
      </trkpt>
      <trkpt lat="48.69741" lon="1.72541">
        <ele>169.60000610352</ele>
        <time>2014-01-19T13:16:56.000Z</time>
      </trkpt>
      <trkpt lat="48.69745" lon="1.72535">
        <ele>169.80000305176</ele>
        <time>2014-01-19T13:17:00.000Z</time>
      </trkpt>
      <trkpt lat="48.69755" lon="1.72528">
        <ele>170</ele>
        <time>2014-01-19T13:17:08.000Z</time>
      </trkpt>
      <trkpt lat="48.69764" lon="1.72525">
        <ele>170.19999694824</ele>
        <time>2014-01-19T13:17:13.000Z</time>
      </trkpt>
      <trkpt lat="48.69765" lon="1.72523">
        <ele>170.39999389648</ele>
        <time>2014-01-19T13:17:15.000Z</time>
      </trkpt>
      <trkpt lat="48.69773" lon="1.72524">
        <ele>170.39999389648</ele>
        <time>2014-01-19T13:17:22.000Z</time>
      </trkpt>
      <trkpt lat="48.69781" lon="1.72522">
        <ele>170.60000610352</ele>
        <time>2014-01-19T13:17:27.000Z</time>
      </trkpt>
      <trkpt lat="48.69781" lon="1.72521">
        <ele>170.60000610352</ele>
        <time>2014-01-19T13:17:28.000Z</time>
      </trkpt>
      <trkpt lat="48.69787" lon="1.72509">
        <ele>171.19999694824</ele>
        <time>2014-01-19T13:17:34.000Z</time>
      </trkpt>
      <trkpt lat="48.69797" lon="1.72503">
        <ele>171.39999389648</ele>
        <time>2014-01-19T13:17:39.000Z</time>
      </trkpt>
      <trkpt lat="48.69805" lon="1.72497">
        <ele>171.80000305176</ele>
        <time>2014-01-19T13:17:43.000Z</time>
      </trkpt>
      <trkpt lat="48.69811" lon="1.72494">
        <ele>171.80000305176</ele>
        <time>2014-01-19T13:17:46.000Z</time>
      </trkpt>
      <trkpt lat="48.69815" lon="1.72487">
        <ele>172</ele>
        <time>2014-01-19T13:17:53.000Z</time>
      </trkpt>
      <trkpt lat="48.69816" lon="1.72486">
        <ele>172.19999694824</ele>
        <time>2014-01-19T13:17:54.000Z</time>
      </trkpt>
      <trkpt lat="48.69819" lon="1.72482">
        <ele>172.19999694824</ele>
        <time>2014-01-19T13:17:58.000Z</time>
      </trkpt>
      <trkpt lat="48.69829" lon="1.72479">
        <ele>172.39999389648</ele>
        <time>2014-01-19T13:18:03.000Z</time>
      </trkpt>
      <trkpt lat="48.6984" lon="1.72476">
        <ele>172.39999389648</ele>
        <time>2014-01-19T13:18:10.000Z</time>
      </trkpt>
      <trkpt lat="48.69848" lon="1.72471">
        <ele>172.60000610352</ele>
        <time>2014-01-19T13:18:17.000Z</time>
      </trkpt>
      <trkpt lat="48.69857" lon="1.72468">
        <ele>172.39999389648</ele>
        <time>2014-01-19T13:18:23.000Z</time>
      </trkpt>
      <trkpt lat="48.69866" lon="1.72467">
        <ele>172.39999389648</ele>
        <time>2014-01-19T13:18:29.000Z</time>
      </trkpt>
      <trkpt lat="48.6987" lon="1.72466">
        <ele>172.39999389648</ele>
        <time>2014-01-19T13:18:32.000Z</time>
      </trkpt>
      <trkpt lat="48.69872" lon="1.72466">
        <ele>172.39999389648</ele>
        <time>2014-01-19T13:18:34.000Z</time>
      </trkpt>
      <trkpt lat="48.69878" lon="1.72462">
        <ele>172.39999389648</ele>
        <time>2014-01-19T13:18:39.000Z</time>
      </trkpt>
      <trkpt lat="48.69887" lon="1.72457">
        <ele>172.39999389648</ele>
        <time>2014-01-19T13:18:45.000Z</time>
      </trkpt>
      <trkpt lat="48.69892" lon="1.72452">
        <ele>172.39999389648</ele>
        <time>2014-01-19T13:18:49.000Z</time>
      </trkpt>
      <trkpt lat="48.69899" lon="1.72449">
        <ele>172.39999389648</ele>
        <time>2014-01-19T13:18:56.000Z</time>
      </trkpt>
      <trkpt lat="48.69901" lon="1.72446">
        <ele>172.39999389648</ele>
        <time>2014-01-19T13:18:58.000Z</time>
      </trkpt>
      <trkpt lat="48.69904" lon="1.7244">
        <ele>172.60000610352</ele>
        <time>2014-01-19T13:19:02.000Z</time>
      </trkpt>
      <trkpt lat="48.69907" lon="1.72436">
        <ele>172.60000610352</ele>
        <time>2014-01-19T13:19:05.000Z</time>
      </trkpt>
      <trkpt lat="48.69916" lon="1.72431">
        <ele>172.60000610352</ele>
        <time>2014-01-19T13:19:12.000Z</time>
      </trkpt>
      <trkpt lat="48.69917" lon="1.72431">
        <ele>172.60000610352</ele>
        <time>2014-01-19T13:19:13.000Z</time>
      </trkpt>
      <trkpt lat="48.69929" lon="1.72426">
        <ele>172.60000610352</ele>
        <time>2014-01-19T13:19:20.000Z</time>
      </trkpt>
      <trkpt lat="48.6994" lon="1.72419">
        <ele>172.60000610352</ele>
        <time>2014-01-19T13:19:28.000Z</time>
      </trkpt>
      <trkpt lat="48.69947" lon="1.72414">
        <ele>172.60000610352</ele>
        <time>2014-01-19T13:19:34.000Z</time>
      </trkpt>
      <trkpt lat="48.69955" lon="1.72407">
        <ele>172.80000305176</ele>
        <time>2014-01-19T13:19:40.000Z</time>
      </trkpt>
      <trkpt lat="48.69959" lon="1.72402">
        <ele>172.80000305176</ele>
        <time>2014-01-19T13:19:45.000Z</time>
      </trkpt>
      <trkpt lat="48.69965" lon="1.72395">
        <ele>172.80000305176</ele>
        <time>2014-01-19T13:19:51.000Z</time>
      </trkpt>
      <trkpt lat="48.69966" lon="1.72394">
        <ele>172.80000305176</ele>
        <time>2014-01-19T13:19:52.000Z</time>
      </trkpt>
      <trkpt lat="48.69968" lon="1.72391">
        <ele>172.80000305176</ele>
        <time>2014-01-19T13:19:54.000Z</time>
      </trkpt>
      <trkpt lat="48.69975" lon="1.72385">
        <ele>173</ele>
        <time>2014-01-19T13:19:59.000Z</time>
      </trkpt>
      <trkpt lat="48.6998" lon="1.72379">
        <ele>173</ele>
        <time>2014-01-19T13:20:04.000Z</time>
      </trkpt>
      <trkpt lat="48.69984" lon="1.72375">
        <ele>173</ele>
        <time>2014-01-19T13:20:08.000Z</time>
      </trkpt>
      <trkpt lat="48.69992" lon="1.72372">
        <ele>173.19999694824</ele>
        <time>2014-01-19T13:20:13.000Z</time>
      </trkpt>
      <trkpt lat="48.69997" lon="1.72367">
        <ele>173.19999694824</ele>
        <time>2014-01-19T13:20:17.000Z</time>
      </trkpt>
      <trkpt lat="48.70006" lon="1.72363">
        <ele>173.60000610352</ele>
        <time>2014-01-19T13:20:24.000Z</time>
      </trkpt>
      <trkpt lat="48.70015" lon="1.72358">
        <ele>174.39999389648</ele>
        <time>2014-01-19T13:20:30.000Z</time>
      </trkpt>
      <trkpt lat="48.70022" lon="1.72355">
        <ele>174.80000305176</ele>
        <time>2014-01-19T13:20:34.000Z</time>
      </trkpt>
      <trkpt lat="48.70029" lon="1.72351">
        <ele>175.19999694824</ele>
        <time>2014-01-19T13:20:40.000Z</time>
      </trkpt>
      <trkpt lat="48.70032" lon="1.72349">
        <ele>175.39999389648</ele>
        <time>2014-01-19T13:20:42.000Z</time>
      </trkpt>
      <trkpt lat="48.70034" lon="1.72346">
        <ele>175.60000610352</ele>
        <time>2014-01-19T13:20:45.000Z</time>
      </trkpt>
      <trkpt lat="48.7004" lon="1.72339">
        <ele>176</ele>
        <time>2014-01-19T13:20:49.000Z</time>
      </trkpt>
      <trkpt lat="48.70044" lon="1.72335">
        <ele>176</ele>
        <time>2014-01-19T13:20:53.000Z</time>
      </trkpt>
      <trkpt lat="48.70054" lon="1.72326">
        <ele>176.39999389648</ele>
        <time>2014-01-19T13:21:01.000Z</time>
      </trkpt>
      <trkpt lat="48.70063" lon="1.72319">
        <ele>176.60000610352</ele>
        <time>2014-01-19T13:21:09.000Z</time>
      </trkpt>
      <trkpt lat="48.7007" lon="1.72314">
        <ele>176.80000305176</ele>
        <time>2014-01-19T13:21:14.000Z</time>
      </trkpt>
      <trkpt lat="48.70074" lon="1.72312">
        <ele>176.80000305176</ele>
        <time>2014-01-19T13:21:17.000Z</time>
      </trkpt>
      <trkpt lat="48.70082" lon="1.72306">
        <ele>177</ele>
        <time>2014-01-19T13:21:23.000Z</time>
      </trkpt>
      <trkpt lat="48.70093" lon="1.723">
        <ele>177.19999694824</ele>
        <time>2014-01-19T13:21:30.000Z</time>
      </trkpt>
      <trkpt lat="48.70098" lon="1.72298">
        <ele>177.39999389648</ele>
        <time>2014-01-19T13:21:36.000Z</time>
      </trkpt>
      <trkpt lat="48.70104" lon="1.72294">
        <ele>177.60000610352</ele>
        <time>2014-01-19T13:21:41.000Z</time>
      </trkpt>
      <trkpt lat="48.70111" lon="1.72288">
        <ele>177.60000610352</ele>
        <time>2014-01-19T13:21:47.000Z</time>
      </trkpt>
      <trkpt lat="48.70115" lon="1.72284">
        <ele>177.60000610352</ele>
        <time>2014-01-19T13:21:51.000Z</time>
      </trkpt>
      <trkpt lat="48.70118" lon="1.72279">
        <ele>177.60000610352</ele>
        <time>2014-01-19T13:21:54.000Z</time>
      </trkpt>
      <trkpt lat="48.70124" lon="1.72271">
        <ele>177.39999389648</ele>
        <time>2014-01-19T13:22:00.000Z</time>
      </trkpt>
      <trkpt lat="48.70135" lon="1.72265">
        <ele>177.60000610352</ele>
        <time>2014-01-19T13:22:06.000Z</time>
      </trkpt>
      <trkpt lat="48.70137" lon="1.72264">
        <ele>177.60000610352</ele>
        <time>2014-01-19T13:22:07.000Z</time>
      </trkpt>
      <trkpt lat="48.70139" lon="1.72263">
        <ele>177.60000610352</ele>
        <time>2014-01-19T13:22:09.000Z</time>
      </trkpt>
      <trkpt lat="48.70144" lon="1.72257">
        <ele>177.60000610352</ele>
        <time>2014-01-19T13:22:16.000Z</time>
      </trkpt>
      <trkpt lat="48.70151" lon="1.72254">
        <ele>177.60000610352</ele>
        <time>2014-01-19T13:22:21.000Z</time>
      </trkpt>
      <trkpt lat="48.70153" lon="1.72254">
        <ele>177.80000305176</ele>
        <time>2014-01-19T13:22:22.000Z</time>
      </trkpt>
      <trkpt lat="48.70161" lon="1.7225">
        <ele>177.80000305176</ele>
        <time>2014-01-19T13:22:27.000Z</time>
      </trkpt>
      <trkpt lat="48.7017" lon="1.72244">
        <ele>178</ele>
        <time>2014-01-19T13:22:33.000Z</time>
      </trkpt>
      <trkpt lat="48.70171" lon="1.72242">
        <ele>178.19999694824</ele>
        <time>2014-01-19T13:22:35.000Z</time>
      </trkpt>
      <trkpt lat="48.70176" lon="1.7224">
        <ele>178.39999389648</ele>
        <time>2014-01-19T13:22:39.000Z</time>
      </trkpt>
      <trkpt lat="48.70181" lon="1.72235">
        <ele>178.80000305176</ele>
        <time>2014-01-19T13:22:43.000Z</time>
      </trkpt>
      <trkpt lat="48.70189" lon="1.7223">
        <ele>179.19999694824</ele>
        <time>2014-01-19T13:22:49.000Z</time>
      </trkpt>
      <trkpt lat="48.70193" lon="1.72227">
        <ele>179.60000610352</ele>
        <time>2014-01-19T13:22:53.000Z</time>
      </trkpt>
      <trkpt lat="48.70206" lon="1.72224">
        <ele>180.60000610352</ele>
        <time>2014-01-19T13:23:00.000Z</time>
      </trkpt>
      <trkpt lat="48.70212" lon="1.72219">
        <ele>181.19999694824</ele>
        <time>2014-01-19T13:23:06.000Z</time>
      </trkpt>
      <trkpt lat="48.70221" lon="1.72215">
        <ele>181.80000305176</ele>
        <time>2014-01-19T13:23:12.000Z</time>
      </trkpt>
      <trkpt lat="48.70238" lon="1.72202">
        <ele>183.19999694824</ele>
        <time>2014-01-19T13:23:19.000Z</time>
      </trkpt>
      <trkpt lat="48.70255" lon="1.72192">
        <ele>184.39999389648</ele>
        <time>2014-01-19T13:23:24.000Z</time>
      </trkpt>
      <trkpt lat="48.70271" lon="1.72183">
        <ele>184.60000610352</ele>
        <time>2014-01-19T13:23:29.000Z</time>
      </trkpt>
      <trkpt lat="48.70285" lon="1.72176">
        <ele>185</ele>
        <time>2014-01-19T13:23:33.000Z</time>
      </trkpt>
      <trkpt lat="48.70302" lon="1.72164">
        <ele>185.19999694824</ele>
        <time>2014-01-19T13:23:38.000Z</time>
      </trkpt>
      <trkpt lat="48.70318" lon="1.72152">
        <ele>185.39999389648</ele>
        <time>2014-01-19T13:23:44.000Z</time>
      </trkpt>
      <trkpt lat="48.70329" lon="1.72142">
        <ele>185.60000610352</ele>
        <time>2014-01-19T13:23:48.000Z</time>
      </trkpt>
      <trkpt lat="48.70352" lon="1.72126">
        <ele>185.39999389648</ele>
        <time>2014-01-19T13:23:55.000Z</time>
      </trkpt>
      <trkpt lat="48.7037" lon="1.72113">
        <ele>185.19999694824</ele>
        <time>2014-01-19T13:24:00.000Z</time>
      </trkpt>
      <trkpt lat="48.70385" lon="1.72102">
        <ele>185</ele>
        <time>2014-01-19T13:24:05.000Z</time>
      </trkpt>
      <trkpt lat="48.70401" lon="1.72093">
        <ele>185</ele>
        <time>2014-01-19T13:24:10.000Z</time>
      </trkpt>
      <trkpt lat="48.70416" lon="1.72082">
        <ele>185</ele>
        <time>2014-01-19T13:24:14.000Z</time>
      </trkpt>
      <trkpt lat="48.70437" lon="1.7207">
        <ele>185.80000305176</ele>
        <time>2014-01-19T13:24:20.000Z</time>
      </trkpt>
      <trkpt lat="48.70453" lon="1.72058">
        <ele>186.39999389648</ele>
        <time>2014-01-19T13:24:25.000Z</time>
      </trkpt>
      <trkpt lat="48.70467" lon="1.72047">
        <ele>187</ele>
        <time>2014-01-19T13:24:30.000Z</time>
      </trkpt>
      <trkpt lat="48.70482" lon="1.72037">
        <ele>187.80000305176</ele>
        <time>2014-01-19T13:24:35.000Z</time>
      </trkpt>
      <trkpt lat="48.70489" lon="1.72033">
        <ele>188.19999694824</ele>
        <time>2014-01-19T13:24:41.000Z</time>
      </trkpt>
      <trkpt lat="48.70497" lon="1.72026">
        <ele>188.60000610352</ele>
        <time>2014-01-19T13:24:48.000Z</time>
      </trkpt>
      <trkpt lat="48.70498" lon="1.72025">
        <ele>188.60000610352</ele>
        <time>2014-01-19T13:24:49.000Z</time>
      </trkpt>
      <trkpt lat="48.70505" lon="1.72019">
        <ele>188.80000305176</ele>
        <time>2014-01-19T13:24:57.000Z</time>
      </trkpt>
      <trkpt lat="48.70507" lon="1.72018">
        <ele>188.80000305176</ele>
        <time>2014-01-19T13:24:59.000Z</time>
      </trkpt>
      <trkpt lat="48.70511" lon="1.72014">
        <ele>189</ele>
        <time>2014-01-19T13:25:03.000Z</time>
      </trkpt>
      <trkpt lat="48.70517" lon="1.72008">
        <ele>189</ele>
        <time>2014-01-19T13:25:08.000Z</time>
      </trkpt>
      <trkpt lat="48.70523" lon="1.72005">
        <ele>189.19999694824</ele>
        <time>2014-01-19T13:25:13.000Z</time>
      </trkpt>
      <trkpt lat="48.70525" lon="1.72004">
        <ele>189.19999694824</ele>
        <time>2014-01-19T13:25:14.000Z</time>
      </trkpt>
      <trkpt lat="48.70531" lon="1.71996">
        <ele>189.39999389648</ele>
        <time>2014-01-19T13:25:20.000Z</time>
      </trkpt>
      <trkpt lat="48.70535" lon="1.71992">
        <ele>189.39999389648</ele>
        <time>2014-01-19T13:25:24.000Z</time>
      </trkpt>
      <trkpt lat="48.70543" lon="1.71988">
        <ele>189.19999694824</ele>
        <time>2014-01-19T13:25:30.000Z</time>
      </trkpt>
      <trkpt lat="48.70548" lon="1.71986">
        <ele>189.19999694824</ele>
        <time>2014-01-19T13:25:34.000Z</time>
      </trkpt>
      <trkpt lat="48.70554" lon="1.71982">
        <ele>189.19999694824</ele>
        <time>2014-01-19T13:25:39.000Z</time>
      </trkpt>
      <trkpt lat="48.70559" lon="1.71977">
        <ele>189.19999694824</ele>
        <time>2014-01-19T13:25:43.000Z</time>
      </trkpt>
      <trkpt lat="48.7057" lon="1.71969">
        <ele>189</ele>
        <time>2014-01-19T13:25:51.000Z</time>
      </trkpt>
      <trkpt lat="48.70578" lon="1.71962">
        <ele>188.60000610352</ele>
        <time>2014-01-19T13:25:57.000Z</time>
      </trkpt>
      <trkpt lat="48.7059" lon="1.71957">
        <ele>188.39999389648</ele>
        <time>2014-01-19T13:26:05.000Z</time>
      </trkpt>
      <trkpt lat="48.70598" lon="1.71947">
        <ele>188</ele>
        <time>2014-01-19T13:26:12.000Z</time>
      </trkpt>
      <trkpt lat="48.70604" lon="1.71943">
        <ele>187.80000305176</ele>
        <time>2014-01-19T13:26:17.000Z</time>
      </trkpt>
      <trkpt lat="48.70605" lon="1.71942">
        <ele>187.80000305176</ele>
        <time>2014-01-19T13:26:18.000Z</time>
      </trkpt>
      <trkpt lat="48.70611" lon="1.71933">
        <ele>187.80000305176</ele>
        <time>2014-01-19T13:26:25.000Z</time>
      </trkpt>
      <trkpt lat="48.70621" lon="1.71927">
        <ele>187.80000305176</ele>
        <time>2014-01-19T13:26:33.000Z</time>
      </trkpt>
      <trkpt lat="48.70629" lon="1.71922">
        <ele>188</ele>
        <time>2014-01-19T13:26:40.000Z</time>
      </trkpt>
      <trkpt lat="48.70637" lon="1.7192">
        <ele>188.19999694824</ele>
        <time>2014-01-19T13:26:47.000Z</time>
      </trkpt>
      <trkpt lat="48.70646" lon="1.71914">
        <ele>188.60000610352</ele>
        <time>2014-01-19T13:26:54.000Z</time>
      </trkpt>
      <trkpt lat="48.70657" lon="1.71907">
        <ele>188.80000305176</ele>
        <time>2014-01-19T13:27:03.000Z</time>
      </trkpt>
      <trkpt lat="48.70665" lon="1.719">
        <ele>189.19999694824</ele>
        <time>2014-01-19T13:27:11.000Z</time>
      </trkpt>
      <trkpt lat="48.70674" lon="1.71895">
        <ele>189.19999694824</ele>
        <time>2014-01-19T13:27:18.000Z</time>
      </trkpt>
      <trkpt lat="48.7068" lon="1.71893">
        <ele>189</ele>
        <time>2014-01-19T13:27:23.000Z</time>
      </trkpt>
      <trkpt lat="48.70687" lon="1.7189">
        <ele>189</ele>
        <time>2014-01-19T13:27:27.000Z</time>
      </trkpt>
      <trkpt lat="48.7069" lon="1.71888">
        <ele>189</ele>
        <time>2014-01-19T13:27:29.000Z</time>
      </trkpt>
      <trkpt lat="48.70698" lon="1.71882">
        <ele>188.80000305176</ele>
        <time>2014-01-19T13:27:36.000Z</time>
      </trkpt>
      <trkpt lat="48.70704" lon="1.71873">
        <ele>188.80000305176</ele>
        <time>2014-01-19T13:27:42.000Z</time>
      </trkpt>
      <trkpt lat="48.70704" lon="1.71871">
        <ele>188.80000305176</ele>
        <time>2014-01-19T13:27:43.000Z</time>
      </trkpt>
      <trkpt lat="48.70714" lon="1.7186">
        <ele>188.80000305176</ele>
        <time>2014-01-19T13:27:51.000Z</time>
      </trkpt>
      <trkpt lat="48.70727" lon="1.71847">
        <ele>188.60000610352</ele>
        <time>2014-01-19T13:27:56.000Z</time>
      </trkpt>
      <trkpt lat="48.70738" lon="1.71839">
        <ele>188.19999694824</ele>
        <time>2014-01-19T13:28:00.000Z</time>
      </trkpt>
      <trkpt lat="48.70753" lon="1.71831">
        <ele>187.80000305176</ele>
        <time>2014-01-19T13:28:05.000Z</time>
      </trkpt>
      <trkpt lat="48.70777" lon="1.71812">
        <ele>187</ele>
        <time>2014-01-19T13:28:13.000Z</time>
      </trkpt>
      <trkpt lat="48.7079" lon="1.718">
        <ele>186.39999389648</ele>
        <time>2014-01-19T13:28:18.000Z</time>
      </trkpt>
      <trkpt lat="48.70801" lon="1.71793">
        <ele>186</ele>
        <time>2014-01-19T13:28:22.000Z</time>
      </trkpt>
      <trkpt lat="48.70806" lon="1.71787">
        <ele>185.80000305176</ele>
        <time>2014-01-19T13:28:26.000Z</time>
      </trkpt>
      <trkpt lat="48.7081" lon="1.71778">
        <ele>185.39999389648</ele>
        <time>2014-01-19T13:28:32.000Z</time>
      </trkpt>
      <trkpt lat="48.70814" lon="1.71772">
        <ele>185.19999694824</ele>
        <time>2014-01-19T13:28:36.000Z</time>
      </trkpt>
      <trkpt lat="48.70814" lon="1.7177">
        <ele>185.19999694824</ele>
        <time>2014-01-19T13:28:40.000Z</time>
      </trkpt>
      <trkpt lat="48.70816" lon="1.71768">
        <ele>185</ele>
        <time>2014-01-19T13:28:45.000Z</time>
      </trkpt>
      <trkpt lat="48.70824" lon="1.7176">
        <ele>184.60000610352</ele>
        <time>2014-01-19T13:28:51.000Z</time>
      </trkpt>
      <trkpt lat="48.70828" lon="1.7176">
        <ele>184.39999389648</ele>
        <time>2014-01-19T13:28:56.000Z</time>
      </trkpt>
      <trkpt lat="48.70835" lon="1.71753">
        <ele>184.19999694824</ele>
        <time>2014-01-19T13:29:16.000Z</time>
      </trkpt>
      <trkpt lat="48.70843" lon="1.71747">
        <ele>184.80000305176</ele>
        <time>2014-01-19T13:29:22.000Z</time>
      </trkpt>
      <trkpt lat="48.70847" lon="1.71746">
        <ele>185</ele>
        <time>2014-01-19T13:29:25.000Z</time>
      </trkpt>
      <trkpt lat="48.70853" lon="1.7174">
        <ele>185.39999389648</ele>
        <time>2014-01-19T13:29:31.000Z</time>
      </trkpt>
      <trkpt lat="48.70855" lon="1.71737">
        <ele>185.60000610352</ele>
        <time>2014-01-19T13:29:33.000Z</time>
      </trkpt>
      <trkpt lat="48.70866" lon="1.71727">
        <ele>186.19999694824</ele>
        <time>2014-01-19T13:29:43.000Z</time>
      </trkpt>
      <trkpt lat="48.70875" lon="1.71719">
        <ele>186.60000610352</ele>
        <time>2014-01-19T13:29:51.000Z</time>
      </trkpt>
      <trkpt lat="48.70884" lon="1.71711">
        <ele>187</ele>
        <time>2014-01-19T13:29:58.000Z</time>
      </trkpt>
      <trkpt lat="48.70889" lon="1.717">
        <ele>187</ele>
        <time>2014-01-19T13:30:04.000Z</time>
      </trkpt>
      <trkpt lat="48.70895" lon="1.71696">
        <ele>187.19999694824</ele>
        <time>2014-01-19T13:30:09.000Z</time>
      </trkpt>
      <trkpt lat="48.70901" lon="1.71688">
        <ele>187.19999694824</ele>
        <time>2014-01-19T13:30:15.000Z</time>
      </trkpt>
      <trkpt lat="48.70909" lon="1.71676">
        <ele>187</ele>
        <time>2014-01-19T13:30:23.000Z</time>
      </trkpt>
      <trkpt lat="48.7092" lon="1.71668">
        <ele>187</ele>
        <time>2014-01-19T13:30:31.000Z</time>
      </trkpt>
      <trkpt lat="48.70929" lon="1.71659">
        <ele>186.80000305176</ele>
        <time>2014-01-19T13:30:38.000Z</time>
      </trkpt>
      <trkpt lat="48.70939" lon="1.7165">
        <ele>186.80000305176</ele>
        <time>2014-01-19T13:30:46.000Z</time>
      </trkpt>
      <trkpt lat="48.70947" lon="1.71643">
        <ele>186.60000610352</ele>
        <time>2014-01-19T13:30:53.000Z</time>
      </trkpt>
      <trkpt lat="48.70948" lon="1.71642">
        <ele>186.39999389648</ele>
        <time>2014-01-19T13:30:54.000Z</time>
      </trkpt>
      <trkpt lat="48.70956" lon="1.71638">
        <ele>186.19999694824</ele>
        <time>2014-01-19T13:31:00.000Z</time>
      </trkpt>
      <trkpt lat="48.70965" lon="1.71627">
        <ele>185.80000305176</ele>
        <time>2014-01-19T13:31:08.000Z</time>
      </trkpt>
      <trkpt lat="48.70973" lon="1.71622">
        <ele>185.39999389648</ele>
        <time>2014-01-19T13:31:14.000Z</time>
      </trkpt>
      <trkpt lat="48.7098" lon="1.71616">
        <ele>185</ele>
        <time>2014-01-19T13:31:20.000Z</time>
      </trkpt>
      <trkpt lat="48.70992" lon="1.71613">
        <ele>184.39999389648</ele>
        <time>2014-01-19T13:31:28.000Z</time>
      </trkpt>
      <trkpt lat="48.70994" lon="1.71613">
        <ele>184.39999389648</ele>
        <time>2014-01-19T13:31:30.000Z</time>
      </trkpt>
      <trkpt lat="48.71001" lon="1.71609">
        <ele>183.60000610352</ele>
        <time>2014-01-19T13:31:37.000Z</time>
      </trkpt>
      <trkpt lat="48.71009" lon="1.71601">
        <ele>182.19999694824</ele>
        <time>2014-01-19T13:31:43.000Z</time>
      </trkpt>
      <trkpt lat="48.7101" lon="1.716">
        <ele>182</ele>
        <time>2014-01-19T13:31:44.000Z</time>
      </trkpt>
      <trkpt lat="48.7102" lon="1.71599">
        <ele>180.39999389648</ele>
        <time>2014-01-19T13:31:50.000Z</time>
      </trkpt>
      <trkpt lat="48.71029" lon="1.71601">
        <ele>179</ele>
        <time>2014-01-19T13:31:57.000Z</time>
      </trkpt>
      <trkpt lat="48.71035" lon="1.71603">
        <ele>178.19999694824</ele>
        <time>2014-01-19T13:32:01.000Z</time>
      </trkpt>
      <trkpt lat="48.71036" lon="1.71605">
        <ele>178</ele>
        <time>2014-01-19T13:32:03.000Z</time>
      </trkpt>
      <trkpt lat="48.7104" lon="1.71611">
        <ele>178</ele>
        <time>2014-01-19T13:32:07.000Z</time>
      </trkpt>
      <trkpt lat="48.71048" lon="1.71619">
        <ele>177.19999694824</ele>
        <time>2014-01-19T13:32:15.000Z</time>
      </trkpt>
      <trkpt lat="48.71055" lon="1.71623">
        <ele>176.39999389648</ele>
        <time>2014-01-19T13:32:20.000Z</time>
      </trkpt>
      <trkpt lat="48.71061" lon="1.71627">
        <ele>175.80000305176</ele>
        <time>2014-01-19T13:32:24.000Z</time>
      </trkpt>
      <trkpt lat="48.71067" lon="1.71632">
        <ele>175.39999389648</ele>
        <time>2014-01-19T13:32:29.000Z</time>
      </trkpt>
      <trkpt lat="48.71072" lon="1.71638">
        <ele>175.19999694824</ele>
        <time>2014-01-19T13:32:32.000Z</time>
      </trkpt>
      <trkpt lat="48.71075" lon="1.71644">
        <ele>175.19999694824</ele>
        <time>2014-01-19T13:32:38.000Z</time>
      </trkpt>
      <trkpt lat="48.71081" lon="1.71649">
        <ele>174.80000305176</ele>
        <time>2014-01-19T13:32:42.000Z</time>
      </trkpt>
      <trkpt lat="48.71091" lon="1.71659">
        <ele>173.80000305176</ele>
        <time>2014-01-19T13:32:50.000Z</time>
      </trkpt>
      <trkpt lat="48.71097" lon="1.71661">
        <ele>172.80000305176</ele>
        <time>2014-01-19T13:32:57.000Z</time>
      </trkpt>
      <trkpt lat="48.71107" lon="1.71667">
        <ele>171.19999694824</ele>
        <time>2014-01-19T13:33:04.000Z</time>
      </trkpt>
      <trkpt lat="48.71118" lon="1.7168">
        <ele>170.19999694824</ele>
        <time>2014-01-19T13:33:11.000Z</time>
      </trkpt>
      <trkpt lat="48.71127" lon="1.71689">
        <ele>169.39999389648</ele>
        <time>2014-01-19T13:33:17.000Z</time>
      </trkpt>
      <trkpt lat="48.71136" lon="1.717">
        <ele>169</ele>
        <time>2014-01-19T13:33:23.000Z</time>
      </trkpt>
      <trkpt lat="48.71144" lon="1.7171">
        <ele>168.80000305176</ele>
        <time>2014-01-19T13:33:29.000Z</time>
      </trkpt>
      <trkpt lat="48.71151" lon="1.71718">
        <ele>168.19999694824</ele>
        <time>2014-01-19T13:33:34.000Z</time>
      </trkpt>
      <trkpt lat="48.71159" lon="1.71726">
        <ele>168</ele>
        <time>2014-01-19T13:33:40.000Z</time>
      </trkpt>
      <trkpt lat="48.71163" lon="1.71732">
        <ele>168.19999694824</ele>
        <time>2014-01-19T13:33:44.000Z</time>
      </trkpt>
      <trkpt lat="48.71168" lon="1.71741">
        <ele>168.60000610352</ele>
        <time>2014-01-19T13:33:50.000Z</time>
      </trkpt>
      <trkpt lat="48.71174" lon="1.7175">
        <ele>168.60000610352</ele>
        <time>2014-01-19T13:33:55.000Z</time>
      </trkpt>
      <trkpt lat="48.71174" lon="1.71758">
        <ele>168.80000305176</ele>
        <time>2014-01-19T13:33:58.000Z</time>
      </trkpt>
      <trkpt lat="48.7118" lon="1.71769">
        <ele>168.39999389648</ele>
        <time>2014-01-19T13:34:05.000Z</time>
      </trkpt>
      <trkpt lat="48.71184" lon="1.71773">
        <ele>168</ele>
        <time>2014-01-19T13:34:08.000Z</time>
      </trkpt>
      <trkpt lat="48.7119" lon="1.7178">
        <ele>167.19999694824</ele>
        <time>2014-01-19T13:34:14.000Z</time>
      </trkpt>
      <trkpt lat="48.71192" lon="1.71782">
        <ele>167</ele>
        <time>2014-01-19T13:34:16.000Z</time>
      </trkpt>
      <trkpt lat="48.71199" lon="1.71784">
        <ele>165.60000610352</ele>
        <time>2014-01-19T13:34:22.000Z</time>
      </trkpt>
      <trkpt lat="48.71208" lon="1.71789">
        <ele>164.39999389648</ele>
        <time>2014-01-19T13:34:28.000Z</time>
      </trkpt>
      <trkpt lat="48.71214" lon="1.71795">
        <ele>163.80000305176</ele>
        <time>2014-01-19T13:34:34.000Z</time>
      </trkpt>
      <trkpt lat="48.71214" lon="1.71795">
        <ele>163.60000610352</ele>
        <time>2014-01-19T13:34:35.000Z</time>
      </trkpt>
      <trkpt lat="48.71223" lon="1.71796">
        <ele>162.19999694824</ele>
        <time>2014-01-19T13:34:42.000Z</time>
      </trkpt>
      <trkpt lat="48.71229" lon="1.71794">
        <ele>161</ele>
        <time>2014-01-19T13:34:46.000Z</time>
      </trkpt>
      <trkpt lat="48.71239" lon="1.71797">
        <ele>159.39999389648</ele>
        <time>2014-01-19T13:34:54.000Z</time>
      </trkpt>
      <trkpt lat="48.71249" lon="1.71798">
        <ele>157.80000305176</ele>
        <time>2014-01-19T13:35:01.000Z</time>
      </trkpt>
      <trkpt lat="48.71252" lon="1.71799">
        <ele>157.19999694824</ele>
        <time>2014-01-19T13:35:04.000Z</time>
      </trkpt>
      <trkpt lat="48.71265" lon="1.71802">
        <ele>156.19999694824</ele>
        <time>2014-01-19T13:35:13.000Z</time>
      </trkpt>
      <trkpt lat="48.71274" lon="1.71802">
        <ele>155.19999694824</ele>
        <time>2014-01-19T13:35:20.000Z</time>
      </trkpt>
      <trkpt lat="48.71285" lon="1.71806">
        <ele>154.19999694824</ele>
        <time>2014-01-19T13:35:27.000Z</time>
      </trkpt>
      <trkpt lat="48.71295" lon="1.71811">
        <ele>153.39999389648</ele>
        <time>2014-01-19T13:35:34.000Z</time>
      </trkpt>
      <trkpt lat="48.71304" lon="1.71818">
        <ele>152.80000305176</ele>
        <time>2014-01-19T13:35:41.000Z</time>
      </trkpt>
      <trkpt lat="48.71314" lon="1.71822">
        <ele>151.80000305176</ele>
        <time>2014-01-19T13:35:47.000Z</time>
      </trkpt>
      <trkpt lat="48.71321" lon="1.71829">
        <ele>151.19999694824</ele>
        <time>2014-01-19T13:35:53.000Z</time>
      </trkpt>
      <trkpt lat="48.71324" lon="1.7183">
        <ele>151</ele>
        <time>2014-01-19T13:36:00.000Z</time>
      </trkpt>
      <trkpt lat="48.71336" lon="1.71839">
        <ele>149.80000305176</ele>
        <time>2014-01-19T13:36:25.000Z</time>
      </trkpt>
      <trkpt lat="48.71341" lon="1.71841">
        <ele>149.60000610352</ele>
        <time>2014-01-19T13:36:28.000Z</time>
      </trkpt>
      <trkpt lat="48.7135" lon="1.71844">
        <ele>149.39999389648</ele>
        <time>2014-01-19T13:36:35.000Z</time>
      </trkpt>
      <trkpt lat="48.71358" lon="1.71846">
        <ele>149</ele>
        <time>2014-01-19T13:36:41.000Z</time>
      </trkpt>
      <trkpt lat="48.71365" lon="1.71849">
        <ele>148.80000305176</ele>
        <time>2014-01-19T13:36:47.000Z</time>
      </trkpt>
      <trkpt lat="48.71374" lon="1.71849">
        <ele>148.60000610352</ele>
        <time>2014-01-19T13:36:54.000Z</time>
      </trkpt>
      <trkpt lat="48.71387" lon="1.71851">
        <ele>148.19999694824</ele>
        <time>2014-01-19T13:37:01.000Z</time>
      </trkpt>
      <trkpt lat="48.71399" lon="1.71855">
        <ele>147.80000305176</ele>
        <time>2014-01-19T13:37:05.000Z</time>
      </trkpt>
      <trkpt lat="48.71418" lon="1.71861">
        <ele>147.39999389648</ele>
        <time>2014-01-19T13:37:11.000Z</time>
      </trkpt>
      <trkpt lat="48.71438" lon="1.71867">
        <ele>147</ele>
        <time>2014-01-19T13:37:17.000Z</time>
      </trkpt>
      <trkpt lat="48.71457" lon="1.7187">
        <ele>146.80000305176</ele>
        <time>2014-01-19T13:37:22.000Z</time>
      </trkpt>
      <trkpt lat="48.71475" lon="1.71874">
        <ele>146.39999389648</ele>
        <time>2014-01-19T13:37:27.000Z</time>
      </trkpt>
      <trkpt lat="48.71494" lon="1.71877">
        <ele>146</ele>
        <time>2014-01-19T13:37:33.000Z</time>
      </trkpt>
      <trkpt lat="48.71506" lon="1.71879">
        <ele>145.60000610352</ele>
        <time>2014-01-19T13:37:39.000Z</time>
      </trkpt>
      <trkpt lat="48.71513" lon="1.7188">
        <ele>145.39999389648</ele>
        <time>2014-01-19T13:37:44.000Z</time>
      </trkpt>
      <trkpt lat="48.71521" lon="1.71881">
        <ele>145</ele>
        <time>2014-01-19T13:37:49.000Z</time>
      </trkpt>
      <trkpt lat="48.71526" lon="1.71882">
        <ele>144.80000305176</ele>
        <time>2014-01-19T13:37:54.000Z</time>
      </trkpt>
      <trkpt lat="48.71532" lon="1.71882">
        <ele>144.60000610352</ele>
        <time>2014-01-19T13:37:58.000Z</time>
      </trkpt>
      <trkpt lat="48.71538" lon="1.71885">
        <ele>144.19999694824</ele>
        <time>2014-01-19T13:38:03.000Z</time>
      </trkpt>
      <trkpt lat="48.71548" lon="1.71889">
        <ele>143.80000305176</ele>
        <time>2014-01-19T13:38:10.000Z</time>
      </trkpt>
      <trkpt lat="48.7156" lon="1.71891">
        <ele>143.19999694824</ele>
        <time>2014-01-19T13:38:18.000Z</time>
      </trkpt>
      <trkpt lat="48.71569" lon="1.7189">
        <ele>142.80000305176</ele>
        <time>2014-01-19T13:38:25.000Z</time>
      </trkpt>
      <trkpt lat="48.7157" lon="1.7189">
        <ele>142.80000305176</ele>
        <time>2014-01-19T13:38:26.000Z</time>
      </trkpt>
      <trkpt lat="48.71578" lon="1.71891">
        <ele>142.60000610352</ele>
        <time>2014-01-19T13:38:31.000Z</time>
      </trkpt>
      <trkpt lat="48.7159" lon="1.71894">
        <ele>142</ele>
        <time>2014-01-19T13:38:39.000Z</time>
      </trkpt>
      <trkpt lat="48.71592" lon="1.71894">
        <ele>142</ele>
        <time>2014-01-19T13:38:40.000Z</time>
      </trkpt>
      <trkpt lat="48.71603" lon="1.71895">
        <ele>141.80000305176</ele>
        <time>2014-01-19T13:38:48.000Z</time>
      </trkpt>
      <trkpt lat="48.71611" lon="1.71898">
        <ele>141.39999389648</ele>
        <time>2014-01-19T13:38:53.000Z</time>
      </trkpt>
      <trkpt lat="48.71621" lon="1.71901">
        <ele>141</ele>
        <time>2014-01-19T13:39:01.000Z</time>
      </trkpt>
      <trkpt lat="48.71632" lon="1.71906">
        <ele>140.60000610352</ele>
        <time>2014-01-19T13:39:07.000Z</time>
      </trkpt>
      <trkpt lat="48.71638" lon="1.7191">
        <ele>140.19999694824</ele>
        <time>2014-01-19T13:39:13.000Z</time>
      </trkpt>
      <trkpt lat="48.71648" lon="1.71915">
        <ele>139.80000305176</ele>
        <time>2014-01-19T13:39:20.000Z</time>
      </trkpt>
      <trkpt lat="48.71653" lon="1.71919">
        <ele>139.39999389648</ele>
        <time>2014-01-19T13:39:25.000Z</time>
      </trkpt>
      <trkpt lat="48.71661" lon="1.71924">
        <ele>138.80000305176</ele>
        <time>2014-01-19T13:39:31.000Z</time>
      </trkpt>
      <trkpt lat="48.7167" lon="1.71927">
        <ele>138.39999389648</ele>
        <time>2014-01-19T13:39:37.000Z</time>
      </trkpt>
      <trkpt lat="48.71679" lon="1.71933">
        <ele>137.80000305176</ele>
        <time>2014-01-19T13:39:44.000Z</time>
      </trkpt>
      <trkpt lat="48.71681" lon="1.71935">
        <ele>137.60000610352</ele>
        <time>2014-01-19T13:39:45.000Z</time>
      </trkpt>
      <trkpt lat="48.71688" lon="1.71936">
        <ele>137.39999389648</ele>
        <time>2014-01-19T13:39:49.000Z</time>
      </trkpt>
      <trkpt lat="48.71704" lon="1.71947">
        <ele>136.39999389648</ele>
        <time>2014-01-19T13:39:55.000Z</time>
      </trkpt>
      <trkpt lat="48.71713" lon="1.71952">
        <ele>135.80000305176</ele>
        <time>2014-01-19T13:39:58.000Z</time>
      </trkpt>
      <trkpt lat="48.71729" lon="1.71962">
        <ele>135</ele>
        <time>2014-01-19T13:40:03.000Z</time>
      </trkpt>
      <trkpt lat="48.71749" lon="1.71973">
        <ele>134</ele>
        <time>2014-01-19T13:40:09.000Z</time>
      </trkpt>
      <trkpt lat="48.71764" lon="1.71984">
        <ele>134</ele>
        <time>2014-01-19T13:40:14.000Z</time>
      </trkpt>
      <trkpt lat="48.71783" lon="1.71997">
        <ele>134</ele>
        <time>2014-01-19T13:40:20.000Z</time>
      </trkpt>
      <trkpt lat="48.71804" lon="1.72008">
        <ele>134</ele>
        <time>2014-01-19T13:40:26.000Z</time>
      </trkpt>
      <trkpt lat="48.71818" lon="1.72017">
        <ele>134</ele>
        <time>2014-01-19T13:40:31.000Z</time>
      </trkpt>
      <trkpt lat="48.71835" lon="1.72027">
        <ele>134</ele>
        <time>2014-01-19T13:40:37.000Z</time>
      </trkpt>
      <trkpt lat="48.71853" lon="1.72038">
        <ele>133.19999694824</ele>
        <time>2014-01-19T13:40:43.000Z</time>
      </trkpt>
      <trkpt lat="48.71866" lon="1.72042">
        <ele>132.80000305176</ele>
        <time>2014-01-19T13:40:49.000Z</time>
      </trkpt>
      <trkpt lat="48.71875" lon="1.72045">
        <ele>132.39999389648</ele>
        <time>2014-01-19T13:40:56.000Z</time>
      </trkpt>
      <trkpt lat="48.71879" lon="1.72048">
        <ele>132.19999694824</ele>
        <time>2014-01-19T13:40:59.000Z</time>
      </trkpt>
      <trkpt lat="48.71887" lon="1.72051">
        <ele>132</ele>
        <time>2014-01-19T13:41:04.000Z</time>
      </trkpt>
      <trkpt lat="48.71896" lon="1.72055">
        <ele>131.80000305176</ele>
        <time>2014-01-19T13:41:11.000Z</time>
      </trkpt>
      <trkpt lat="48.71903" lon="1.72059">
        <ele>131.60000610352</ele>
        <time>2014-01-19T13:41:16.000Z</time>
      </trkpt>
      <trkpt lat="48.71906" lon="1.72062">
        <ele>131.39999389648</ele>
        <time>2014-01-19T13:41:19.000Z</time>
      </trkpt>
      <trkpt lat="48.71914" lon="1.72066">
        <ele>131.19999694824</ele>
        <time>2014-01-19T13:41:25.000Z</time>
      </trkpt>
      <trkpt lat="48.71925" lon="1.72071">
        <ele>131.19999694824</ele>
        <time>2014-01-19T13:41:34.000Z</time>
      </trkpt>
      <trkpt lat="48.71935" lon="1.72075">
        <ele>131.39999389648</ele>
        <time>2014-01-19T13:41:42.000Z</time>
      </trkpt>
      <trkpt lat="48.71937" lon="1.72077">
        <ele>131.39999389648</ele>
        <time>2014-01-19T13:41:44.000Z</time>
      </trkpt>
      <trkpt lat="48.71941" lon="1.72078">
        <ele>131.39999389648</ele>
        <time>2014-01-19T13:41:48.000Z</time>
      </trkpt>
      <trkpt lat="48.71955" lon="1.72089">
        <ele>131.39999389648</ele>
        <time>2014-01-19T13:42:00.000Z</time>
      </trkpt>
      <trkpt lat="48.71964" lon="1.72095">
        <ele>131.60000610352</ele>
        <time>2014-01-19T13:42:09.000Z</time>
      </trkpt>
      <trkpt lat="48.71974" lon="1.72101">
        <ele>131.80000305176</ele>
        <time>2014-01-19T13:42:18.000Z</time>
      </trkpt>
      <trkpt lat="48.71981" lon="1.72105">
        <ele>131.80000305176</ele>
        <time>2014-01-19T13:42:24.000Z</time>
      </trkpt>
      <trkpt lat="48.7199" lon="1.72109">
        <ele>132</ele>
        <time>2014-01-19T13:42:33.000Z</time>
      </trkpt>
      <trkpt lat="48.71999" lon="1.72116">
        <ele>132</ele>
        <time>2014-01-19T13:42:41.000Z</time>
      </trkpt>
      <trkpt lat="48.72009" lon="1.72125">
        <ele>131.60000610352</ele>
        <time>2014-01-19T13:42:50.000Z</time>
      </trkpt>
      <trkpt lat="48.72018" lon="1.72131">
        <ele>131.19999694824</ele>
        <time>2014-01-19T13:42:57.000Z</time>
      </trkpt>
      <trkpt lat="48.72026" lon="1.72134">
        <ele>130.80000305176</ele>
        <time>2014-01-19T13:43:03.000Z</time>
      </trkpt>
      <trkpt lat="48.72037" lon="1.72141">
        <ele>130</ele>
        <time>2014-01-19T13:43:12.000Z</time>
      </trkpt>
      <trkpt lat="48.72044" lon="1.72144">
        <ele>129.60000610352</ele>
        <time>2014-01-19T13:43:17.000Z</time>
      </trkpt>
      <trkpt lat="48.72051" lon="1.72148">
        <ele>129</ele>
        <time>2014-01-19T13:43:23.000Z</time>
      </trkpt>
      <trkpt lat="48.72054" lon="1.72147">
        <ele>128.80000305176</ele>
        <time>2014-01-19T13:43:26.000Z</time>
      </trkpt>
      <trkpt lat="48.72056" lon="1.72147">
        <ele>128.80000305176</ele>
        <time>2014-01-19T13:43:30.000Z</time>
      </trkpt>
      <trkpt lat="48.72056" lon="1.72144">
        <ele>128.80000305176</ele>
        <time>2014-01-19T13:43:44.000Z</time>
      </trkpt>
      <trkpt lat="48.72055" lon="1.72136">
        <ele>129.19999694824</ele>
        <time>2014-01-19T13:43:49.000Z</time>
      </trkpt>
      <trkpt lat="48.72052" lon="1.7213">
        <ele>129.60000610352</ele>
        <time>2014-01-19T13:43:55.000Z</time>
      </trkpt>
      <trkpt lat="48.72047" lon="1.72122">
        <ele>130.19999694824</ele>
        <time>2014-01-19T13:44:01.000Z</time>
      </trkpt>
      <trkpt lat="48.7204" lon="1.72109">
        <ele>130.80000305176</ele>
        <time>2014-01-19T13:44:09.000Z</time>
      </trkpt>
      <trkpt lat="48.72035" lon="1.72098">
        <ele>131.19999694824</ele>
        <time>2014-01-19T13:44:16.000Z</time>
      </trkpt>
      <trkpt lat="48.72032" lon="1.72091">
        <ele>131.39999389648</ele>
        <time>2014-01-19T13:44:20.000Z</time>
      </trkpt>
      <trkpt lat="48.72029" lon="1.72087">
        <ele>131.60000610352</ele>
        <time>2014-01-19T13:44:23.000Z</time>
      </trkpt>
      <trkpt lat="48.72026" lon="1.72081">
        <ele>131.80000305176</ele>
        <time>2014-01-19T13:44:27.000Z</time>
      </trkpt>
      <trkpt lat="48.7202" lon="1.7207">
        <ele>132</ele>
        <time>2014-01-19T13:44:35.000Z</time>
      </trkpt>
      <trkpt lat="48.72015" lon="1.72063">
        <ele>132.19999694824</ele>
        <time>2014-01-19T13:44:41.000Z</time>
      </trkpt>
      <trkpt lat="48.72014" lon="1.7206">
        <ele>132.39999389648</ele>
        <time>2014-01-19T13:44:43.000Z</time>
      </trkpt>
      <trkpt lat="48.72007" lon="1.7205">
        <ele>132.60000610352</ele>
        <time>2014-01-19T13:44:51.000Z</time>
      </trkpt>
      <trkpt lat="48.72003" lon="1.72043">
        <ele>133</ele>
        <time>2014-01-19T13:44:56.000Z</time>
      </trkpt>
      <trkpt lat="48.71995" lon="1.72028">
        <ele>133.19999694824</ele>
        <time>2014-01-19T13:45:05.000Z</time>
      </trkpt>
      <trkpt lat="48.71994" lon="1.72026">
        <ele>133.19999694824</ele>
        <time>2014-01-19T13:45:06.000Z</time>
      </trkpt>
      <trkpt lat="48.71989" lon="1.72013">
        <ele>133.39999389648</ele>
        <time>2014-01-19T13:45:14.000Z</time>
      </trkpt>
      <trkpt lat="48.71983" lon="1.71998">
        <ele>133.60000610352</ele>
        <time>2014-01-19T13:45:23.000Z</time>
      </trkpt>
      <trkpt lat="48.71977" lon="1.71989">
        <ele>133.60000610352</ele>
        <time>2014-01-19T13:45:30.000Z</time>
      </trkpt>
      <trkpt lat="48.7197" lon="1.71981">
        <ele>133.60000610352</ele>
        <time>2014-01-19T13:45:37.000Z</time>
      </trkpt>
      <trkpt lat="48.71966" lon="1.71971">
        <ele>133.80000305176</ele>
        <time>2014-01-19T13:45:43.000Z</time>
      </trkpt>
      <trkpt lat="48.71958" lon="1.71955">
        <ele>134</ele>
        <time>2014-01-19T13:45:52.000Z</time>
      </trkpt>
      <trkpt lat="48.71951" lon="1.71943">
        <ele>134.39999389648</ele>
        <time>2014-01-19T13:45:59.000Z</time>
      </trkpt>
      <trkpt lat="48.71946" lon="1.71934">
        <ele>134.80000305176</ele>
        <time>2014-01-19T13:46:05.000Z</time>
      </trkpt>
      <trkpt lat="48.71939" lon="1.71921">
        <ele>135.39999389648</ele>
        <time>2014-01-19T13:46:13.000Z</time>
      </trkpt>
      <trkpt lat="48.71933" lon="1.71911">
        <ele>135.60000610352</ele>
        <time>2014-01-19T13:46:21.000Z</time>
      </trkpt>
      <trkpt lat="48.71924" lon="1.71899">
        <ele>135.60000610352</ele>
        <time>2014-01-19T13:46:29.000Z</time>
      </trkpt>
      <trkpt lat="48.71915" lon="1.71884">
        <ele>135.60000610352</ele>
        <time>2014-01-19T13:46:38.000Z</time>
      </trkpt>
      <trkpt lat="48.71908" lon="1.71874">
        <ele>135.60000610352</ele>
        <time>2014-01-19T13:46:45.000Z</time>
      </trkpt>
      <trkpt lat="48.71904" lon="1.71866">
        <ele>135.80000305176</ele>
        <time>2014-01-19T13:46:50.000Z</time>
      </trkpt>
      <trkpt lat="48.71897" lon="1.71857">
        <ele>135.80000305176</ele>
        <time>2014-01-19T13:46:57.000Z</time>
      </trkpt>
      <trkpt lat="48.71892" lon="1.71849">
        <ele>135.80000305176</ele>
        <time>2014-01-19T13:47:03.000Z</time>
      </trkpt>
      <trkpt lat="48.71885" lon="1.71839">
        <ele>135.80000305176</ele>
        <time>2014-01-19T13:47:10.000Z</time>
      </trkpt>
      <trkpt lat="48.71874" lon="1.71821">
        <ele>136</ele>
        <time>2014-01-19T13:47:21.000Z</time>
      </trkpt>
      <trkpt lat="48.71865" lon="1.71809">
        <ele>136.19999694824</ele>
        <time>2014-01-19T13:47:30.000Z</time>
      </trkpt>
      <trkpt lat="48.71862" lon="1.71804">
        <ele>136.39999389648</ele>
        <time>2014-01-19T13:47:34.000Z</time>
      </trkpt>
      <trkpt lat="48.71858" lon="1.71799">
        <ele>136.39999389648</ele>
        <time>2014-01-19T13:47:38.000Z</time>
      </trkpt>
      <trkpt lat="48.7185" lon="1.71787">
        <ele>136.60000610352</ele>
        <time>2014-01-19T13:47:47.000Z</time>
      </trkpt>
      <trkpt lat="48.71843" lon="1.71781">
        <ele>136.80000305176</ele>
        <time>2014-01-19T13:47:53.000Z</time>
      </trkpt>
      <trkpt lat="48.71839" lon="1.71772">
        <ele>136.80000305176</ele>
        <time>2014-01-19T13:47:59.000Z</time>
      </trkpt>
      <trkpt lat="48.71832" lon="1.71763">
        <ele>137</ele>
        <time>2014-01-19T13:48:06.000Z</time>
      </trkpt>
      <trkpt lat="48.71823" lon="1.71751">
        <ele>137.19999694824</ele>
        <time>2014-01-19T13:48:14.000Z</time>
      </trkpt>
      <trkpt lat="48.71819" lon="1.71742">
        <ele>137.19999694824</ele>
        <time>2014-01-19T13:48:19.000Z</time>
      </trkpt>
      <trkpt lat="48.71811" lon="1.71733">
        <ele>137.19999694824</ele>
        <time>2014-01-19T13:48:26.000Z</time>
      </trkpt>
      <trkpt lat="48.71803" lon="1.71721">
        <ele>137.19999694824</ele>
        <time>2014-01-19T13:48:35.000Z</time>
      </trkpt>
      <trkpt lat="48.71793" lon="1.71707">
        <ele>137.19999694824</ele>
        <time>2014-01-19T13:48:45.000Z</time>
      </trkpt>
      <trkpt lat="48.71785" lon="1.71693">
        <ele>137.39999389648</ele>
        <time>2014-01-19T13:48:54.000Z</time>
      </trkpt>
      <trkpt lat="48.71778" lon="1.71686">
        <ele>137.39999389648</ele>
        <time>2014-01-19T13:49:00.000Z</time>
      </trkpt>
      <trkpt lat="48.7177" lon="1.71675">
        <ele>137.60000610352</ele>
        <time>2014-01-19T13:49:07.000Z</time>
      </trkpt>
      <trkpt lat="48.71764" lon="1.71668">
        <ele>137.60000610352</ele>
        <time>2014-01-19T13:49:12.000Z</time>
      </trkpt>
      <trkpt lat="48.71762" lon="1.71665">
        <ele>137.80000305176</ele>
        <time>2014-01-19T13:49:14.000Z</time>
      </trkpt>
      <trkpt lat="48.71755" lon="1.71657">
        <ele>138</ele>
        <time>2014-01-19T13:49:20.000Z</time>
      </trkpt>
      <trkpt lat="48.71747" lon="1.71644">
        <ele>138.39999389648</ele>
        <time>2014-01-19T13:49:29.000Z</time>
      </trkpt>
      <trkpt lat="48.71739" lon="1.71633">
        <ele>138.39999389648</ele>
        <time>2014-01-19T13:49:36.000Z</time>
      </trkpt>
      <trkpt lat="48.71732" lon="1.71622">
        <ele>138.60000610352</ele>
        <time>2014-01-19T13:49:43.000Z</time>
      </trkpt>
      <trkpt lat="48.71721" lon="1.71605">
        <ele>138.60000610352</ele>
        <time>2014-01-19T13:49:53.000Z</time>
      </trkpt>
      <trkpt lat="48.71713" lon="1.71594">
        <ele>138.39999389648</ele>
        <time>2014-01-19T13:50:01.000Z</time>
      </trkpt>
      <trkpt lat="48.71705" lon="1.71582">
        <ele>138.39999389648</ele>
        <time>2014-01-19T13:50:09.000Z</time>
      </trkpt>
      <trkpt lat="48.71695" lon="1.71567">
        <ele>137.80000305176</ele>
        <time>2014-01-19T13:50:19.000Z</time>
      </trkpt>
      <trkpt lat="48.71686" lon="1.71555">
        <ele>137.60000610352</ele>
        <time>2014-01-19T13:50:27.000Z</time>
      </trkpt>
      <trkpt lat="48.71675" lon="1.71539">
        <ele>137.19999694824</ele>
        <time>2014-01-19T13:50:37.000Z</time>
      </trkpt>
      <trkpt lat="48.71667" lon="1.71529">
        <ele>137</ele>
        <time>2014-01-19T13:50:44.000Z</time>
      </trkpt>
      <trkpt lat="48.71658" lon="1.71515">
        <ele>137</ele>
        <time>2014-01-19T13:50:52.000Z</time>
      </trkpt>
      <trkpt lat="48.71651" lon="1.71506">
        <ele>137.19999694824</ele>
        <time>2014-01-19T13:50:58.000Z</time>
      </trkpt>
      <trkpt lat="48.71642" lon="1.71493">
        <ele>137</ele>
        <time>2014-01-19T13:51:06.000Z</time>
      </trkpt>
      <trkpt lat="48.71634" lon="1.71481">
        <ele>136.60000610352</ele>
        <time>2014-01-19T13:51:14.000Z</time>
      </trkpt>
      <trkpt lat="48.71622" lon="1.71463">
        <ele>136.19999694824</ele>
        <time>2014-01-19T13:51:26.000Z</time>
      </trkpt>
      <trkpt lat="48.71612" lon="1.7145">
        <ele>136</ele>
        <time>2014-01-19T13:51:35.000Z</time>
      </trkpt>
      <trkpt lat="48.71605" lon="1.71442">
        <ele>136</ele>
        <time>2014-01-19T13:51:41.000Z</time>
      </trkpt>
      <trkpt lat="48.71599" lon="1.71432">
        <ele>135.80000305176</ele>
        <time>2014-01-19T13:51:48.000Z</time>
      </trkpt>
      <trkpt lat="48.71592" lon="1.71422">
        <ele>135.80000305176</ele>
        <time>2014-01-19T13:51:54.000Z</time>
      </trkpt>
      <trkpt lat="48.71585" lon="1.71412">
        <ele>135.80000305176</ele>
        <time>2014-01-19T13:52:00.000Z</time>
      </trkpt>
      <trkpt lat="48.71577" lon="1.71399">
        <ele>135.39999389648</ele>
        <time>2014-01-19T13:52:07.000Z</time>
      </trkpt>
      <trkpt lat="48.7157" lon="1.71391">
        <ele>135</ele>
        <time>2014-01-19T13:52:13.000Z</time>
      </trkpt>
      <trkpt lat="48.71563" lon="1.71383">
        <ele>134.60000610352</ele>
        <time>2014-01-19T13:52:20.000Z</time>
      </trkpt>
      <trkpt lat="48.71553" lon="1.71385">
        <ele>134.80000305176</ele>
        <time>2014-01-19T13:52:27.000Z</time>
      </trkpt>
      <trkpt lat="48.71542" lon="1.7139">
        <ele>134.80000305176</ele>
        <time>2014-01-19T13:52:35.000Z</time>
      </trkpt>
      <trkpt lat="48.71529" lon="1.71394">
        <ele>135</ele>
        <time>2014-01-19T13:52:44.000Z</time>
      </trkpt>
      <trkpt lat="48.71516" lon="1.714">
        <ele>135.19999694824</ele>
        <time>2014-01-19T13:52:54.000Z</time>
      </trkpt>
      <trkpt lat="48.71507" lon="1.71403">
        <ele>135.39999389648</ele>
        <time>2014-01-19T13:53:00.000Z</time>
      </trkpt>
      <trkpt lat="48.71498" lon="1.71409">
        <ele>135.80000305176</ele>
        <time>2014-01-19T13:53:06.000Z</time>
      </trkpt>
      <trkpt lat="48.71487" lon="1.71413">
        <ele>136.19999694824</ele>
        <time>2014-01-19T13:53:13.000Z</time>
      </trkpt>
      <trkpt lat="48.71475" lon="1.71417">
        <ele>136.60000610352</ele>
        <time>2014-01-19T13:53:22.000Z</time>
      </trkpt>
      <trkpt lat="48.71462" lon="1.7142">
        <ele>137</ele>
        <time>2014-01-19T13:53:32.000Z</time>
      </trkpt>
      <trkpt lat="48.7145" lon="1.71424">
        <ele>137.39999389648</ele>
        <time>2014-01-19T13:53:41.000Z</time>
      </trkpt>
      <trkpt lat="48.71436" lon="1.71429">
        <ele>137.80000305176</ele>
        <time>2014-01-19T13:53:51.000Z</time>
      </trkpt>
      <trkpt lat="48.71422" lon="1.71434">
        <ele>138.19999694824</ele>
        <time>2014-01-19T13:54:01.000Z</time>
      </trkpt>
      <trkpt lat="48.71409" lon="1.71439">
        <ele>138.80000305176</ele>
        <time>2014-01-19T13:54:10.000Z</time>
      </trkpt>
      <trkpt lat="48.71399" lon="1.71443">
        <ele>139.19999694824</ele>
        <time>2014-01-19T13:54:17.000Z</time>
      </trkpt>
      <trkpt lat="48.71394" lon="1.71447">
        <ele>139.39999389648</ele>
        <time>2014-01-19T13:54:21.000Z</time>
      </trkpt>
      <trkpt lat="48.71386" lon="1.71454">
        <ele>139.80000305176</ele>
        <time>2014-01-19T13:54:27.000Z</time>
      </trkpt>
      <trkpt lat="48.71372" lon="1.71457">
        <ele>140.39999389648</ele>
        <time>2014-01-19T13:54:38.000Z</time>
      </trkpt>
      <trkpt lat="48.71361" lon="1.71457">
        <ele>140.60000610352</ele>
        <time>2014-01-19T13:54:46.000Z</time>
      </trkpt>
      <trkpt lat="48.71351" lon="1.71462">
        <ele>141</ele>
        <time>2014-01-19T13:54:54.000Z</time>
      </trkpt>
      <trkpt lat="48.71339" lon="1.71464">
        <ele>141.39999389648</ele>
        <time>2014-01-19T13:55:02.000Z</time>
      </trkpt>
      <trkpt lat="48.71332" lon="1.71469">
        <ele>141.60000610352</ele>
        <time>2014-01-19T13:55:06.000Z</time>
      </trkpt>
      <trkpt lat="48.71323" lon="1.71474">
        <ele>142.19999694824</ele>
        <time>2014-01-19T13:55:12.000Z</time>
      </trkpt>
      <trkpt lat="48.7132" lon="1.71476">
        <ele>142.39999389648</ele>
        <time>2014-01-19T13:55:15.000Z</time>
      </trkpt>
      <trkpt lat="48.71316" lon="1.71489">
        <ele>142.80000305176</ele>
        <time>2014-01-19T13:55:22.000Z</time>
      </trkpt>
      <trkpt lat="48.71316" lon="1.71499">
        <ele>142.80000305176</ele>
        <time>2014-01-19T13:55:27.000Z</time>
      </trkpt>
      <trkpt lat="48.71317" lon="1.71515">
        <ele>143</ele>
        <time>2014-01-19T13:55:34.000Z</time>
      </trkpt>
      <trkpt lat="48.71317" lon="1.71529">
        <ele>143.19999694824</ele>
        <time>2014-01-19T13:55:40.000Z</time>
      </trkpt>
      <trkpt lat="48.71318" lon="1.7154">
        <ele>143.39999389648</ele>
        <time>2014-01-19T13:55:46.000Z</time>
      </trkpt>
      <trkpt lat="48.71318" lon="1.71542">
        <ele>143.39999389648</ele>
        <time>2014-01-19T13:55:47.000Z</time>
      </trkpt>
      <trkpt lat="48.71319" lon="1.71549">
        <ele>143.39999389648</ele>
        <time>2014-01-19T13:55:50.000Z</time>
      </trkpt>
      <trkpt lat="48.7132" lon="1.71561">
        <ele>143.60000610352</ele>
        <time>2014-01-19T13:55:55.000Z</time>
      </trkpt>
      <trkpt lat="48.7132" lon="1.71564">
        <ele>143.60000610352</ele>
        <time>2014-01-19T13:55:56.000Z</time>
      </trkpt>
      <trkpt lat="48.7132" lon="1.71577">
        <ele>143.60000610352</ele>
        <time>2014-01-19T13:56:02.000Z</time>
      </trkpt>
      <trkpt lat="48.7132" lon="1.71593">
        <ele>144.19999694824</ele>
        <time>2014-01-19T13:56:10.000Z</time>
      </trkpt>
      <trkpt lat="48.71319" lon="1.71612">
        <ele>144.80000305176</ele>
        <time>2014-01-19T13:56:19.000Z</time>
      </trkpt>
      <trkpt lat="48.7132" lon="1.71623">
        <ele>145.19999694824</ele>
        <time>2014-01-19T13:56:24.000Z</time>
      </trkpt>
      <trkpt lat="48.71321" lon="1.71627">
        <ele>145.19999694824</ele>
        <time>2014-01-19T13:56:26.000Z</time>
      </trkpt>
      <trkpt lat="48.7132" lon="1.71639">
        <ele>145.80000305176</ele>
        <time>2014-01-19T13:56:32.000Z</time>
      </trkpt>
      <trkpt lat="48.71319" lon="1.71653">
        <ele>146.19999694824</ele>
        <time>2014-01-19T13:56:40.000Z</time>
      </trkpt>
      <trkpt lat="48.71318" lon="1.71668">
        <ele>146.80000305176</ele>
        <time>2014-01-19T13:56:48.000Z</time>
      </trkpt>
      <trkpt lat="48.71319" lon="1.71674">
        <ele>146.80000305176</ele>
        <time>2014-01-19T13:56:51.000Z</time>
      </trkpt>
      <trkpt lat="48.71319" lon="1.71676">
        <ele>146.80000305176</ele>
        <time>2014-01-19T13:56:54.000Z</time>
      </trkpt>
      <trkpt lat="48.71319" lon="1.71686">
        <ele>147</ele>
        <time>2014-01-19T13:56:57.000Z</time>
      </trkpt>
      <trkpt lat="48.7132" lon="1.71701">
        <ele>147.19999694824</ele>
        <time>2014-01-19T13:57:03.000Z</time>
      </trkpt>
      <trkpt lat="48.71319" lon="1.71715">
        <ele>147.60000610352</ele>
        <time>2014-01-19T13:57:10.000Z</time>
      </trkpt>
      <trkpt lat="48.7132" lon="1.71726">
        <ele>147.80000305176</ele>
        <time>2014-01-19T13:57:15.000Z</time>
      </trkpt>
      <trkpt lat="48.7132" lon="1.71737">
        <ele>148</ele>
        <time>2014-01-19T13:57:20.000Z</time>
      </trkpt>
      <trkpt lat="48.71321" lon="1.71746">
        <ele>148</ele>
        <time>2014-01-19T13:57:24.000Z</time>
      </trkpt>
      <trkpt lat="48.71323" lon="1.71754">
        <ele>148</ele>
        <time>2014-01-19T13:57:28.000Z</time>
      </trkpt>
      <trkpt lat="48.71322" lon="1.71772">
        <ele>148.80000305176</ele>
        <time>2014-01-19T13:57:37.000Z</time>
      </trkpt>
      <trkpt lat="48.71322" lon="1.71778">
        <ele>149</ele>
        <time>2014-01-19T13:57:40.000Z</time>
      </trkpt>
      <trkpt lat="48.71324" lon="1.71791">
        <ele>149.39999389648</ele>
        <time>2014-01-19T13:57:46.000Z</time>
      </trkpt>
      <trkpt lat="48.71326" lon="1.71811">
        <ele>150</ele>
        <time>2014-01-19T13:57:56.000Z</time>
      </trkpt>
      <trkpt lat="48.71326" lon="1.71823">
        <ele>150.39999389648</ele>
        <time>2014-01-19T13:58:02.000Z</time>
      </trkpt>
      <trkpt lat="48.71328" lon="1.71841">
        <ele>150.60000610352</ele>
        <time>2014-01-19T13:58:10.000Z</time>
      </trkpt>
      <trkpt lat="48.71327" lon="1.71844">
        <ele>150.60000610352</ele>
        <time>2014-01-19T13:58:11.000Z</time>
      </trkpt>
      <trkpt lat="48.71325" lon="1.71861">
        <ele>150.60000610352</ele>
        <time>2014-01-19T13:58:18.000Z</time>
      </trkpt>
      <trkpt lat="48.71323" lon="1.71875">
        <ele>150.60000610352</ele>
        <time>2014-01-19T13:58:24.000Z</time>
      </trkpt>
      <trkpt lat="48.7132" lon="1.71886">
        <ele>150.80000305176</ele>
        <time>2014-01-19T13:58:30.000Z</time>
      </trkpt>
      <trkpt lat="48.71319" lon="1.719">
        <ele>150.80000305176</ele>
        <time>2014-01-19T13:58:35.000Z</time>
      </trkpt>
      <trkpt lat="48.71318" lon="1.71909">
        <ele>150.80000305176</ele>
        <time>2014-01-19T13:58:39.000Z</time>
      </trkpt>
      <trkpt lat="48.71314" lon="1.71927">
        <ele>150.80000305176</ele>
        <time>2014-01-19T13:58:46.000Z</time>
      </trkpt>
      <trkpt lat="48.71314" lon="1.71947">
        <ele>150.39999389648</ele>
        <time>2014-01-19T13:58:54.000Z</time>
      </trkpt>
      <trkpt lat="48.71314" lon="1.71949">
        <ele>150.39999389648</ele>
        <time>2014-01-19T13:58:55.000Z</time>
      </trkpt>
      <trkpt lat="48.71316" lon="1.71958">
        <ele>149.80000305176</ele>
        <time>2014-01-19T13:59:02.000Z</time>
      </trkpt>
      <trkpt lat="48.71318" lon="1.71959">
        <ele>149.60000610352</ele>
        <time>2014-01-19T13:59:07.000Z</time>
      </trkpt>
      <trkpt lat="48.71323" lon="1.71961">
        <ele>149</ele>
        <time>2014-01-19T13:59:13.000Z</time>
      </trkpt>
      <trkpt lat="48.71325" lon="1.71962">
        <ele>148.80000305176</ele>
        <time>2014-01-19T13:59:14.000Z</time>
      </trkpt>
      <trkpt lat="48.7133" lon="1.71968">
        <ele>148.19999694824</ele>
        <time>2014-01-19T13:59:19.000Z</time>
      </trkpt>
      <trkpt lat="48.71335" lon="1.71975">
        <ele>147.60000610352</ele>
        <time>2014-01-19T13:59:23.000Z</time>
      </trkpt>
      <trkpt lat="48.71339" lon="1.71983">
        <ele>147.19999694824</ele>
        <time>2014-01-19T13:59:28.000Z</time>
      </trkpt>
      <trkpt lat="48.7134" lon="1.71985">
        <ele>147.19999694824</ele>
        <time>2014-01-19T13:59:29.000Z</time>
      </trkpt>
      <trkpt lat="48.71348" lon="1.71992">
        <ele>146.80000305176</ele>
        <time>2014-01-19T13:59:35.000Z</time>
      </trkpt>
      <trkpt lat="48.71358" lon="1.72001">
        <ele>146.19999694824</ele>
        <time>2014-01-19T13:59:42.000Z</time>
      </trkpt>
      <trkpt lat="48.71359" lon="1.72002">
        <ele>146.19999694824</ele>
        <time>2014-01-19T13:59:43.000Z</time>
      </trkpt>
      <trkpt lat="48.71365" lon="1.72009">
        <ele>146.39999389648</ele>
        <time>2014-01-19T13:59:48.000Z</time>
      </trkpt>
      <trkpt lat="48.71366" lon="1.7201">
        <ele>146.39999389648</ele>
        <time>2014-01-19T13:59:49.000Z</time>
      </trkpt>
      <trkpt lat="48.71375" lon="1.72016">
        <ele>146.19999694824</ele>
        <time>2014-01-19T13:59:56.000Z</time>
      </trkpt>
      <trkpt lat="48.71386" lon="1.72028">
        <ele>145.80000305176</ele>
        <time>2014-01-19T14:00:04.000Z</time>
      </trkpt>
      <trkpt lat="48.71387" lon="1.7203">
        <ele>145.80000305176</ele>
        <time>2014-01-19T14:00:05.000Z</time>
      </trkpt>
      <trkpt lat="48.71393" lon="1.72037">
        <ele>145.60000610352</ele>
        <time>2014-01-19T14:00:10.000Z</time>
      </trkpt>
      <trkpt lat="48.714" lon="1.72045">
        <ele>145</ele>
        <time>2014-01-19T14:00:16.000Z</time>
      </trkpt>
      <trkpt lat="48.71403" lon="1.72048">
        <ele>144.80000305176</ele>
        <time>2014-01-19T14:00:18.000Z</time>
      </trkpt>
      <trkpt lat="48.7141" lon="1.72062">
        <ele>144</ele>
        <time>2014-01-19T14:00:25.000Z</time>
      </trkpt>
      <trkpt lat="48.71412" lon="1.72066">
        <ele>143.80000305176</ele>
        <time>2014-01-19T14:00:27.000Z</time>
      </trkpt>
      <trkpt lat="48.71416" lon="1.72079">
        <ele>143</ele>
        <time>2014-01-19T14:00:33.000Z</time>
      </trkpt>
      <trkpt lat="48.71417" lon="1.72083">
        <ele>143</ele>
        <time>2014-01-19T14:00:35.000Z</time>
      </trkpt>
      <trkpt lat="48.71418" lon="1.72096">
        <ele>143.60000610352</ele>
        <time>2014-01-19T14:00:42.000Z</time>
      </trkpt>
      <trkpt lat="48.71421" lon="1.72103">
        <ele>143.80000305176</ele>
        <time>2014-01-19T14:00:46.000Z</time>
      </trkpt>
      <trkpt lat="48.71426" lon="1.7212">
        <ele>144</ele>
        <time>2014-01-19T14:00:55.000Z</time>
      </trkpt>
      <trkpt lat="48.71429" lon="1.7213">
        <ele>144.19999694824</ele>
        <time>2014-01-19T14:01:01.000Z</time>
      </trkpt>
      <trkpt lat="48.71431" lon="1.7214">
        <ele>144.39999389648</ele>
        <time>2014-01-19T14:01:06.000Z</time>
      </trkpt>
      <trkpt lat="48.71432" lon="1.72151">
        <ele>144.80000305176</ele>
        <time>2014-01-19T14:01:11.000Z</time>
      </trkpt>
      <trkpt lat="48.71436" lon="1.72165">
        <ele>144.80000305176</ele>
        <time>2014-01-19T14:01:18.000Z</time>
      </trkpt>
      <trkpt lat="48.71438" lon="1.72172">
        <ele>144.39999389648</ele>
        <time>2014-01-19T14:01:23.000Z</time>
      </trkpt>
      <trkpt lat="48.71442" lon="1.72176">
        <ele>143.80000305176</ele>
        <time>2014-01-19T14:01:27.000Z</time>
      </trkpt>
      <trkpt lat="48.71449" lon="1.72182">
        <ele>143</ele>
        <time>2014-01-19T14:01:32.000Z</time>
      </trkpt>
      <trkpt lat="48.71457" lon="1.7219">
        <ele>142</ele>
        <time>2014-01-19T14:01:38.000Z</time>
      </trkpt>
      <trkpt lat="48.71462" lon="1.722">
        <ele>141.19999694824</ele>
        <time>2014-01-19T14:01:43.000Z</time>
      </trkpt>
      <trkpt lat="48.71463" lon="1.72204">
        <ele>141</ele>
        <time>2014-01-19T14:01:45.000Z</time>
      </trkpt>
      <trkpt lat="48.71466" lon="1.72217">
        <ele>140.39999389648</ele>
        <time>2014-01-19T14:01:52.000Z</time>
      </trkpt>
      <trkpt lat="48.71468" lon="1.72228">
        <ele>139.80000305176</ele>
        <time>2014-01-19T14:01:58.000Z</time>
      </trkpt>
      <trkpt lat="48.71473" lon="1.72235">
        <ele>139.39999389648</ele>
        <time>2014-01-19T14:02:02.000Z</time>
      </trkpt>
      <trkpt lat="48.71479" lon="1.72249">
        <ele>138.60000610352</ele>
        <time>2014-01-19T14:02:11.000Z</time>
      </trkpt>
      <trkpt lat="48.7148" lon="1.72253">
        <ele>138.39999389648</ele>
        <time>2014-01-19T14:02:13.000Z</time>
      </trkpt>
      <trkpt lat="48.71484" lon="1.7227">
        <ele>138.39999389648</ele>
        <time>2014-01-19T14:02:20.000Z</time>
      </trkpt>
      <trkpt lat="48.71486" lon="1.72285">
        <ele>138.39999389648</ele>
        <time>2014-01-19T14:02:26.000Z</time>
      </trkpt>
      <trkpt lat="48.71488" lon="1.72301">
        <ele>138.39999389648</ele>
        <time>2014-01-19T14:02:33.000Z</time>
      </trkpt>
      <trkpt lat="48.7149" lon="1.7232">
        <ele>138.39999389648</ele>
        <time>2014-01-19T14:02:41.000Z</time>
      </trkpt>
      <trkpt lat="48.7149" lon="1.72335">
        <ele>138.60000610352</ele>
        <time>2014-01-19T14:02:48.000Z</time>
      </trkpt>
      <trkpt lat="48.71489" lon="1.72345">
        <ele>138.80000305176</ele>
        <time>2014-01-19T14:02:53.000Z</time>
      </trkpt>
      <trkpt lat="48.71489" lon="1.72361">
        <ele>139</ele>
        <time>2014-01-19T14:03:00.000Z</time>
      </trkpt>
      <trkpt lat="48.71489" lon="1.72375">
        <ele>139.19999694824</ele>
        <time>2014-01-19T14:03:07.000Z</time>
      </trkpt>
      <trkpt lat="48.71488" lon="1.72383">
        <ele>139.39999389648</ele>
        <time>2014-01-19T14:03:12.000Z</time>
      </trkpt>
      <trkpt lat="48.7149" lon="1.72396">
        <ele>139.39999389648</ele>
        <time>2014-01-19T14:03:18.000Z</time>
      </trkpt>
      <trkpt lat="48.71491" lon="1.7241">
        <ele>139.39999389648</ele>
        <time>2014-01-19T14:03:24.000Z</time>
      </trkpt>
      <trkpt lat="48.7149" lon="1.72428">
        <ele>139.80000305176</ele>
        <time>2014-01-19T14:03:32.000Z</time>
      </trkpt>
      <trkpt lat="48.71494" lon="1.72447">
        <ele>140</ele>
        <time>2014-01-19T14:03:41.000Z</time>
      </trkpt>
      <trkpt lat="48.71496" lon="1.72463">
        <ele>140.39999389648</ele>
        <time>2014-01-19T14:03:48.000Z</time>
      </trkpt>
      <trkpt lat="48.71495" lon="1.72484">
        <ele>140.80000305176</ele>
        <time>2014-01-19T14:03:57.000Z</time>
      </trkpt>
      <trkpt lat="48.71497" lon="1.72499">
        <ele>141.19999694824</ele>
        <time>2014-01-19T14:04:04.000Z</time>
      </trkpt>
      <trkpt lat="48.71498" lon="1.72513">
        <ele>141.19999694824</ele>
        <time>2014-01-19T14:04:10.000Z</time>
      </trkpt>
      <trkpt lat="48.71499" lon="1.72536">
        <ele>141.39999389648</ele>
        <time>2014-01-19T14:04:16.000Z</time>
      </trkpt>
      <trkpt lat="48.71503" lon="1.72569">
        <ele>141.60000610352</ele>
        <time>2014-01-19T14:04:22.000Z</time>
      </trkpt>
      <trkpt lat="48.71508" lon="1.72608">
        <ele>142.19999694824</ele>
        <time>2014-01-19T14:04:29.000Z</time>
      </trkpt>
      <trkpt lat="48.71513" lon="1.72637">
        <ele>142.60000610352</ele>
        <time>2014-01-19T14:04:34.000Z</time>
      </trkpt>
      <trkpt lat="48.71519" lon="1.72667">
        <ele>143</ele>
        <time>2014-01-19T14:04:39.000Z</time>
      </trkpt>
      <trkpt lat="48.71524" lon="1.72698">
        <ele>143.39999389648</ele>
        <time>2014-01-19T14:04:44.000Z</time>
      </trkpt>
      <trkpt lat="48.71528" lon="1.72736">
        <ele>144</ele>
        <time>2014-01-19T14:04:49.000Z</time>
      </trkpt>
      <trkpt lat="48.71535" lon="1.72769">
        <ele>143.60000610352</ele>
        <time>2014-01-19T14:04:55.000Z</time>
      </trkpt>
      <trkpt lat="48.71538" lon="1.72796">
        <ele>143.19999694824</ele>
        <time>2014-01-19T14:05:00.000Z</time>
      </trkpt>
      <trkpt lat="48.71539" lon="1.72827">
        <ele>142.80000305176</ele>
        <time>2014-01-19T14:05:04.000Z</time>
      </trkpt>
      <trkpt lat="48.71547" lon="1.72851">
        <ele>142.19999694824</ele>
        <time>2014-01-19T14:05:08.000Z</time>
      </trkpt>
      <trkpt lat="48.71552" lon="1.72881">
        <ele>142.19999694824</ele>
        <time>2014-01-19T14:05:14.000Z</time>
      </trkpt>
      <trkpt lat="48.71554" lon="1.72891">
        <ele>142.19999694824</ele>
        <time>2014-01-19T14:05:16.000Z</time>
      </trkpt>
      <trkpt lat="48.71565" lon="1.72915">
        <ele>141.80000305176</ele>
        <time>2014-01-19T14:05:23.000Z</time>
      </trkpt>
      <trkpt lat="48.71566" lon="1.72918">
        <ele>141.80000305176</ele>
        <time>2014-01-19T14:05:24.000Z</time>
      </trkpt>
      <trkpt lat="48.71567" lon="1.72929">
        <ele>142</ele>
        <time>2014-01-19T14:05:29.000Z</time>
      </trkpt>
      <trkpt lat="48.71586" lon="1.72935">
        <ele>141.19999694824</ele>
        <time>2014-01-19T14:05:33.000Z</time>
      </trkpt>
      <trkpt lat="48.7159" lon="1.72942">
        <ele>141</ele>
        <time>2014-01-19T14:05:36.000Z</time>
      </trkpt>
      <trkpt lat="48.7159" lon="1.72945">
        <ele>141</ele>
        <time>2014-01-19T14:05:38.000Z</time>
      </trkpt>
      <trkpt lat="48.71603" lon="1.72956">
        <ele>140.60000610352</ele>
        <time>2014-01-19T14:05:44.000Z</time>
      </trkpt>
      <trkpt lat="48.71606" lon="1.72964">
        <ele>140.39999389648</ele>
        <time>2014-01-19T14:05:47.000Z</time>
      </trkpt>
      <trkpt lat="48.71609" lon="1.72978">
        <ele>140.39999389648</ele>
        <time>2014-01-19T14:05:53.000Z</time>
      </trkpt>
      <trkpt lat="48.71629" lon="1.72988">
        <ele>139.60000610352</ele>
        <time>2014-01-19T14:06:00.000Z</time>
      </trkpt>
      <trkpt lat="48.71643" lon="1.72992">
        <ele>139</ele>
        <time>2014-01-19T14:06:03.000Z</time>
      </trkpt>
      <trkpt lat="48.71659" lon="1.72999">
        <ele>138.39999389648</ele>
        <time>2014-01-19T14:06:07.000Z</time>
      </trkpt>
      <trkpt lat="48.71667" lon="1.7301">
        <ele>138</ele>
        <time>2014-01-19T14:06:13.000Z</time>
      </trkpt>
      <trkpt lat="48.71671" lon="1.73021">
        <ele>138</ele>
        <time>2014-01-19T14:06:18.000Z</time>
      </trkpt>
      <trkpt lat="48.71673" lon="1.73026">
        <ele>138</ele>
        <time>2014-01-19T14:06:20.000Z</time>
      </trkpt>
      <trkpt lat="48.71677" lon="1.73046">
        <ele>138</ele>
        <time>2014-01-19T14:06:29.000Z</time>
      </trkpt>
      <trkpt lat="48.7168" lon="1.73058">
        <ele>138</ele>
        <time>2014-01-19T14:06:35.000Z</time>
      </trkpt>
      <trkpt lat="48.71682" lon="1.7307">
        <ele>138.19999694824</ele>
        <time>2014-01-19T14:06:41.000Z</time>
      </trkpt>
      <trkpt lat="48.71683" lon="1.73086">
        <ele>138.19999694824</ele>
        <time>2014-01-19T14:06:47.000Z</time>
      </trkpt>
      <trkpt lat="48.71684" lon="1.731">
        <ele>137.80000305176</ele>
        <time>2014-01-19T14:06:53.000Z</time>
      </trkpt>
      <trkpt lat="48.71687" lon="1.73114">
        <ele>137.39999389648</ele>
        <time>2014-01-19T14:06:59.000Z</time>
      </trkpt>
      <trkpt lat="48.71687" lon="1.73121">
        <ele>137.19999694824</ele>
        <time>2014-01-19T14:07:02.000Z</time>
      </trkpt>
      <trkpt lat="48.71688" lon="1.73126">
        <ele>137</ele>
        <time>2014-01-19T14:07:07.000Z</time>
      </trkpt>
      <trkpt lat="48.71689" lon="1.73135">
        <ele>136.80000305176</ele>
        <time>2014-01-19T14:07:13.000Z</time>
      </trkpt>
      <trkpt lat="48.71692" lon="1.73152">
        <ele>136.39999389648</ele>
        <time>2014-01-19T14:07:20.000Z</time>
      </trkpt>
      <trkpt lat="48.71693" lon="1.73155">
        <ele>136.19999694824</ele>
        <time>2014-01-19T14:07:22.000Z</time>
      </trkpt>
      <trkpt lat="48.71697" lon="1.73169">
        <ele>136</ele>
        <time>2014-01-19T14:07:29.000Z</time>
      </trkpt>
      <trkpt lat="48.71698" lon="1.73171">
        <ele>136</ele>
        <time>2014-01-19T14:07:30.000Z</time>
      </trkpt>
      <trkpt lat="48.717" lon="1.73189">
        <ele>136</ele>
        <time>2014-01-19T14:07:39.000Z</time>
      </trkpt>
      <trkpt lat="48.71703" lon="1.73206">
        <ele>136</ele>
        <time>2014-01-19T14:07:48.000Z</time>
      </trkpt>
      <trkpt lat="48.71706" lon="1.73225">
        <ele>136</ele>
        <time>2014-01-19T14:07:57.000Z</time>
      </trkpt>
      <trkpt lat="48.7171" lon="1.73244">
        <ele>136</ele>
        <time>2014-01-19T14:08:07.000Z</time>
      </trkpt>
      <trkpt lat="48.71712" lon="1.73259">
        <ele>136</ele>
        <time>2014-01-19T14:08:14.000Z</time>
      </trkpt>
      <trkpt lat="48.71714" lon="1.7328">
        <ele>136</ele>
        <time>2014-01-19T14:08:24.000Z</time>
      </trkpt>
      <trkpt lat="48.71716" lon="1.73299">
        <ele>136</ele>
        <time>2014-01-19T14:08:33.000Z</time>
      </trkpt>
      <trkpt lat="48.71719" lon="1.73312">
        <ele>136</ele>
        <time>2014-01-19T14:08:40.000Z</time>
      </trkpt>
      <trkpt lat="48.71721" lon="1.73326">
        <ele>136</ele>
        <time>2014-01-19T14:08:47.000Z</time>
      </trkpt>
      <trkpt lat="48.71724" lon="1.73337">
        <ele>136</ele>
        <time>2014-01-19T14:08:53.000Z</time>
      </trkpt>
      <trkpt lat="48.71725" lon="1.73351">
        <ele>136.39999389648</ele>
        <time>2014-01-19T14:09:00.000Z</time>
      </trkpt>
      <trkpt lat="48.71727" lon="1.73357">
        <ele>136.39999389648</ele>
        <time>2014-01-19T14:09:03.000Z</time>
      </trkpt>
      <trkpt lat="48.71731" lon="1.73368">
        <ele>136.60000610352</ele>
        <time>2014-01-19T14:09:10.000Z</time>
      </trkpt>
      <trkpt lat="48.71736" lon="1.73382">
        <ele>136.60000610352</ele>
        <time>2014-01-19T14:09:18.000Z</time>
      </trkpt>
      <trkpt lat="48.71739" lon="1.73397">
        <ele>137</ele>
        <time>2014-01-19T14:09:25.000Z</time>
      </trkpt>
      <trkpt lat="48.71741" lon="1.73405">
        <ele>137</ele>
        <time>2014-01-19T14:09:29.000Z</time>
      </trkpt>
      <trkpt lat="48.71743" lon="1.73418">
        <ele>137.19999694824</ele>
        <time>2014-01-19T14:09:36.000Z</time>
      </trkpt>
      <trkpt lat="48.71744" lon="1.73422">
        <ele>137.19999694824</ele>
        <time>2014-01-19T14:09:38.000Z</time>
      </trkpt>
      <trkpt lat="48.71747" lon="1.73441">
        <ele>137.19999694824</ele>
        <time>2014-01-19T14:09:47.000Z</time>
      </trkpt>
      <trkpt lat="48.7175" lon="1.7345">
        <ele>137</ele>
        <time>2014-01-19T14:09:52.000Z</time>
      </trkpt>
      <trkpt lat="48.71754" lon="1.73465">
        <ele>136.80000305176</ele>
        <time>2014-01-19T14:09:59.000Z</time>
      </trkpt>
      <trkpt lat="48.71756" lon="1.73477">
        <ele>136.80000305176</ele>
        <time>2014-01-19T14:10:04.000Z</time>
      </trkpt>
      <trkpt lat="48.71755" lon="1.73487">
        <ele>136.80000305176</ele>
        <time>2014-01-19T14:10:08.000Z</time>
      </trkpt>
      <trkpt lat="48.71748" lon="1.73494">
        <ele>137</ele>
        <time>2014-01-19T14:10:13.000Z</time>
      </trkpt>
      <trkpt lat="48.71746" lon="1.73495">
        <ele>137.19999694824</ele>
        <time>2014-01-19T14:10:14.000Z</time>
      </trkpt>
      <trkpt lat="48.71732" lon="1.735">
        <ele>137.60000610352</ele>
        <time>2014-01-19T14:10:20.000Z</time>
      </trkpt>
      <trkpt lat="48.71717" lon="1.73502">
        <ele>138.19999694824</ele>
        <time>2014-01-19T14:10:25.000Z</time>
      </trkpt>
      <trkpt lat="48.71709" lon="1.73505">
        <ele>138.60000610352</ele>
        <time>2014-01-19T14:10:29.000Z</time>
      </trkpt>
      <trkpt lat="48.717" lon="1.73505">
        <ele>138.80000305176</ele>
        <time>2014-01-19T14:10:36.000Z</time>
      </trkpt>
      <trkpt lat="48.71691" lon="1.73506">
        <ele>139.19999694824</ele>
        <time>2014-01-19T14:10:42.000Z</time>
      </trkpt>
      <trkpt lat="48.71684" lon="1.73508">
        <ele>139.39999389648</ele>
        <time>2014-01-19T14:10:47.000Z</time>
      </trkpt>
      <trkpt lat="48.71676" lon="1.7351">
        <ele>139.60000610352</ele>
        <time>2014-01-19T14:10:53.000Z</time>
      </trkpt>
      <trkpt lat="48.71672" lon="1.7351">
        <ele>139.80000305176</ele>
        <time>2014-01-19T14:10:56.000Z</time>
      </trkpt>
      <trkpt lat="48.71665" lon="1.73511">
        <ele>140</ele>
        <time>2014-01-19T14:11:02.000Z</time>
      </trkpt>
      <trkpt lat="48.71654" lon="1.73516">
        <ele>140.60000610352</ele>
        <time>2014-01-19T14:11:10.000Z</time>
      </trkpt>
      <trkpt lat="48.71644" lon="1.73518">
        <ele>141.19999694824</ele>
        <time>2014-01-19T14:11:17.000Z</time>
      </trkpt>
      <trkpt lat="48.71631" lon="1.73524">
        <ele>141.80000305176</ele>
        <time>2014-01-19T14:11:26.000Z</time>
      </trkpt>
      <trkpt lat="48.71617" lon="1.7353">
        <ele>142.60000610352</ele>
        <time>2014-01-19T14:11:36.000Z</time>
      </trkpt>
      <trkpt lat="48.716" lon="1.73533">
        <ele>143.39999389648</ele>
        <time>2014-01-19T14:11:48.000Z</time>
      </trkpt>
      <trkpt lat="48.71586" lon="1.73535">
        <ele>144.19999694824</ele>
        <time>2014-01-19T14:11:58.000Z</time>
      </trkpt>
      <trkpt lat="48.71573" lon="1.73538">
        <ele>145.60000610352</ele>
        <time>2014-01-19T14:12:08.000Z</time>
      </trkpt>
      <trkpt lat="48.71564" lon="1.73542">
        <ele>146.60000610352</ele>
        <time>2014-01-19T14:12:15.000Z</time>
      </trkpt>
      <trkpt lat="48.7156" lon="1.73542">
        <ele>147</ele>
        <time>2014-01-19T14:12:18.000Z</time>
      </trkpt>
      <trkpt lat="48.71551" lon="1.73542">
        <ele>148</ele>
        <time>2014-01-19T14:12:27.000Z</time>
      </trkpt>
      <trkpt lat="48.71543" lon="1.73541">
        <ele>148.80000305176</ele>
        <time>2014-01-19T14:12:34.000Z</time>
      </trkpt>
      <trkpt lat="48.71535" lon="1.73546">
        <ele>149.80000305176</ele>
        <time>2014-01-19T14:12:39.000Z</time>
      </trkpt>
      <trkpt lat="48.71525" lon="1.73547">
        <ele>151</ele>
        <time>2014-01-19T14:12:46.000Z</time>
      </trkpt>
      <trkpt lat="48.71515" lon="1.73552">
        <ele>152.19999694824</ele>
        <time>2014-01-19T14:12:53.000Z</time>
      </trkpt>
      <trkpt lat="48.71514" lon="1.73552">
        <ele>152.39999389648</ele>
        <time>2014-01-19T14:12:54.000Z</time>
      </trkpt>
      <trkpt lat="48.71507" lon="1.73553">
        <ele>153.19999694824</ele>
        <time>2014-01-19T14:13:00.000Z</time>
      </trkpt>
      <trkpt lat="48.71502" lon="1.73553">
        <ele>153.60000610352</ele>
        <time>2014-01-19T14:13:04.000Z</time>
      </trkpt>
      <trkpt lat="48.71492" lon="1.73554">
        <ele>154.80000305176</ele>
        <time>2014-01-19T14:13:12.000Z</time>
      </trkpt>
      <trkpt lat="48.71484" lon="1.73553">
        <ele>155.80000305176</ele>
        <time>2014-01-19T14:13:18.000Z</time>
      </trkpt>
      <trkpt lat="48.71474" lon="1.73552">
        <ele>156.80000305176</ele>
        <time>2014-01-19T14:13:26.000Z</time>
      </trkpt>
      <trkpt lat="48.71469" lon="1.73553">
        <ele>157.39999389648</ele>
        <time>2014-01-19T14:13:30.000Z</time>
      </trkpt>
      <trkpt lat="48.71463" lon="1.7356">
        <ele>158.19999694824</ele>
        <time>2014-01-19T14:13:34.000Z</time>
      </trkpt>
      <trkpt lat="48.71458" lon="1.73563">
        <ele>158.60000610352</ele>
        <time>2014-01-19T14:13:38.000Z</time>
      </trkpt>
      <trkpt lat="48.71449" lon="1.73568">
        <ele>159.60000610352</ele>
        <time>2014-01-19T14:13:45.000Z</time>
      </trkpt>
      <trkpt lat="48.71442" lon="1.73572">
        <ele>160.19999694824</ele>
        <time>2014-01-19T14:13:50.000Z</time>
      </trkpt>
      <trkpt lat="48.71433" lon="1.73575">
        <ele>160.80000305176</ele>
        <time>2014-01-19T14:13:55.000Z</time>
      </trkpt>
      <trkpt lat="48.71432" lon="1.73575">
        <ele>161</ele>
        <time>2014-01-19T14:13:56.000Z</time>
      </trkpt>
      <trkpt lat="48.71423" lon="1.73573">
        <ele>161.80000305176</ele>
        <time>2014-01-19T14:14:02.000Z</time>
      </trkpt>
      <trkpt lat="48.71415" lon="1.73573">
        <ele>162.60000610352</ele>
        <time>2014-01-19T14:14:09.000Z</time>
      </trkpt>
      <trkpt lat="48.71414" lon="1.73573">
        <ele>162.80000305176</ele>
        <time>2014-01-19T14:14:10.000Z</time>
      </trkpt>
      <trkpt lat="48.71403" lon="1.73574">
        <ele>164</ele>
        <time>2014-01-19T14:14:19.000Z</time>
      </trkpt>
      <trkpt lat="48.71396" lon="1.73573">
        <ele>164.80000305176</ele>
        <time>2014-01-19T14:14:26.000Z</time>
      </trkpt>
      <trkpt lat="48.7139" lon="1.73573">
        <ele>165.39999389648</ele>
        <time>2014-01-19T14:14:30.000Z</time>
      </trkpt>
      <trkpt lat="48.71386" lon="1.73573">
        <ele>165.80000305176</ele>
        <time>2014-01-19T14:14:33.000Z</time>
      </trkpt>
      <trkpt lat="48.71379" lon="1.73566">
        <ele>167</ele>
        <time>2014-01-19T14:14:39.000Z</time>
      </trkpt>
      <trkpt lat="48.71372" lon="1.73559">
        <ele>168.39999389648</ele>
        <time>2014-01-19T14:14:46.000Z</time>
      </trkpt>
      <trkpt lat="48.71367" lon="1.73554">
        <ele>169.19999694824</ele>
        <time>2014-01-19T14:14:52.000Z</time>
      </trkpt>
      <trkpt lat="48.71363" lon="1.73548">
        <ele>170</ele>
        <time>2014-01-19T14:14:56.000Z</time>
      </trkpt>
      <trkpt lat="48.71354" lon="1.73537">
        <ele>171.80000305176</ele>
        <time>2014-01-19T14:15:04.000Z</time>
      </trkpt>
      <trkpt lat="48.71352" lon="1.73535">
        <ele>172.19999694824</ele>
        <time>2014-01-19T14:15:06.000Z</time>
      </trkpt>
      <trkpt lat="48.71346" lon="1.7353">
        <ele>173.19999694824</ele>
        <time>2014-01-19T14:15:12.000Z</time>
      </trkpt>
      <trkpt lat="48.71338" lon="1.73524">
        <ele>174.60000610352</ele>
        <time>2014-01-19T14:15:19.000Z</time>
      </trkpt>
      <trkpt lat="48.71332" lon="1.73526">
        <ele>175.19999694824</ele>
        <time>2014-01-19T14:15:25.000Z</time>
      </trkpt>
      <trkpt lat="48.71327" lon="1.73532">
        <ele>175.39999389648</ele>
        <time>2014-01-19T14:15:32.000Z</time>
      </trkpt>
      <trkpt lat="48.71324" lon="1.73535">
        <ele>175.39999389648</ele>
        <time>2014-01-19T14:15:35.000Z</time>
      </trkpt>
      <trkpt lat="48.7132" lon="1.73537">
        <ele>175.80000305176</ele>
        <time>2014-01-19T14:15:39.000Z</time>
      </trkpt>
      <trkpt lat="48.7131" lon="1.73552">
        <ele>176.19999694824</ele>
        <time>2014-01-19T14:15:48.000Z</time>
      </trkpt>
      <trkpt lat="48.71306" lon="1.73568">
        <ele>176.19999694824</ele>
        <time>2014-01-19T14:15:56.000Z</time>
      </trkpt>
      <trkpt lat="48.71302" lon="1.73579">
        <ele>176.39999389648</ele>
        <time>2014-01-19T14:16:03.000Z</time>
      </trkpt>
      <trkpt lat="48.71301" lon="1.73583">
        <ele>176.39999389648</ele>
        <time>2014-01-19T14:16:07.000Z</time>
      </trkpt>
      <trkpt lat="48.71298" lon="1.73588">
        <ele>176.80000305176</ele>
        <time>2014-01-19T14:16:11.000Z</time>
      </trkpt>
      <trkpt lat="48.71296" lon="1.73594">
        <ele>177</ele>
        <time>2014-01-19T14:16:15.000Z</time>
      </trkpt>
      <trkpt lat="48.71291" lon="1.73599">
        <ele>177.80000305176</ele>
        <time>2014-01-19T14:16:19.000Z</time>
      </trkpt>
      <trkpt lat="48.71284" lon="1.73607">
        <ele>178.60000610352</ele>
        <time>2014-01-19T14:16:26.000Z</time>
      </trkpt>
      <trkpt lat="48.71275" lon="1.73613">
        <ele>180</ele>
        <time>2014-01-19T14:16:34.000Z</time>
      </trkpt>
      <trkpt lat="48.71272" lon="1.73614">
        <ele>180.60000610352</ele>
        <time>2014-01-19T14:16:37.000Z</time>
      </trkpt>
      <trkpt lat="48.71263" lon="1.73617">
        <ele>182</ele>
        <time>2014-01-19T14:16:43.000Z</time>
      </trkpt>
      <trkpt lat="48.71248" lon="1.7362">
        <ele>184</ele>
        <time>2014-01-19T14:16:54.000Z</time>
      </trkpt>
      <trkpt lat="48.71242" lon="1.73618">
        <ele>183.80000305176</ele>
        <time>2014-01-19T14:16:59.000Z</time>
      </trkpt>
      <trkpt lat="48.71236" lon="1.73616">
        <ele>183.60000610352</ele>
        <time>2014-01-19T14:17:04.000Z</time>
      </trkpt>
      <trkpt lat="48.71225" lon="1.73611">
        <ele>183.39999389648</ele>
        <time>2014-01-19T14:17:13.000Z</time>
      </trkpt>
      <trkpt lat="48.71216" lon="1.73605">
        <ele>183</ele>
        <time>2014-01-19T14:17:20.000Z</time>
      </trkpt>
      <trkpt lat="48.71207" lon="1.73598">
        <ele>182.60000610352</ele>
        <time>2014-01-19T14:17:28.000Z</time>
      </trkpt>
      <trkpt lat="48.71202" lon="1.73599">
        <ele>182.19999694824</ele>
        <time>2014-01-19T14:17:32.000Z</time>
      </trkpt>
      <trkpt lat="48.71195" lon="1.73614">
        <ele>182.19999694824</ele>
        <time>2014-01-19T14:17:39.000Z</time>
      </trkpt>
      <trkpt lat="48.71188" lon="1.73623">
        <ele>182.19999694824</ele>
        <time>2014-01-19T14:17:45.000Z</time>
      </trkpt>
      <trkpt lat="48.71178" lon="1.73632">
        <ele>182</ele>
        <time>2014-01-19T14:17:52.000Z</time>
      </trkpt>
      <trkpt lat="48.7117" lon="1.73642">
        <ele>182.19999694824</ele>
        <time>2014-01-19T14:18:00.000Z</time>
      </trkpt>
      <trkpt lat="48.71164" lon="1.73649">
        <ele>182.19999694824</ele>
        <time>2014-01-19T14:18:06.000Z</time>
      </trkpt>
      <trkpt lat="48.71157" lon="1.73654">
        <ele>182.19999694824</ele>
        <time>2014-01-19T14:18:12.000Z</time>
      </trkpt>
      <trkpt lat="48.71151" lon="1.73661">
        <ele>182</ele>
        <time>2014-01-19T14:18:18.000Z</time>
      </trkpt>
      <trkpt lat="48.71143" lon="1.73671">
        <ele>182</ele>
        <time>2014-01-19T14:18:25.000Z</time>
      </trkpt>
      <trkpt lat="48.71136" lon="1.7368">
        <ele>181.80000305176</ele>
        <time>2014-01-19T14:18:31.000Z</time>
      </trkpt>
      <trkpt lat="48.71135" lon="1.73681">
        <ele>181.80000305176</ele>
        <time>2014-01-19T14:18:32.000Z</time>
      </trkpt>
      <trkpt lat="48.71129" lon="1.73688">
        <ele>181.80000305176</ele>
        <time>2014-01-19T14:18:38.000Z</time>
      </trkpt>
      <trkpt lat="48.71124" lon="1.73696">
        <ele>181.80000305176</ele>
        <time>2014-01-19T14:18:43.000Z</time>
      </trkpt>
      <trkpt lat="48.71117" lon="1.737">
        <ele>181.80000305176</ele>
        <time>2014-01-19T14:18:48.000Z</time>
      </trkpt>
      <trkpt lat="48.7111" lon="1.73706">
        <ele>181.80000305176</ele>
        <time>2014-01-19T14:18:54.000Z</time>
      </trkpt>
      <trkpt lat="48.71099" lon="1.73718">
        <ele>181.80000305176</ele>
        <time>2014-01-19T14:19:04.000Z</time>
      </trkpt>
      <trkpt lat="48.7109" lon="1.73728">
        <ele>182</ele>
        <time>2014-01-19T14:19:11.000Z</time>
      </trkpt>
      <trkpt lat="48.71079" lon="1.7374">
        <ele>182.39999389648</ele>
        <time>2014-01-19T14:19:19.000Z</time>
      </trkpt>
      <trkpt lat="48.71071" lon="1.73745">
        <ele>182.39999389648</ele>
        <time>2014-01-19T14:19:24.000Z</time>
      </trkpt>
      <trkpt lat="48.71062" lon="1.73753">
        <ele>182.39999389648</ele>
        <time>2014-01-19T14:19:32.000Z</time>
      </trkpt>
      <trkpt lat="48.71053" lon="1.73762">
        <ele>182.19999694824</ele>
        <time>2014-01-19T14:19:40.000Z</time>
      </trkpt>
      <trkpt lat="48.71045" lon="1.73769">
        <ele>182.19999694824</ele>
        <time>2014-01-19T14:19:47.000Z</time>
      </trkpt>
      <trkpt lat="48.71042" lon="1.7377">
        <ele>182.19999694824</ele>
        <time>2014-01-19T14:19:50.000Z</time>
      </trkpt>
      <trkpt lat="48.71035" lon="1.73783">
        <ele>182.19999694824</ele>
        <time>2014-01-19T14:19:57.000Z</time>
      </trkpt>
      <trkpt lat="48.71027" lon="1.73791">
        <ele>182.19999694824</ele>
        <time>2014-01-19T14:20:03.000Z</time>
      </trkpt>
      <trkpt lat="48.71022" lon="1.73794">
        <ele>182.19999694824</ele>
        <time>2014-01-19T14:20:08.000Z</time>
      </trkpt>
      <trkpt lat="48.71019" lon="1.73798">
        <ele>182.19999694824</ele>
        <time>2014-01-19T14:20:10.000Z</time>
      </trkpt>
      <trkpt lat="48.71018" lon="1.738">
        <ele>182.19999694824</ele>
        <time>2014-01-19T14:20:12.000Z</time>
      </trkpt>
      <trkpt lat="48.71011" lon="1.73808">
        <ele>182.39999389648</ele>
        <time>2014-01-19T14:20:19.000Z</time>
      </trkpt>
      <trkpt lat="48.71008" lon="1.73822">
        <ele>182.60000610352</ele>
        <time>2014-01-19T14:20:24.000Z</time>
      </trkpt>
      <trkpt lat="48.71003" lon="1.7384">
        <ele>183.19999694824</ele>
        <time>2014-01-19T14:20:32.000Z</time>
      </trkpt>
      <trkpt lat="48.70997" lon="1.73851">
        <ele>183.39999389648</ele>
        <time>2014-01-19T14:20:38.000Z</time>
      </trkpt>
      <trkpt lat="48.70995" lon="1.73862">
        <ele>183.60000610352</ele>
        <time>2014-01-19T14:20:44.000Z</time>
      </trkpt>
      <trkpt lat="48.70993" lon="1.73875">
        <ele>183.80000305176</ele>
        <time>2014-01-19T14:20:51.000Z</time>
      </trkpt>
      <trkpt lat="48.7099" lon="1.73884">
        <ele>184</ele>
        <time>2014-01-19T14:20:55.000Z</time>
      </trkpt>
      <trkpt lat="48.7099" lon="1.73889">
        <ele>184</ele>
        <time>2014-01-19T14:20:58.000Z</time>
      </trkpt>
      <trkpt lat="48.70989" lon="1.73894">
        <ele>184.19999694824</ele>
        <time>2014-01-19T14:21:00.000Z</time>
      </trkpt>
      <trkpt lat="48.70988" lon="1.73903">
        <ele>184.39999389648</ele>
        <time>2014-01-19T14:21:04.000Z</time>
      </trkpt>
      <trkpt lat="48.70982" lon="1.73924">
        <ele>184.39999389648</ele>
        <time>2014-01-19T14:21:12.000Z</time>
      </trkpt>
      <trkpt lat="48.70979" lon="1.73933">
        <ele>184</ele>
        <time>2014-01-19T14:21:17.000Z</time>
      </trkpt>
      <trkpt lat="48.70978" lon="1.73938">
        <ele>184</ele>
        <time>2014-01-19T14:21:20.000Z</time>
      </trkpt>
      <trkpt lat="48.70974" lon="1.73955">
        <ele>183.39999389648</ele>
        <time>2014-01-19T14:21:29.000Z</time>
      </trkpt>
      <trkpt lat="48.70971" lon="1.73968">
        <ele>183.19999694824</ele>
        <time>2014-01-19T14:21:36.000Z</time>
      </trkpt>
      <trkpt lat="48.70969" lon="1.73979">
        <ele>182.80000305176</ele>
        <time>2014-01-19T14:21:42.000Z</time>
      </trkpt>
      <trkpt lat="48.70968" lon="1.73985">
        <ele>182.80000305176</ele>
        <time>2014-01-19T14:21:45.000Z</time>
      </trkpt>
      <trkpt lat="48.70966" lon="1.73997">
        <ele>182.39999389648</ele>
        <time>2014-01-19T14:21:51.000Z</time>
      </trkpt>
      <trkpt lat="48.70965" lon="1.74007">
        <ele>182.39999389648</ele>
        <time>2014-01-19T14:21:56.000Z</time>
      </trkpt>
      <trkpt lat="48.70962" lon="1.74015">
        <ele>182.39999389648</ele>
        <time>2014-01-19T14:22:00.000Z</time>
      </trkpt>
      <trkpt lat="48.70958" lon="1.74027">
        <ele>182.60000610352</ele>
        <time>2014-01-19T14:22:06.000Z</time>
      </trkpt>
      <trkpt lat="48.70955" lon="1.74037">
        <ele>182.60000610352</ele>
        <time>2014-01-19T14:22:11.000Z</time>
      </trkpt>
      <trkpt lat="48.70952" lon="1.74049">
        <ele>182.60000610352</ele>
        <time>2014-01-19T14:22:17.000Z</time>
      </trkpt>
      <trkpt lat="48.7095" lon="1.74061">
        <ele>182.60000610352</ele>
        <time>2014-01-19T14:22:23.000Z</time>
      </trkpt>
      <trkpt lat="48.70949" lon="1.74065">
        <ele>182.60000610352</ele>
        <time>2014-01-19T14:22:25.000Z</time>
      </trkpt>
      <trkpt lat="48.70944" lon="1.74076">
        <ele>182.60000610352</ele>
        <time>2014-01-19T14:22:32.000Z</time>
      </trkpt>
      <trkpt lat="48.70942" lon="1.7409">
        <ele>182.60000610352</ele>
        <time>2014-01-19T14:22:38.000Z</time>
      </trkpt>
      <trkpt lat="48.70942" lon="1.74092">
        <ele>182.60000610352</ele>
        <time>2014-01-19T14:22:39.000Z</time>
      </trkpt>
      <trkpt lat="48.7094" lon="1.74107">
        <ele>182.60000610352</ele>
        <time>2014-01-19T14:22:46.000Z</time>
      </trkpt>
      <trkpt lat="48.70937" lon="1.74115">
        <ele>182.60000610352</ele>
        <time>2014-01-19T14:22:51.000Z</time>
      </trkpt>
      <trkpt lat="48.70936" lon="1.74118">
        <ele>182.60000610352</ele>
        <time>2014-01-19T14:22:53.000Z</time>
      </trkpt>
      <trkpt lat="48.70933" lon="1.74128">
        <ele>182.60000610352</ele>
        <time>2014-01-19T14:23:00.000Z</time>
      </trkpt>
      <trkpt lat="48.70933" lon="1.74139">
        <ele>182.60000610352</ele>
        <time>2014-01-19T14:23:06.000Z</time>
      </trkpt>
      <trkpt lat="48.70933" lon="1.74145">
        <ele>182.60000610352</ele>
        <time>2014-01-19T14:23:10.000Z</time>
      </trkpt>
      <trkpt lat="48.70932" lon="1.74151">
        <ele>182.60000610352</ele>
        <time>2014-01-19T14:23:13.000Z</time>
      </trkpt>
      <trkpt lat="48.70932" lon="1.74154">
        <ele>182.60000610352</ele>
        <time>2014-01-19T14:23:15.000Z</time>
      </trkpt>
      <trkpt lat="48.70931" lon="1.74158">
        <ele>182.60000610352</ele>
        <time>2014-01-19T14:23:17.000Z</time>
      </trkpt>
      <trkpt lat="48.70928" lon="1.74172">
        <ele>182.39999389648</ele>
        <time>2014-01-19T14:23:24.000Z</time>
      </trkpt>
      <trkpt lat="48.70924" lon="1.74184">
        <ele>182.39999389648</ele>
        <time>2014-01-19T14:23:30.000Z</time>
      </trkpt>
      <trkpt lat="48.70922" lon="1.74193">
        <ele>182.19999694824</ele>
        <time>2014-01-19T14:23:36.000Z</time>
      </trkpt>
      <trkpt lat="48.70922" lon="1.74198">
        <ele>182</ele>
        <time>2014-01-19T14:23:39.000Z</time>
      </trkpt>
      <trkpt lat="48.70921" lon="1.74202">
        <ele>182</ele>
        <time>2014-01-19T14:23:41.000Z</time>
      </trkpt>
      <trkpt lat="48.70917" lon="1.74207">
        <ele>182</ele>
        <time>2014-01-19T14:23:45.000Z</time>
      </trkpt>
      <trkpt lat="48.70913" lon="1.74223">
        <ele>181.60000610352</ele>
        <time>2014-01-19T14:23:53.000Z</time>
      </trkpt>
      <trkpt lat="48.70912" lon="1.74235">
        <ele>181.39999389648</ele>
        <time>2014-01-19T14:24:00.000Z</time>
      </trkpt>
      <trkpt lat="48.70909" lon="1.74246">
        <ele>181</ele>
        <time>2014-01-19T14:24:05.000Z</time>
      </trkpt>
      <trkpt lat="48.70905" lon="1.74257">
        <ele>180.39999389648</ele>
        <time>2014-01-19T14:24:11.000Z</time>
      </trkpt>
      <trkpt lat="48.70901" lon="1.74267">
        <ele>179.80000305176</ele>
        <time>2014-01-19T14:24:18.000Z</time>
      </trkpt>
      <trkpt lat="48.70895" lon="1.74276">
        <ele>179.39999389648</ele>
        <time>2014-01-19T14:24:26.000Z</time>
      </trkpt>
      <trkpt lat="48.7089" lon="1.74285">
        <ele>178.80000305176</ele>
        <time>2014-01-19T14:24:32.000Z</time>
      </trkpt>
      <trkpt lat="48.70885" lon="1.74294">
        <ele>178.39999389648</ele>
        <time>2014-01-19T14:24:38.000Z</time>
      </trkpt>
      <trkpt lat="48.70883" lon="1.74302">
        <ele>178</ele>
        <time>2014-01-19T14:24:45.000Z</time>
      </trkpt>
      <trkpt lat="48.70883" lon="1.74303">
        <ele>178</ele>
        <time>2014-01-19T14:24:46.000Z</time>
      </trkpt>
      <trkpt lat="48.70878" lon="1.7431">
        <ele>177.60000610352</ele>
        <time>2014-01-19T14:24:58.000Z</time>
      </trkpt>
      <trkpt lat="48.70875" lon="1.74315">
        <ele>177.39999389648</ele>
        <time>2014-01-19T14:25:00.000Z</time>
      </trkpt>
      <trkpt lat="48.70868" lon="1.74327">
        <ele>176.80000305176</ele>
        <time>2014-01-19T14:25:06.000Z</time>
      </trkpt>
      <trkpt lat="48.70856" lon="1.74352">
        <ele>176.60000610352</ele>
        <time>2014-01-19T14:25:19.000Z</time>
      </trkpt>
      <trkpt lat="48.70848" lon="1.74365">
        <ele>176.39999389648</ele>
        <time>2014-01-19T14:25:27.000Z</time>
      </trkpt>
      <trkpt lat="48.70842" lon="1.74374">
        <ele>176.39999389648</ele>
        <time>2014-01-19T14:25:33.000Z</time>
      </trkpt>
      <trkpt lat="48.70836" lon="1.74383">
        <ele>176.39999389648</ele>
        <time>2014-01-19T14:25:39.000Z</time>
      </trkpt>
      <trkpt lat="48.70827" lon="1.74394">
        <ele>176.39999389648</ele>
        <time>2014-01-19T14:25:48.000Z</time>
      </trkpt>
      <trkpt lat="48.70818" lon="1.74402">
        <ele>176.60000610352</ele>
        <time>2014-01-19T14:25:56.000Z</time>
      </trkpt>
      <trkpt lat="48.70817" lon="1.74403">
        <ele>176.60000610352</ele>
        <time>2014-01-19T14:25:57.000Z</time>
      </trkpt>
      <trkpt lat="48.70809" lon="1.74409">
        <ele>176.80000305176</ele>
        <time>2014-01-19T14:26:04.000Z</time>
      </trkpt>
      <trkpt lat="48.70801" lon="1.74413">
        <ele>176.80000305176</ele>
        <time>2014-01-19T14:26:10.000Z</time>
      </trkpt>
      <trkpt lat="48.70794" lon="1.74416">
        <ele>177</ele>
        <time>2014-01-19T14:26:16.000Z</time>
      </trkpt>
      <trkpt lat="48.7079" lon="1.74417">
        <ele>177</ele>
        <time>2014-01-19T14:26:21.000Z</time>
      </trkpt>
      <trkpt lat="48.70785" lon="1.74419">
        <ele>177.19999694824</ele>
        <time>2014-01-19T14:26:26.000Z</time>
      </trkpt>
      <trkpt lat="48.70779" lon="1.74423">
        <ele>177.19999694824</ele>
        <time>2014-01-19T14:26:31.000Z</time>
      </trkpt>
      <trkpt lat="48.70774" lon="1.74428">
        <ele>177.39999389648</ele>
        <time>2014-01-19T14:26:36.000Z</time>
      </trkpt>
      <trkpt lat="48.70773" lon="1.74429">
        <ele>177.39999389648</ele>
        <time>2014-01-19T14:26:37.000Z</time>
      </trkpt>
      <trkpt lat="48.7076" lon="1.74437">
        <ele>177.60000610352</ele>
        <time>2014-01-19T14:26:47.000Z</time>
      </trkpt>
      <trkpt lat="48.70752" lon="1.74443">
        <ele>177.60000610352</ele>
        <time>2014-01-19T14:26:55.000Z</time>
      </trkpt>
      <trkpt lat="48.70739" lon="1.7445">
        <ele>178</ele>
        <time>2014-01-19T14:27:05.000Z</time>
      </trkpt>
      <trkpt lat="48.70737" lon="1.74452">
        <ele>178</ele>
        <time>2014-01-19T14:27:07.000Z</time>
      </trkpt>
      <trkpt lat="48.70732" lon="1.74464">
        <ele>178</ele>
        <time>2014-01-19T14:27:14.000Z</time>
      </trkpt>
      <trkpt lat="48.70734" lon="1.74475">
        <ele>177.80000305176</ele>
        <time>2014-01-19T14:27:20.000Z</time>
      </trkpt>
      <trkpt lat="48.70745" lon="1.74489">
        <ele>177.39999389648</ele>
        <time>2014-01-19T14:27:31.000Z</time>
      </trkpt>
      <trkpt lat="48.70758" lon="1.74502">
        <ele>177</ele>
        <time>2014-01-19T14:27:42.000Z</time>
      </trkpt>
      <trkpt lat="48.70767" lon="1.7451">
        <ele>176.80000305176</ele>
        <time>2014-01-19T14:27:48.000Z</time>
      </trkpt>
      <trkpt lat="48.70776" lon="1.74521">
        <ele>176.60000610352</ele>
        <time>2014-01-19T14:27:57.000Z</time>
      </trkpt>
      <trkpt lat="48.70783" lon="1.74529">
        <ele>176.60000610352</ele>
        <time>2014-01-19T14:28:03.000Z</time>
      </trkpt>
      <trkpt lat="48.70789" lon="1.74537">
        <ele>176.60000610352</ele>
        <time>2014-01-19T14:28:09.000Z</time>
      </trkpt>
      <trkpt lat="48.70798" lon="1.74549">
        <ele>176.39999389648</ele>
        <time>2014-01-19T14:28:18.000Z</time>
      </trkpt>
      <trkpt lat="48.70804" lon="1.74556">
        <ele>176.39999389648</ele>
        <time>2014-01-19T14:28:23.000Z</time>
      </trkpt>
      <trkpt lat="48.70808" lon="1.74562">
        <ele>176.39999389648</ele>
        <time>2014-01-19T14:28:28.000Z</time>
      </trkpt>
      <trkpt lat="48.70814" lon="1.74572">
        <ele>176.19999694824</ele>
        <time>2014-01-19T14:28:35.000Z</time>
      </trkpt>
      <trkpt lat="48.70822" lon="1.74582">
        <ele>176.19999694824</ele>
        <time>2014-01-19T14:28:43.000Z</time>
      </trkpt>
      <trkpt lat="48.70826" lon="1.74588">
        <ele>176</ele>
        <time>2014-01-19T14:28:47.000Z</time>
      </trkpt>
      <trkpt lat="48.70833" lon="1.74596">
        <ele>176</ele>
        <time>2014-01-19T14:28:53.000Z</time>
      </trkpt>
      <trkpt lat="48.70844" lon="1.74611">
        <ele>176</ele>
        <time>2014-01-19T14:29:04.000Z</time>
      </trkpt>
      <trkpt lat="48.7085" lon="1.74619">
        <ele>175.80000305176</ele>
        <time>2014-01-19T14:29:10.000Z</time>
      </trkpt>
      <trkpt lat="48.70856" lon="1.74627">
        <ele>175.80000305176</ele>
        <time>2014-01-19T14:29:16.000Z</time>
      </trkpt>
      <trkpt lat="48.70865" lon="1.74637">
        <ele>175.80000305176</ele>
        <time>2014-01-19T14:29:24.000Z</time>
      </trkpt>
      <trkpt lat="48.70869" lon="1.74644">
        <ele>175.80000305176</ele>
        <time>2014-01-19T14:29:29.000Z</time>
      </trkpt>
      <trkpt lat="48.70875" lon="1.74652">
        <ele>176</ele>
        <time>2014-01-19T14:29:35.000Z</time>
      </trkpt>
      <trkpt lat="48.70883" lon="1.7466">
        <ele>176</ele>
        <time>2014-01-19T14:29:41.000Z</time>
      </trkpt>
      <trkpt lat="48.70892" lon="1.74672">
        <ele>176.19999694824</ele>
        <time>2014-01-19T14:29:50.000Z</time>
      </trkpt>
      <trkpt lat="48.70901" lon="1.74685">
        <ele>176.60000610352</ele>
        <time>2014-01-19T14:29:58.000Z</time>
      </trkpt>
      <trkpt lat="48.7091" lon="1.74699">
        <ele>176.80000305176</ele>
        <time>2014-01-19T14:30:08.000Z</time>
      </trkpt>
      <trkpt lat="48.70919" lon="1.74713">
        <ele>177.19999694824</ele>
        <time>2014-01-19T14:30:18.000Z</time>
      </trkpt>
      <trkpt lat="48.70929" lon="1.74726">
        <ele>177.60000610352</ele>
        <time>2014-01-19T14:30:27.000Z</time>
      </trkpt>
      <trkpt lat="48.70943" lon="1.74741">
        <ele>177.80000305176</ele>
        <time>2014-01-19T14:30:38.000Z</time>
      </trkpt>
      <trkpt lat="48.70952" lon="1.74754">
        <ele>178</ele>
        <time>2014-01-19T14:30:47.000Z</time>
      </trkpt>
      <trkpt lat="48.70957" lon="1.7476">
        <ele>178</ele>
        <time>2014-01-19T14:30:52.000Z</time>
      </trkpt>
      <trkpt lat="48.70967" lon="1.74773">
        <ele>178.19999694824</ele>
        <time>2014-01-19T14:31:01.000Z</time>
      </trkpt>
      <trkpt lat="48.70977" lon="1.74787">
        <ele>178.39999389648</ele>
        <time>2014-01-19T14:31:11.000Z</time>
      </trkpt>
      <trkpt lat="48.70987" lon="1.74799">
        <ele>178.39999389648</ele>
        <time>2014-01-19T14:31:20.000Z</time>
      </trkpt>
      <trkpt lat="48.70993" lon="1.74809">
        <ele>178.60000610352</ele>
        <time>2014-01-19T14:31:27.000Z</time>
      </trkpt>
      <trkpt lat="48.70998" lon="1.7482">
        <ele>178.80000305176</ele>
        <time>2014-01-19T14:31:34.000Z</time>
      </trkpt>
      <trkpt lat="48.71005" lon="1.74833">
        <ele>178.60000610352</ele>
        <time>2014-01-19T14:31:43.000Z</time>
      </trkpt>
      <trkpt lat="48.71008" lon="1.74845">
        <ele>178.60000610352</ele>
        <time>2014-01-19T14:31:50.000Z</time>
      </trkpt>
      <trkpt lat="48.71006" lon="1.74857">
        <ele>178.60000610352</ele>
        <time>2014-01-19T14:31:57.000Z</time>
      </trkpt>
      <trkpt lat="48.71" lon="1.74868">
        <ele>179</ele>
        <time>2014-01-19T14:32:04.000Z</time>
      </trkpt>
      <trkpt lat="48.70993" lon="1.74878">
        <ele>178.80000305176</ele>
        <time>2014-01-19T14:32:11.000Z</time>
      </trkpt>
      <trkpt lat="48.70985" lon="1.74888">
        <ele>178.39999389648</ele>
        <time>2014-01-19T14:32:17.000Z</time>
      </trkpt>
      <trkpt lat="48.70983" lon="1.74891">
        <ele>178.39999389648</ele>
        <time>2014-01-19T14:32:19.000Z</time>
      </trkpt>
      <trkpt lat="48.70977" lon="1.74898">
        <ele>178</ele>
        <time>2014-01-19T14:32:25.000Z</time>
      </trkpt>
      <trkpt lat="48.70973" lon="1.74905">
        <ele>177.80000305176</ele>
        <time>2014-01-19T14:32:29.000Z</time>
      </trkpt>
      <trkpt lat="48.70967" lon="1.74913">
        <ele>177.39999389648</ele>
        <time>2014-01-19T14:32:35.000Z</time>
      </trkpt>
      <trkpt lat="48.70961" lon="1.74924">
        <ele>177</ele>
        <time>2014-01-19T14:32:42.000Z</time>
      </trkpt>
      <trkpt lat="48.70957" lon="1.74927">
        <ele>176.80000305176</ele>
        <time>2014-01-19T14:32:46.000Z</time>
      </trkpt>
      <trkpt lat="48.7095" lon="1.74936">
        <ele>176.60000610352</ele>
        <time>2014-01-19T14:32:52.000Z</time>
      </trkpt>
      <trkpt lat="48.70943" lon="1.74945">
        <ele>176.19999694824</ele>
        <time>2014-01-19T14:32:59.000Z</time>
      </trkpt>
      <trkpt lat="48.70937" lon="1.74954">
        <ele>175.80000305176</ele>
        <time>2014-01-19T14:33:05.000Z</time>
      </trkpt>
      <trkpt lat="48.70931" lon="1.74966">
        <ele>175.60000610352</ele>
        <time>2014-01-19T14:33:12.000Z</time>
      </trkpt>
      <trkpt lat="48.70924" lon="1.7498">
        <ele>175.19999694824</ele>
        <time>2014-01-19T14:33:19.000Z</time>
      </trkpt>
      <trkpt lat="48.7092" lon="1.74988">
        <ele>175.19999694824</ele>
        <time>2014-01-19T14:33:26.000Z</time>
      </trkpt>
      <trkpt lat="48.70919" lon="1.74989">
        <ele>175.19999694824</ele>
        <time>2014-01-19T14:33:28.000Z</time>
      </trkpt>
      <trkpt lat="48.70909" lon="1.7501">
        <ele>174.80000305176</ele>
        <time>2014-01-19T14:34:44.000Z</time>
      </trkpt>
      <trkpt lat="48.70905" lon="1.75018">
        <ele>174.80000305176</ele>
        <time>2014-01-19T14:34:49.000Z</time>
      </trkpt>
      <trkpt lat="48.70904" lon="1.75021">
        <ele>174.80000305176</ele>
        <time>2014-01-19T14:34:51.000Z</time>
      </trkpt>
      <trkpt lat="48.709" lon="1.75029">
        <ele>174.60000610352</ele>
        <time>2014-01-19T14:34:57.000Z</time>
      </trkpt>
      <trkpt lat="48.70895" lon="1.75039">
        <ele>174.60000610352</ele>
        <time>2014-01-19T14:35:05.000Z</time>
      </trkpt>
      <trkpt lat="48.70893" lon="1.75045">
        <ele>174.39999389648</ele>
        <time>2014-01-19T14:35:11.000Z</time>
      </trkpt>
      <trkpt lat="48.7089" lon="1.75049">
        <ele>174.39999389648</ele>
        <time>2014-01-19T14:35:16.000Z</time>
      </trkpt>
      <trkpt lat="48.70887" lon="1.75054">
        <ele>174.39999389648</ele>
        <time>2014-01-19T14:35:20.000Z</time>
      </trkpt>
      <trkpt lat="48.70886" lon="1.75057">
        <ele>174.39999389648</ele>
        <time>2014-01-19T14:35:22.000Z</time>
      </trkpt>
      <trkpt lat="48.70883" lon="1.75067">
        <ele>174.19999694824</ele>
        <time>2014-01-19T14:35:28.000Z</time>
      </trkpt>
      <trkpt lat="48.70882" lon="1.75069">
        <ele>174.19999694824</ele>
        <time>2014-01-19T14:35:29.000Z</time>
      </trkpt>
      <trkpt lat="48.7088" lon="1.75073">
        <ele>174.19999694824</ele>
        <time>2014-01-19T14:35:32.000Z</time>
      </trkpt>
      <trkpt lat="48.70878" lon="1.75079">
        <ele>174</ele>
        <time>2014-01-19T14:35:36.000Z</time>
      </trkpt>
      <trkpt lat="48.70874" lon="1.75085">
        <ele>174</ele>
        <time>2014-01-19T14:35:42.000Z</time>
      </trkpt>
      <trkpt lat="48.70871" lon="1.7509">
        <ele>174</ele>
        <time>2014-01-19T14:35:46.000Z</time>
      </trkpt>
      <trkpt lat="48.70868" lon="1.75097">
        <ele>174</ele>
        <time>2014-01-19T14:35:51.000Z</time>
      </trkpt>
      <trkpt lat="48.70865" lon="1.75105">
        <ele>174</ele>
        <time>2014-01-19T14:35:57.000Z</time>
      </trkpt>
      <trkpt lat="48.7086" lon="1.75114">
        <ele>174.19999694824</ele>
        <time>2014-01-19T14:36:03.000Z</time>
      </trkpt>
      <trkpt lat="48.70856" lon="1.75123">
        <ele>174.19999694824</ele>
        <time>2014-01-19T14:36:10.000Z</time>
      </trkpt>
      <trkpt lat="48.70853" lon="1.7513">
        <ele>174.19999694824</ele>
        <time>2014-01-19T14:36:14.000Z</time>
      </trkpt>
      <trkpt lat="48.7085" lon="1.75134">
        <ele>174.19999694824</ele>
        <time>2014-01-19T14:36:18.000Z</time>
      </trkpt>
      <trkpt lat="48.70849" lon="1.75137">
        <ele>174.19999694824</ele>
        <time>2014-01-19T14:36:20.000Z</time>
      </trkpt>
      <trkpt lat="48.70845" lon="1.75147">
        <ele>174.19999694824</ele>
        <time>2014-01-19T14:36:26.000Z</time>
      </trkpt>
      <trkpt lat="48.70844" lon="1.7515">
        <ele>174.19999694824</ele>
        <time>2014-01-19T14:36:29.000Z</time>
      </trkpt>
      <trkpt lat="48.70839" lon="1.75161">
        <ele>174</ele>
        <time>2014-01-19T14:36:37.000Z</time>
      </trkpt>
      <trkpt lat="48.70835" lon="1.75171">
        <ele>174</ele>
        <time>2014-01-19T14:36:42.000Z</time>
      </trkpt>
      <trkpt lat="48.70831" lon="1.75181">
        <ele>174</ele>
        <time>2014-01-19T14:36:49.000Z</time>
      </trkpt>
      <trkpt lat="48.70829" lon="1.75185">
        <ele>174</ele>
        <time>2014-01-19T14:36:53.000Z</time>
      </trkpt>
      <trkpt lat="48.70826" lon="1.75192">
        <ele>174</ele>
        <time>2014-01-19T14:36:56.000Z</time>
      </trkpt>
      <trkpt lat="48.70824" lon="1.75196">
        <ele>173.80000305176</ele>
        <time>2014-01-19T14:36:59.000Z</time>
      </trkpt>
      <trkpt lat="48.70822" lon="1.75203">
        <ele>173.80000305176</ele>
        <time>2014-01-19T14:37:04.000Z</time>
      </trkpt>
      <trkpt lat="48.70821" lon="1.75207">
        <ele>173.80000305176</ele>
        <time>2014-01-19T14:37:07.000Z</time>
      </trkpt>
      <trkpt lat="48.70816" lon="1.75217">
        <ele>173.80000305176</ele>
        <time>2014-01-19T14:37:14.000Z</time>
      </trkpt>
      <trkpt lat="48.70813" lon="1.75225">
        <ele>173.80000305176</ele>
        <time>2014-01-19T14:37:20.000Z</time>
      </trkpt>
      <trkpt lat="48.70812" lon="1.75228">
        <ele>173.80000305176</ele>
        <time>2014-01-19T14:37:22.000Z</time>
      </trkpt>
      <trkpt lat="48.70806" lon="1.75241">
        <ele>173.60000610352</ele>
        <time>2014-01-19T14:37:31.000Z</time>
      </trkpt>
      <trkpt lat="48.70802" lon="1.75251">
        <ele>173.60000610352</ele>
        <time>2014-01-19T14:37:37.000Z</time>
      </trkpt>
      <trkpt lat="48.70798" lon="1.75258">
        <ele>173.60000610352</ele>
        <time>2014-01-19T14:37:42.000Z</time>
      </trkpt>
      <trkpt lat="48.70795" lon="1.75265">
        <ele>173.60000610352</ele>
        <time>2014-01-19T14:37:48.000Z</time>
      </trkpt>
      <trkpt lat="48.70793" lon="1.75268">
        <ele>173.60000610352</ele>
        <time>2014-01-19T14:37:53.000Z</time>
      </trkpt>
      <trkpt lat="48.70791" lon="1.75278">
        <ele>173.39999389648</ele>
        <time>2014-01-19T14:38:05.000Z</time>
      </trkpt>
      <trkpt lat="48.70787" lon="1.75289">
        <ele>173.39999389648</ele>
        <time>2014-01-19T14:38:11.000Z</time>
      </trkpt>
      <trkpt lat="48.7078" lon="1.75304">
        <ele>173.39999389648</ele>
        <time>2014-01-19T14:38:20.000Z</time>
      </trkpt>
      <trkpt lat="48.70777" lon="1.7531">
        <ele>173.39999389648</ele>
        <time>2014-01-19T14:38:25.000Z</time>
      </trkpt>
      <trkpt lat="48.70773" lon="1.75322">
        <ele>173.19999694824</ele>
        <time>2014-01-19T14:38:32.000Z</time>
      </trkpt>
      <trkpt lat="48.70769" lon="1.75329">
        <ele>173.19999694824</ele>
        <time>2014-01-19T14:38:37.000Z</time>
      </trkpt>
      <trkpt lat="48.70767" lon="1.75337">
        <ele>173.19999694824</ele>
        <time>2014-01-19T14:38:43.000Z</time>
      </trkpt>
      <trkpt lat="48.70763" lon="1.75346">
        <ele>173</ele>
        <time>2014-01-19T14:38:49.000Z</time>
      </trkpt>
      <trkpt lat="48.70761" lon="1.75354">
        <ele>173</ele>
        <time>2014-01-19T14:38:54.000Z</time>
      </trkpt>
      <trkpt lat="48.70757" lon="1.75362">
        <ele>172.80000305176</ele>
        <time>2014-01-19T14:38:59.000Z</time>
      </trkpt>
      <trkpt lat="48.70757" lon="1.75368">
        <ele>172.60000610352</ele>
        <time>2014-01-19T14:39:03.000Z</time>
      </trkpt>
      <trkpt lat="48.70755" lon="1.75371">
        <ele>172.60000610352</ele>
        <time>2014-01-19T14:39:05.000Z</time>
      </trkpt>
      <trkpt lat="48.70753" lon="1.75375">
        <ele>172.60000610352</ele>
        <time>2014-01-19T14:39:11.000Z</time>
      </trkpt>
      <trkpt lat="48.70751" lon="1.7538">
        <ele>172.39999389648</ele>
        <time>2014-01-19T14:39:16.000Z</time>
      </trkpt>
      <trkpt lat="48.7075" lon="1.75383">
        <ele>172.39999389648</ele>
        <time>2014-01-19T14:39:19.000Z</time>
      </trkpt>
      <trkpt lat="48.70747" lon="1.75387">
        <ele>172.39999389648</ele>
        <time>2014-01-19T14:39:24.000Z</time>
      </trkpt>
      <trkpt lat="48.70747" lon="1.75387">
        <ele>172.39999389648</ele>
        <time>2014-01-19T14:39:25.000Z</time>
      </trkpt>
      <trkpt lat="48.70739" lon="1.75406">
        <ele>172</ele>
        <time>2014-01-19T14:39:54.000Z</time>
      </trkpt>
      <trkpt lat="48.70734" lon="1.75418">
        <ele>171.80000305176</ele>
        <time>2014-01-19T14:40:01.000Z</time>
      </trkpt>
      <trkpt lat="48.70733" lon="1.7542">
        <ele>171.80000305176</ele>
        <time>2014-01-19T14:40:04.000Z</time>
      </trkpt>
      <trkpt lat="48.70726" lon="1.75437">
        <ele>171.60000610352</ele>
        <time>2014-01-19T14:40:17.000Z</time>
      </trkpt>
      <trkpt lat="48.70724" lon="1.75442">
        <ele>171.60000610352</ele>
        <time>2014-01-19T14:40:19.000Z</time>
      </trkpt>
      <trkpt lat="48.70723" lon="1.75446">
        <ele>171.60000610352</ele>
        <time>2014-01-19T14:40:23.000Z</time>
      </trkpt>
      <trkpt lat="48.70717" lon="1.75459">
        <ele>171.60000610352</ele>
        <time>2014-01-19T14:40:31.000Z</time>
      </trkpt>
      <trkpt lat="48.70712" lon="1.75472">
        <ele>171.80000305176</ele>
        <time>2014-01-19T14:40:39.000Z</time>
      </trkpt>
      <trkpt lat="48.70707" lon="1.75483">
        <ele>172</ele>
        <time>2014-01-19T14:40:45.000Z</time>
      </trkpt>
      <trkpt lat="48.70702" lon="1.75485">
        <ele>172</ele>
        <time>2014-01-19T14:40:51.000Z</time>
      </trkpt>
      <trkpt lat="48.70703" lon="1.75481">
        <ele>172</ele>
        <time>2014-01-19T14:40:56.000Z</time>
      </trkpt>
      <trkpt lat="48.70703" lon="1.75477">
        <ele>172</ele>
        <time>2014-01-19T14:41:00.000Z</time>
      </trkpt>
      <trkpt lat="48.70703" lon="1.75473">
        <ele>172</ele>
        <time>2014-01-19T14:41:02.000Z</time>
      </trkpt>
      <trkpt lat="48.70708" lon="1.75459">
        <ele>171.80000305176</ele>
        <time>2014-01-19T14:41:08.000Z</time>
      </trkpt>
      <trkpt lat="48.70709" lon="1.75451">
        <ele>171.80000305176</ele>
        <time>2014-01-19T14:41:13.000Z</time>
      </trkpt>
      <trkpt lat="48.70709" lon="1.75451">
        <ele>171.80000305176</ele>
        <time>2014-01-19T14:41:16.000Z</time>
      </trkpt>
      <trkpt lat="48.70694" lon="1.7544">
        <ele>171.60000610352</ele>
        <time>2014-01-19T14:43:16.000Z</time>
      </trkpt>
      <trkpt lat="48.70691" lon="1.75437">
        <ele>171.60000610352</ele>
        <time>2014-01-19T14:43:18.000Z</time>
      </trkpt>
    </trkseg>
  </trk>
</gpx>